[[{"header":{"parameterUnit":"m.s-1","parameterCategory":1,"la1":30.6,"la2":29.2853,"lo1":-89.7004,"lo2":-87.6739,"dy":0.0162,"dx":0.0183,"nx":112,"ny":82,"refTime":"2023-09-13T00:00:00:Z","depth":0,"parameterNumber":2,"parameterNumberName":"U-component_of_WINDS"},"data":[0.0,0.0,0.0,0.0,0.0,0.0,0.0,0.0,0.0,0.0,0.0,0.0,0.0,0.0,0.0,0.0,0.0,0.0,0.0,0.0,0.0,0.0,0.0,0.0,0.0,0.0,0.0,0.0,0.0,0.0,0.0,0.0,0.0,0.0,0.0,0.0,0.0,0.0,0.0,0.0,0.0,0.0,0.0,0.0,0.0,0.0,0.0,0.0,0.0,0.0,0.0,0.0,0.0,0.0,0.0,0.0,0.0,0.0,0.0,0.0,0.0,0.0,0.0,0.0,0.0,0.0,0.0,0.0,0.0,0.0,0.0,0.0,0.0,0.0,0.0,0.0,0.0,0.0,0.0,0.0,0.0,0.0,0.0,0.0,0.0,0.0,0.0,0.0,0.0,0.0,2.5576,2.6174,2.9342,3.1634,3.2158,3.1595,2.9692,2.6089,0.0,0.0,0.0,0.0,0.0,0.0,0.0,0.0,0.0,0.0,0.0,0.0,0.0,0.0,0.0,0.0,0.0,0.0,0.0,0.0,0.0,0.0,0.0,0.0,0.0,0.0,0.0,0.0,0.0,0.0,0.0,0.0,0.0,0.0,0.0,0.0,0.0,0.0,0.0,0.0,0.0,0.0,0.0,0.0,0.0,0.0,0.0,0.0,0.0,0.0,0.0,0.0,0.0,0.0,0.0,0.0,0.0,0.0,0.0,0.0,0.0,0.0,0.0,0.0,0.0,0.0,0.0,0.0,0.0,0.0,0.0,0.0,0.0,0.0,0.0,0.0,0.0,0.0,0.0,0.0,0.0,0.0,0.0,0.0,0.0,0.0,0.0,0.0,0.0,0.0,0.0,0.0,0.0,0.0,0.0,0.0,0.0,0.0,0.0,0.0,0.0,0.0,0.0,0.0,2.6022,2.833,2.978,3.003,2.8701,2.9747,2.8605,2.42,0.0,0.0,0.0,0.0,0.0,0.0,0.0,0.0,0.0,0.0,0.0,0.0,0.0,0.0,0.0,0.0,0.0,0.0,0.0,0.0,0.0,0.0,0.0,0.0,0.0,0.0,0.0,0.0,0.0,0.0,0.0,0.0,0.0,0.0,0.0,0.0,0.0,0.0,0.0,0.0,0.0,0.0,0.0,0.0,0.0,0.0,0.0,0.0,0.0,0.0,0.0,0.0,0.0,0.0,0.0,0.0,0.0,0.0,0.0,0.0,0.0,0.0,0.0,0.0,0.0,0.0,0.0,0.0,0.0,0.0,0.0,0.0,0.0,0.0,0.0,0.0,0.0,0.0,0.0,0.0,0.0,0.0,0.0,0.0,0.0,0.0,0.0,0.0,0.0,0.0,0.0,0.0,0.0,0.0,0.0,0.0,0.0,0.0,0.0,0.0,0.0,0.0,0.0,2.3676,2.5691,2.8237,2.8447,2.8223,2.783,2.8946,2.7908,2.3803,2.4398,0.0,0.0,0.0,0.0,0.0,0.0,0.0,0.0,0.0,0.0,0.0,0.0,0.0,0.0,0.0,0.0,0.0,0.0,0.0,0.0,0.0,0.0,0.0,0.0,0.0,0.0,0.0,0.0,0.0,0.0,0.0,0.0,0.0,0.0,0.0,0.0,0.0,0.0,0.0,0.0,0.0,0.0,0.0,0.0,0.0,0.0,0.0,0.0,0.0,0.0,0.0,0.0,0.0,0.0,0.0,0.0,0.0,0.0,0.0,0.0,0.0,0.0,0.0,0.0,0.0,0.0,0.0,0.0,0.0,0.0,0.0,0.0,0.0,0.0,0.0,0.0,0.0,0.0,0.0,0.0,0.0,0.0,0.0,0.0,0.0,0.0,0.0,0.0,0.0,0.0,0.0,0.0,0.0,0.0,0.0,0.0,0.0,0.0,0.0,0.0,0.0,0.0,2.4439,2.5151,2.7471,2.7106,2.6841,2.7185,2.8142,2.7158,2.3474,2.4073,0.0,0.0,0.0,0.0,0.0,0.0,0.0,0.0,0.0,0.0,0.0,0.0,0.0,0.0,0.0,0.0,0.0,0.0,0.0,0.0,0.0,0.0,0.0,0.0,0.0,0.0,0.0,0.0,0.0,0.0,0.0,0.0,0.0,0.0,0.0,0.0,0.0,0.0,0.0,0.0,0.0,0.0,0.0,0.0,0.0,0.0,0.0,0.0,0.0,0.0,0.0,0.0,0.0,0.0,0.0,0.0,0.0,0.0,0.0,0.0,0.0,0.0,0.0,0.0,0.0,0.0,0.0,0.0,0.0,0.0,0.0,0.0,0.0,0.0,0.0,0.0,0.0,0.0,0.0,0.0,0.0,0.0,0.0,0.0,0.0,0.0,0.0,0.0,0.0,0.0,0.0,0.0,0.0,0.0,0.0,0.0,0.0,0.0,0.0,0.0,0.0,0.0,2.3847,2.4692,2.6669,2.6774,2.6368,2.5553,2.679,2.6075,2.2445,2.2856,0.0,0.0,0.0,0.0,0.0,0.0,0.0,0.0,0.0,0.0,0.0,0.0,0.0,0.0,0.0,0.0,0.0,0.0,0.0,0.0,0.0,0.0,0.0,0.0,0.0,0.0,0.0,0.0,0.0,0.0,0.0,0.0,0.0,0.0,0.0,0.0,0.0,0.0,0.0,0.0,0.0,0.0,0.0,0.0,0.0,0.0,0.0,0.0,0.0,0.0,0.0,0.0,0.0,0.0,0.0,0.0,0.0,0.0,0.0,0.0,0.0,0.0,0.0,0.0,0.0,0.0,0.0,0.0,0.0,0.0,0.0,0.0,0.0,0.0,0.0,0.0,0.0,0.0,0.0,0.0,0.0,0.0,0.0,0.0,0.0,0.0,0.0,0.0,0.0,0.0,0.0,0.0,0.0,0.0,0.0,0.0,0.0,0.0,0.0,0.0,0.0,0.0,2.3726,2.4841,2.587,2.5936,2.5753,2.5393,2.6224,2.5462,2.2416,0.0,0.0,0.0,0.0,0.0,0.0,0.0,0.0,0.0,0.0,0.0,0.0,0.0,0.0,0.0,0.0,0.0,0.0,0.0,0.0,0.0,0.0,0.0,0.0,0.0,0.0,0.0,0.0,0.0,0.0,0.0,0.0,0.0,0.0,0.0,0.0,0.0,0.0,0.0,0.0,0.0,0.0,0.0,0.0,0.0,0.0,0.0,0.0,0.0,0.0,0.0,0.0,0.0,0.0,0.0,0.0,0.0,0.0,0.0,0.0,0.0,0.0,0.0,0.0,0.0,0.0,0.0,0.0,0.0,0.0,0.0,0.0,0.0,0.0,0.0,0.0,0.0,0.0,0.0,0.0,0.0,0.0,0.0,0.0,0.0,0.0,0.0,0.0,0.0,0.0,0.0,0.0,0.0,0.0,0.0,0.0,0.0,0.0,0.0,0.0,0.0,0.0,2.2149,2.3819,2.5071,2.5481,2.5425,2.5366,2.5368,2.5604,2.4747,2.237,0.0,0.0,0.0,0.0,0.0,0.0,0.0,0.0,0.0,0.0,0.0,0.0,0.0,0.0,0.0,0.0,0.0,0.0,0.0,0.0,0.0,0.0,0.0,0.0,0.0,0.0,0.0,0.0,0.0,0.0,0.0,0.0,0.0,0.0,0.0,0.0,0.0,0.0,0.0,0.0,0.0,0.0,0.0,0.0,0.0,0.0,0.0,0.0,0.0,0.0,0.0,0.0,0.0,0.0,0.0,0.0,0.0,0.0,0.0,0.0,0.0,0.0,0.0,0.0,0.0,0.0,0.0,0.0,0.0,0.0,0.0,0.0,0.0,0.0,0.0,0.0,0.0,0.0,0.0,0.0,0.0,0.0,0.0,0.0,0.0,0.0,0.0,0.0,0.0,0.0,0.0,0.0,0.0,0.0,0.0,0.0,0.0,0.0,0.0,0.0,0.0,0.0,2.2369,2.4032,2.529,2.557,2.5418,2.5302,2.5299,2.4877,2.3854,0.0,0.0,0.0,0.0,0.0,0.0,0.0,0.0,0.0,0.0,0.0,0.0,0.0,0.0,0.0,0.0,0.0,0.0,0.0,0.0,0.0,0.0,0.0,0.0,0.0,0.0,0.0,0.0,0.0,0.0,0.0,0.0,0.0,0.0,0.0,0.0,0.0,0.0,0.0,0.0,0.0,0.0,0.0,0.0,0.0,0.0,0.0,0.0,0.0,0.0,0.0,0.0,0.0,0.0,0.0,0.0,0.0,0.0,0.0,0.0,0.0,0.0,0.0,0.0,0.0,0.0,0.0,0.0,0.0,0.0,0.0,0.0,0.0,0.0,0.0,0.0,0.0,0.0,0.0,0.0,0.0,0.0,0.0,0.0,0.0,0.0,0.0,0.0,0.0,0.0,0.0,0.0,0.0,0.0,0.0,0.0,0.0,0.0,0.0,0.0,0.0,0.0,0.0,2.2373,2.4013,2.5178,2.5496,2.5395,2.5323,2.5368,2.4949,2.3956,2.2248,0.0,0.0,0.0,0.0,0.0,0.0,0.0,0.0,0.0,0.0,0.0,0.0,0.0,0.0,0.0,0.0,0.0,0.0,0.0,0.0,0.0,0.0,0.0,0.0,0.0,0.0,0.0,0.0,0.0,0.0,0.0,0.0,0.0,0.0,0.0,0.0,0.0,0.0,0.0,0.0,0.0,0.0,0.0,0.0,0.0,0.0,0.0,0.0,0.0,0.0,0.0,0.0,0.0,0.0,0.0,0.0,0.0,0.0,0.0,0.0,0.0,0.0,0.0,0.0,0.0,0.0,0.0,0.0,0.0,0.0,0.0,0.0,0.0,0.0,0.0,0.0,0.0,0.0,0.0,0.0,0.0,0.0,0.0,0.0,0.0,0.0,0.0,0.0,0.0,0.0,0.0,0.0,0.0,0.0,0.0,0.0,0.0,0.0,0.0,0.0,0.0,0.0,2.2468,2.4072,2.52,2.5512,2.5422,2.5366,2.541,2.503,2.4011,2.2229,0.0,0.0,0.0,0.0,0.0,0.0,0.0,0.0,0.0,0.0,0.0,0.0,0.0,0.0,0.0,0.0,0.0,0.0,0.0,0.0,0.0,0.0,0.0,0.0,0.0,0.0,0.0,0.0,0.0,0.0,0.0,0.0,0.0,0.0,0.0,0.0,0.0,0.0,0.0,0.0,0.0,0.0,0.0,0.0,0.0,0.0,0.0,0.0,0.0,0.0,0.0,0.0,0.0,0.0,0.0,0.0,0.0,0.0,0.0,0.0,0.0,0.0,0.0,0.0,0.0,0.0,0.0,0.0,0.0,0.0,0.0,0.0,0.0,0.0,0.0,0.0,0.0,0.0,0.0,0.0,0.0,0.0,0.0,0.0,0.0,0.0,0.0,0.0,0.0,0.0,0.0,0.0,0.0,0.0,0.0,0.0,0.0,0.0,0.0,0.0,0.0,0.0,2.2779,2.4257,2.5335,2.5676,2.5515,2.5396,2.5403,2.5084,2.4115,2.235,0.0,0.0,0.0,0.0,0.0,0.0,0.0,0.0,0.0,0.0,0.0,0.0,0.0,0.0,0.0,0.0,0.0,0.0,0.0,0.0,0.0,0.0,0.0,0.0,0.0,0.0,0.0,0.0,0.0,0.0,0.0,0.0,0.0,0.0,0.0,0.0,0.0,0.0,0.0,0.0,0.0,0.0,0.0,0.0,0.0,0.0,0.0,0.0,0.0,0.0,0.0,0.0,0.0,0.0,0.0,0.0,0.0,0.0,0.0,0.0,-0.6527,-0.2643,0.0,0.0,0.0,0.0,0.0,0.0,0.0,0.0,0.0,0.0,0.0,0.0,0.0,0.0,0.0,0.0,0.0,0.0,0.0,0.0,0.0,0.0,0.0,0.0,0.0,0.0,0.0,0.0,0.0,0.0,0.0,0.0,0.0,0.0,0.0,0.0,0.0,0.0,0.0,0.0,2.365,2.4656,2.552,2.6523,2.5838,2.5356,2.5468,2.5037,2.4512,2.3992,2.2868,0.0,0.0,0.0,0.0,0.0,0.0,0.0,0.0,0.0,0.0,0.0,0.0,0.0,0.0,0.0,0.0,0.0,0.0,0.0,0.0,0.0,0.0,0.0,0.0,0.0,0.0,0.0,0.0,0.0,0.0,0.0,0.0,0.0,0.0,0.0,0.0,0.0,0.0,0.0,0.0,0.0,0.0,0.0,0.0,0.0,0.0,0.0,0.0,0.0,0.0,0.0,0.0,0.0,0.0,0.0,0.0,0.0,0.0,0.0,-1.0454,-0.8856,0.0,0.0,0.0,0.0,0.0,0.0,0.0,0.0,0.0,0.0,0.0,0.0,0.0,0.0,0.0,0.0,0.0,0.0,0.0,0.0,0.0,0.0,0.0,0.0,0.0,0.0,0.0,0.0,0.0,0.0,0.0,0.0,0.0,0.0,0.0,0.0,0.0,0.0,0.0,0.0,2.3379,2.4566,2.5313,2.5609,2.5096,2.4608,2.4283,2.4202,2.3907,2.3288,2.2647,0.0,0.0,0.0,0.0,0.0,0.0,0.0,0.0,0.0,0.0,0.0,0.0,0.0,0.0,0.0,0.0,0.0,0.0,0.0,0.0,0.0,0.0,0.0,0.0,0.0,0.0,0.0,0.0,0.0,0.0,0.0,0.0,0.0,0.0,0.0,0.0,0.0,0.0,0.0,0.0,0.0,0.0,0.0,0.0,0.0,0.0,0.0,0.0,0.0,0.0,0.0,0.0,0.0,-1.5151,-1.325,-1.12,-1.1488,-1.1065,-1.0235,-1.3988,-1.5519,-1.5278,-1.3772,0.0,0.0,0.0,0.0,0.0,0.0,0.0,0.0,0.0,0.0,0.0,0.0,0.0,0.0,0.0,0.0,0.0,0.0,0.0,0.0,0.0,0.0,0.0,0.0,0.4437,0.7964,1.2588,0.0,0.0,0.0,0.0,0.0,0.0,0.0,0.0,0.0,0.0,0.0,2.2854,2.435,2.5166,2.4812,2.4373,2.384,2.3178,2.34,2.3206,2.2337,2.2314,2.1776,0.0,0.0,0.0,0.0,0.0,0.0,0.0,0.0,0.0,0.0,0.0,0.0,0.0,0.0,0.0,0.0,0.0,0.0,0.0,0.0,0.0,0.0,0.0,0.0,0.0,0.0,0.0,0.0,0.0,0.0,0.0,0.0,-1.2339,-1.3558,0.0,0.0,0.0,0.0,0.0,0.0,0.0,0.0,0.0,0.0,0.0,0.0,0.0,-1.8865,-1.8493,-1.9211,-1.8977,-1.7809,-1.8639,-1.8215,-1.6645,-1.6284,-1.5439,-1.4082,-1.1804,0.0,-1.4536,-1.2919,0.0,0.0,0.0,0.0,0.0,0.0,0.0,0.0,0.0,0.0,0.0,0.0,0.0,0.0,0.0,0.0,0.0,0.0,0.0,0.0,0.0,0.0,-0.2644,-0.2917,0.0515,0.4304,0.0,1.0096,1.3301,1.2497,1.3628,1.4834,0.0,0.0,0.0,0.0,0.0,0.0,2.2931,2.4379,2.5646,2.6543,2.5117,2.4088,2.4034,2.3708,2.3589,2.3802,2.3232,2.2618,2.2044,2.2013,0.0,0.0,0.0,0.0,0.0,0.0,0.0,0.0,0.0,0.0,0.0,0.0,0.0,0.0,0.0,0.0,0.0,0.0,0.0,0.0,0.0,0.0,0.0,0.0,0.0,0.0,0.0,0.0,0.0,-1.1089,-1.4389,-1.4548,-1.6137,-1.6283,0.0,0.0,0.0,0.0,0.0,0.0,0.0,0.0,0.0,-1.7618,-1.9438,-1.9981,-1.9169,-2.0162,-1.9749,-1.7876,-1.7422,-1.6591,-1.5441,-1.4942,-1.4313,-1.3467,-1.1638,-1.1149,-1.151,-1.0469,-0.9682,-0.8805,0.0,0.0,0.0,0.0,-0.4007,-0.6307,-0.5953,-0.7306,-0.8818,-0.648,0.0,0.0,0.0,0.0,0.0,0.0,0.0,-0.4188,0.0,0.0,-0.4439,-0.4403,-0.2021,0.0691,0.2298,0.6165,0.9747,0.0,1.3043,1.4455,1.4939,1.5517,0.0,0.0,0.0,2.177,2.2699,2.4334,2.5253,2.4857,2.3981,2.3032,2.2095,2.254,2.2867,2.28,2.3043,2.286,2.2207,2.2101,2.1255,0.0,0.0,0.0,0.0,0.0,0.0,0.0,0.0,0.0,0.0,0.0,0.0,0.0,0.0,0.0,0.0,0.0,0.0,0.0,0.0,0.0,0.0,0.0,0.0,0.0,0.0,0.0,0.0,-1.3343,-1.5406,-1.4736,-1.6651,-1.6602,0.0,0.0,0.0,0.0,0.0,0.0,-1.4959,-1.4499,-1.4717,-1.5741,-1.8355,-1.9323,-1.8505,-1.8634,-1.7707,-1.5729,-1.4258,-1.3135,-1.2262,-1.2042,-1.1632,-1.1073,-1.0592,-0.9614,-0.8325,-0.8446,-0.7333,-0.556,-0.5034,-0.3578,-0.1855,-0.2988,-0.466,-0.6343,-0.6377,-0.7729,-0.9054,-0.6594,-0.3368,-0.0383,0.0,0.0,0.0,0.0,0.0,-0.4912,-0.6762,-0.6124,-0.4915,-0.489,-0.3163,-0.1081,0.083,0.3896,0.7151,0.0,1.2274,1.3884,1.4624,1.5418,0.0,1.7725,2.0049,2.1864,2.2479,2.4266,2.4924,2.3571,2.3113,2.229,2.0779,2.171,2.2125,2.1532,2.2614,2.279,2.1765,2.1695,2.1035,1.9641,0.0,0.0,0.0,0.0,0.0,0.0,0.0,0.0,0.0,0.0,0.0,0.0,0.0,0.0,0.0,0.0,0.0,0.0,0.0,0.0,0.0,0.0,0.0,0.0,0.0,0.0,0.0,0.0,0.0,-1.5578,-1.7234,0.0,0.0,0.0,0.0,-1.2503,-1.2527,-1.3801,-1.6709,-1.5601,-1.6111,-1.8886,-1.5993,-1.457,-1.4961,-1.1883,-1.0273,-1.0201,-0.9637,-0.9028,-0.8391,-0.8812,-0.8388,-0.7287,-0.7162,-0.6597,-0.5865,-0.785,-0.7607,-0.575,-0.3363,-0.1959,-0.1208,-0.0909,-0.2708,-0.5209,-0.4855,-0.6399,-0.8119,-0.5296,-0.0075,0.4803,0.3286,0.4328,0.0,0.0,-0.1373,-0.4252,-0.674,-0.6235,-0.5065,-0.4997,-0.2539,0.0249,0.1787,0.3548,0.5518,0.0,1.0128,1.2213,1.4265,0.0,1.5448,1.767,1.9989,2.1741,2.2422,2.4146,2.5059,2.4392,2.3473,2.2555,2.1694,2.2043,2.183,2.0726,2.2186,2.2389,2.0744,2.09,2.1038,2.0989,1.9741,0.0,0.0,0.0,0.0,0.0,0.0,0.0,0.0,0.0,0.0,0.0,0.0,0.0,0.0,0.0,0.0,0.0,0.0,0.0,0.0,0.0,0.0,0.0,0.0,0.0,0.0,0.0,0.0,-1.1423,-1.3044,0.0,-1.0226,-1.0059,-1.004,-0.9822,-1.0043,-1.0329,-1.0789,-1.0092,-0.999,-1.0677,-0.9705,-0.9057,-0.8841,-0.7316,-0.6392,-0.6059,-0.562,-0.5426,-0.5395,-0.5169,-0.4848,-0.449,-0.4456,-0.4028,-0.3339,-0.3597,-0.3537,-0.3071,-0.0332,0.0454,0.0057,-0.0267,-0.1828,-0.3774,-0.3848,-0.4014,-0.349,0.0671,0.4418,0.7282,0.6766,0.5471,0.3754,0.194,-0.0871,-0.3569,-0.4706,-0.3887,-0.258,-0.1736,-0.082,0.043,0.2643,0.4191,0.5731,0.7769,0.9512,1.1344,1.356,1.4822,1.618,1.8211,2.0336,2.1806,2.2136,2.3554,2.4031,2.2736,2.2324,2.1786,2.0936,2.1463,2.1816,2.1708,2.2547,2.2824,2.2356,2.1765,2.1059,2.0271,1.8964,1.7639,0.0,0.0,0.0,0.0,0.0,0.0,0.0,0.0,0.0,0.0,0.0,0.0,0.0,0.0,0.0,0.0,0.0,0.0,0.0,0.0,0.0,0.0,0.0,0.0,0.0,-0.9373,-1.0184,-0.865,-0.9863,-0.9972,-0.7655,-0.7822,-0.7967,-0.7692,-0.7906,-0.7571,-0.6683,-0.648,-0.6072,-0.5258,-0.5169,-0.4905,-0.4418,-0.3382,-0.2691,-0.2338,-0.197,-0.1877,-0.1999,-0.1607,-0.1673,-0.2023,-0.1703,-0.1381,-0.0969,0.0333,0.0649,0.0507,0.2208,0.2611,0.2165,0.1288,0.0163,-0.0929,-0.101,-0.0302,0.1213,0.5,0.7752,0.9483,0.9049,0.7007,0.459,0.329,0.0883,-0.1504,-0.2248,-0.147,-0.0284,0.0479,0.0999,0.1822,0.3726,0.4504,0.5514,0.781,0.9368,1.0972,1.305,1.4358,1.5826,1.7798,1.9462,2.0551,2.0759,2.2218,2.2615,2.0978,2.1348,2.1349,2.0473,2.0764,2.1273,2.1893,2.2241,2.2555,2.2816,2.1592,2.0451,1.9489,1.75,1.6267,1.5789,0.0,0.0,0.0,0.0,0.0,0.0,0.0,0.0,0.0,0.0,0.0,0.0,0.0,0.0,0.0,0.0,0.0,0.0,0.0,0.0,0.0,0.0,0.0,-0.7042,-0.8803,-0.9389,-0.7681,-0.8025,-0.7706,-0.5971,-0.6163,-0.6352,-0.6125,-0.6044,-0.572,-0.4952,-0.5329,-0.4935,-0.3614,-0.2813,-0.2259,-0.1995,0.0,0.1009,0.1039,0.129,0.1563,0.1824,0.1778,0.1177,0.023,0.1178,0.1414,0.1313,0.3505,0.4566,0.4806,0.41,0.4361,0.5085,0.404,0.3488,0.3346,0.3641,0.4492,0.5641,0.7217,0.9554,1.1514,0.996,0.9101,0.8177,0.6007,0.3863,0.1861,0.0505,0.087,0.1547,0.1344,0.2871,0.4507,0.5107,0.4508,0.4794,0.8006,0.9631,1.1025,1.2686,1.3302,1.4283,1.6396,1.7463,0.0,1.842,2.0295,2.0981,1.9392,2.0664,2.1282,2.0476,2.0019,2.0196,2.1198,2.1309,2.1542,2.1975,2.0411,1.9295,1.8805,1.5495,1.4929,1.7187,0.0,0.0,0.0,0.0,0.0,0.0,0.0,0.0,0.0,0.0,0.0,0.0,0.0,0.0,0.0,0.0,0.0,0.0,0.0,0.0,0.0,-0.3362,-0.3896,-0.5294,-0.5628,-0.5399,-0.4483,-0.3962,-0.3668,-0.3434,-0.2884,-0.2553,-0.2609,-0.2263,-0.1728,-0.0914,-0.1618,-0.1648,-0.0904,-0.0438,0.0,0.0374,0.2219,0.336,0.3814,0.4069,0.4408,0.4838,0.5053,0.485,0.4383,0.5123,0.5004,0.4379,0.5749,0.6431,0.66,0.6418,0.5985,0.5614,0.6054,0.5788,0.5032,0.3534,0.4851,0.726,0.7643,0.8971,1.0268,0.9288,0.8402,0.7633,0.7094,0.5669,0.4173,0.3781,0.3612,0.3569,0.369,0.4418,0.5285,0.6226,0.6849,0.7583,0.866,0.9844,1.0929,1.1836,1.3506,1.5305,1.7023,1.8941,0.0,1.9956,2.0779,2.1015,2.0036,1.9817,1.9947,2.0431,1.9704,2.0146,2.2301,2.2355,2.2809,2.3955,2.2959,2.1241,1.8846,1.6864,1.5413,0.0,0.0,0.0,0.0,0.0,0.0,0.0,0.0,0.0,0.0,0.0,0.0,0.0,0.0,0.0,0.0,0.0,0.0,0.0,0.0,0.0,0.0,-0.1614,-0.1502,-0.1804,-0.2466,-0.2737,-0.2279,-0.1533,-0.1235,-0.1581,-0.0744,-0.0198,-0.0316,0.036,0.1001,0.1649,0.1125,0.0957,0.1276,0.1944,0.2586,0.3178,0.5019,0.6149,0.6584,0.7196,0.7234,0.6786,0.7497,0.7332,0.6522,0.7534,0.7806,0.7609,0.834,0.9071,0.0,0.0,0.0,0.0,0.0,0.7722,0.683,0.5987,0.6898,0.8439,0.8716,0.9299,0.976,0.8786,0.7241,0.5867,0.6051,0.4386,0.2846,0.3999,0.4087,0.4033,0.4887,0.5536,0.6137,0.6787,0.7208,0.7749,0.8697,0.8892,0.0,1.0807,1.2948,1.4901,1.6136,1.7898,1.8842,1.8159,1.8973,1.9388,1.8765,1.8929,1.9471,2.0414,1.9887,0.0,0.0,0.0,2.2852,2.34,2.3006,0.0,0.0,0.0,1.6001,1.3857,0.0,0.0,0.0,0.5599,0.1222,0.0,0.0,0.0,0.0,0.0,0.0,0.0,0.0,0.0,0.0,0.0,0.0,0.0,0.0,0.0,0.0,0.0205,0.1183,0.2365,0.0708,-0.0588,-0.0392,0.0128,0.0378,0.0189,0.0946,0.1417,0.1334,0.2175,0.2896,0.3352,0.3119,0.0,0.0,0.0,0.5243,0.6091,0.7921,0.9015,0.9357,1.0278,0.9938,0.8512,0.9702,0.9379,0.7935,0.9311,1.0222,1.0695,1.0979,1.1996,1.3061,1.025,0.9622,1.0269,0.985,0.9252,0.8808,0.9549,0.0,0.0,0.985,0.9971,0.9627,0.8281,0.6122,0.4142,0.4349,0.2348,0.0698,0.3184,0.3805,0.4107,0.5425,0.643,0.7088,0.7112,0.6688,0.6807,0.8558,0.783,0.7664,1.0049,1.2156,1.3801,1.4573,1.5742,1.6181,1.5148,1.6419,1.7275,1.6872,0.0,0.0,2.0409,2.0324,2.0979,2.2819,2.2877,2.2566,2.1928,2.2066,2.0605,1.7299,1.7741,1.7071,1.5206,1.2862,0.9002,0.3682,-0.0969,-0.5404,0.0,0.0,0.0,0.0,0.0,0.0,0.0,0.0,0.0,0.0,0.0,0.0,0.0,0.0,0.0,0.1794,0.2189,0.2795,0.375,0.358,0.3323,0.3522,0.3521,0.3531,0.3491,0.3532,0.3664,0.3884,0.3821,0.4342,0.5601,0.4786,0.4621,0.5421,0.6473,0.73,0.7975,0.9611,1.1028,1.2205,0.0,0.0,1.2737,1.3368,1.3261,1.2615,1.341,1.3262,1.2506,1.2842,1.3406,1.3899,1.2101,1.1733,1.2043,1.014,1.0154,1.092,0.9588,0.9325,0.9554,0.9318,0.9209,0.8855,0.7014,0.6855,0.0,0.6919,0.6614,0.6671,0.7563,0.747,0.7071,0.6811,0.7577,0.8237,0.7822,0.8254,0.8962,0.9822,0.9734,0.9903,1.127,1.2711,1.3859,1.4452,1.6584,1.7864,1.7046,1.7677,1.8203,1.8206,1.8075,1.8656,2.0274,2.0332,2.1084,2.2941,2.4287,2.4813,2.442,2.4387,2.3705,2.2231,2.1446,2.013,1.8305,1.4091,0.8149,0.0613,-0.3811,-0.8317,0.0,0.0,0.0,0.0,0.0,0.0,0.0,0.0,0.0,0.0,0.0,0.0475,-0.0071,0.0,0.3269,0.3889,0.4585,0.5329,0.6293,0.6173,0.5611,0.4638,0.4467,0.4535,0.4763,0.5128,0.5487,0.588,0.6184,0.6668,0.7294,0.7127,0.6979,0.6958,0.8403,0.9285,0.9595,1.1132,1.2406,1.3389,1.3642,1.394,1.4261,1.4962,1.5418,1.5624,1.5472,1.5734,1.629,1.6123,1.5956,1.5682,1.4499,1.4082,1.3922,1.2494,1.2478,1.2946,1.1604,1.0979,1.0708,1.014,0.993,0.9609,0.799,0.7224,0.6902,0.6586,0.5865,0.5508,0.7114,0.7471,0.75,0.7977,0.8474,0.8727,0.8235,0.9076,0.9935,1.0032,1.0753,1.1455,1.1852,1.3033,1.4154,1.4743,1.637,1.7343,1.6905,1.7376,1.782,1.8032,1.8235,1.8889,2.0237,2.077,2.1618,2.2972,2.4272,2.4897,2.4671,2.5226,2.5018,2.3883,2.3853,2.2565,1.9951,1.6961,1.0201,-0.0,-0.3465,-0.9136,0.0,0.0,0.0,0.0,0.0,0.0,0.0,-0.5045,-0.3632,-0.2772,-0.0591,0.1174,0.1058,0.2848,0.4754,0.5711,0.6551,0.7316,0.8164,0.7714,0.6598,0.4797,0.478,0.5062,0.5455,0.6115,0.6737,0.7236,0.8084,0.864,0.8715,0.9299,0.9323,0.8673,1.0222,1.1172,1.1358,1.2615,1.3621,1.4386,1.5008,1.5254,1.5189,1.6128,1.6955,1.7615,1.6938,1.7601,1.9107,1.8593,1.7875,1.7008,1.6347,1.5929,1.5627,1.5011,1.4735,1.454,1.3959,1.2989,1.1875,1.1251,1.0989,1.0677,0.9466,0.8119,0.6943,0.6658,0.5342,0.4438,0.6575,0.7269,0.7754,0.8829,0.9169,0.9107,0.8593,0.9542,1.0446,1.0199,1.1442,1.2532,1.2486,1.3564,1.4595,1.5144,1.598,1.6533,1.6446,1.6785,1.7195,1.7615,1.8321,1.9267,2.0476,2.1327,2.2154,2.2976,2.3734,2.4099,2.3983,2.4968,2.5018,2.3999,2.4927,2.3996,2.1108,1.9598,1.2964,0.1597,-0.1517,-0.8844,-1.1877,-0.8844,-0.6947,-0.6908,-0.6976,-0.6655,0.0,-0.4918,-0.4627,-0.2886,-0.092,0.065,0.1249,0.3711,0.5947,0.7013,0.7003,0.6929,0.722,0.6662,0.5955,0.527,0.5887,0.6396,0.6547,0.6784,0.7068,0.7429,0.8192,0.8969,0.9844,1.0253,1.0835,1.1603,1.2185,1.2888,1.3695,1.4228,1.5125,1.6386,1.6169,1.6475,1.7205,1.8091,1.8524,1.8651,1.8861,1.8402,1.757,1.761,1.7129,1.6301,1.6151,1.6338,1.6683,1.6118,1.5537,1.5034,1.508,1.3876,1.2236,1.1782,1.1485,1.1135,1.0118,1.0472,1.1142,1.0668,1.0551,1.0498,1.0387,1.0266,0.993,0.8977,0.9442,0.9823,0.9028,0.9888,1.0943,1.1308,1.2095,1.3017,1.4029,1.4748,1.5208,1.5296,1.633,1.7149,1.7239,1.7019,1.7193,1.8124,1.803,1.8902,2.1333,2.1708,2.2171,2.3022,2.3188,2.3249,2.3222,2.3295,2.3415,2.3553,2.3874,2.3555,2.2553,2.0049,1.4626,0.6474,0.1249,-0.7914,-1.0504,-0.8604,-0.7591,-0.7513,-0.7216,-0.6709,-0.5621,-0.4801,-0.3712,-0.1666,0.034,0.196,0.2798,0.4273,0.5783,0.6961,0.7067,0.7318,0.8425,0.7891,0.7517,0.7768,0.7183,0.6444,0.5809,0.6818,0.7356,0.7025,0.8137,0.9101,0.9681,1.0802,1.1832,1.2785,1.3454,1.4104,1.4727,1.4738,1.5226,1.6117,1.5966,1.6658,1.8029,1.8596,1.889,1.9015,1.9998,1.9425,1.7868,1.8339,1.8332,1.7855,1.6968,1.7015,1.744,1.6326,1.5586,1.5065,1.4653,1.3471,1.2101,1.1965,1.175,1.1426,1.0976,1.1187,1.1412,1.0783,1.1037,1.1338,1.0764,1.1141,1.1431,1.0297,1.0425,1.053,0.9722,1.0471,1.1384,1.1723,1.2843,1.398,1.4769,1.5196,1.5687,1.6475,1.6764,1.6825,1.6623,1.6885,1.7334,1.7937,1.8299,1.8969,2.0141,2.0747,2.1191,2.1552,2.2051,2.2333,2.2338,2.2777,2.3054,2.3149,2.3649,2.3575,2.2862,2.1917,1.6516,0.706,0.5121,-0.23,-0.8821,-0.7499,-0.6858,-0.7444,-0.6857,-0.6109,-0.5817,-0.4561,-0.2969,-0.1128,0.0508,0.2045,0.3326,0.4086,0.5089,0.6845,0.7194,0.7751,0.9291,0.8925,0.8555,0.8775,0.7967,0.6729,0.5081,0.6504,0.7536,0.7445,0.8749,0.97,1.0134,1.1619,1.2795,1.3579,1.4359,1.4918,1.5301,1.5345,1.5608,1.6034,1.633,1.7082,1.8219,1.8581,1.8855,1.9076,2.0032,1.9357,1.7602,1.8281,1.8401,1.8039,1.722,1.7168,1.7366,1.6089,1.5338,1.486,1.4178,1.3022,1.196,1.2116,1.2047,1.1928,1.1966,1.1998,1.1895,1.1473,1.1548,1.1656,1.1064,1.1616,1.2058,1.1009,1.1035,1.1083,1.0293,1.1116,1.2027,1.2164,1.3527,1.4768,1.5131,1.5433,1.6059,1.7342,1.719,1.6838,1.6536,1.6927,1.7283,1.7452,1.8405,1.9076,1.9161,1.999,2.05,2.0494,2.1096,2.1457,2.1477,2.2012,2.2298,2.2236,2.2768,2.2882,2.2571,2.2275,1.7756,0.9432,0.8745,0.3472,-0.7516,-0.515,-0.3222,-0.5688,-0.5202,-0.4335,-0.4914,-0.4195,-0.3086,-0.1808,-0.1095,-0.0084,0.2087,0.2811,0.4087,0.6924,0.7506,0.7984,0.9046,0.8945,0.8294,0.6958,0.8043,0.7764,0.4714,0.5802,0.7519,0.9442,1.0365,1.1217,1.2073,1.3018,1.3801,1.4359,1.4827,1.5258,1.5579,1.6427,1.6834,1.6876,1.792,1.8153,1.7737,1.8211,1.8555,1.8815,1.8654,1.7559,1.5933,1.6477,1.6184,1.5485,1.6302,1.6386,1.5994,1.5344,1.4923,1.4537,1.3905,1.296,1.2016,1.223,1.2502,1.2805,1.3065,1.34,1.3801,1.4093,1.3537,1.2728,1.228,1.1962,1.1537,1.042,1.0812,1.1303,1.0562,1.1724,1.2939,1.2862,1.4016,1.5025,1.5192,1.558,1.6282,1.7405,1.7569,1.7614,1.7733,1.7321,1.6903,1.6665,1.8103,1.9096,1.9098,1.9959,2.0503,2.0494,2.0527,2.0562,2.0623,2.0604,2.0565,2.0562,2.0589,2.0987,2.1724,1.9851,1.7858,1.5716,1.1639,0.8154,-0.4804,-0.4128,-0.3843,-0.4757,-0.4274,-0.363,-0.4043,-0.3441,-0.2461,-0.1442,-0.0728,0.0153,0.1901,0.2938,0.4138,0.615,0.5994,0.6524,0.9086,0.8108,0.8052,1.0749,1.0298,1.0024,1.0617,0.9519,0.8571,0.8136,0.983,1.1276,1.2101,1.3007,1.4065,1.5242,1.5634,1.6155,1.6853,1.6809,1.6876,1.7101,1.7494,1.7774,1.7904,1.772,1.7318,1.6655,1.6375,1.5478,1.423,1.4577,1.5018,1.5438,1.536,1.5553,1.5683,1.4048,1.3351,1.3189,1.3233,1.2971,1.2656,1.3153,1.3096,1.2926,1.329,1.3323,1.3087,1.252,1.254,1.2393,1.0985,1.1373,1.1844,1.0605,1.0687,1.1061,1.1137,1.1871,1.2698,1.3204,1.4256,1.5206,1.561,1.5799,1.6126,1.6775,1.7402,1.7841,1.799,1.7491,1.6933,1.6449,1.7491,1.8271,1.8299,1.8586,1.8988,1.9464,1.8507,1.8124,1.8586,1.8038,1.8038,1.8699,1.8667,1.9088,1.9979,1.8682,1.7317,1.583,1.3071,1.0399,-0.3542,-0.3448,-0.3517,-0.3268,-0.2837,-0.2518,-0.2699,-0.2323,-0.1769,-0.1196,-0.0733,0.0077,0.1409,0.2403,0.3544,0.5275,0.5693,0.6818,0.9823,0.9382,0.9939,1.3021,1.2148,1.183,1.3059,1.1947,1.0419,0.8622,0.9887,1.1163,1.2097,1.2873,1.4069,1.5869,1.6316,1.6757,1.7296,1.7134,1.7215,1.7526,1.7175,1.7128,1.7298,1.6449,1.5277,1.3922,1.3715,1.2929,1.1829,1.2671,1.3597,1.4446,1.4324,1.4456,1.4533,1.269,1.1977,1.2013,1.2397,1.2511,1.2637,1.3336,1.3335,1.3096,1.3332,1.3096,1.2563,1.192,1.1806,1.1643,1.0489,1.1023,1.1638,1.0795,1.0992,1.1402,1.1394,1.213,1.2985,1.3542,1.4358,1.5161,1.5843,1.6148,1.636,1.6703,1.7361,1.7791,1.7715,1.7403,1.7047,1.6753,1.7634,1.8255,1.8327,1.8613,1.871,1.8548,1.7515,1.7001,1.7157,1.6258,1.6412,1.7771,1.7166,1.7459,1.8671,1.7339,1.6574,1.6286,1.4325,1.2553,-0.364,-0.3097,-0.2301,-0.1522,-0.1055,-0.0889,-0.0866,-0.0895,-0.0926,-0.1173,-0.102,-0.0419,0.0688,0.1274,0.2319,0.4514,0.651,0.8689,1.1032,1.2476,1.3372,1.3477,1.3514,1.3177,1.2243,1.3141,1.2966,1.1005,1.069,1.1184,1.248,1.282,1.3991,1.6234,1.6805,1.7034,1.6926,1.7415,1.7738,1.7886,1.6822,1.6193,1.5813,1.4325,1.2658,1.0909,1.0879,1.0062,0.8939,1.0766,1.1885,1.2542,1.3149,1.3128,1.2661,1.1382,1.0931,1.1035,1.1538,1.175,1.1971,1.2861,1.3216,1.3237,1.3238,1.2815,1.2374,1.2274,1.1531,1.0784,1.084,1.0964,1.1061,1.0918,1.169,1.2241,1.1443,1.2542,1.3714,1.3907,1.4371,1.5046,1.597,1.6589,1.7011,1.7205,1.7487,1.753,1.7095,1.7074,1.7213,1.7475,1.8316,1.8918,1.9026,1.9715,1.9418,1.7672,1.7373,1.6925,1.6212,1.5176,1.5532,1.7493,1.5924,1.5952,1.7696,1.5724,1.5613,1.7193,1.5379,1.459,-0.3401,-0.2523,-0.2085,-0.2477,-0.0997,0.0413,-0.0403,0.0,0.0346,-0.0566,-0.0546,-0.0149,0.041,0.1452,0.3216,0.6081,0.7047,0.8185,1.0467,1.1745,1.2767,1.359,1.4808,1.5501,1.544,1.6009,1.5371,1.3057,1.3246,1.4233,1.5948,1.5364,1.5482,1.6562,1.6737,1.6956,1.7264,1.7052,1.6257,1.4898,1.4482,1.3826,1.2938,1.193,1.0947,0.9925,0.9334,0.884,0.852,0.8915,0.9787,1.094,1.1267,1.1519,1.1636,1.0998,1.1158,1.1711,1.1634,1.1835,1.2149,1.2477,1.2574,1.246,1.2068,1.2103,1.2123,1.1484,1.1344,1.1242,1.0661,1.0697,1.0811,1.0578,1.1257,1.2074,1.2392,1.2927,1.3518,1.4066,1.4917,1.575,1.6419,1.7073,1.7497,1.7562,1.752,1.7503,1.7594,1.7386,1.73,1.7416,1.7248,1.7414,1.8074,1.7243,1.6408,1.5801,1.4562,1.3725,1.3422,1.253,1.2589,1.3742,1.2819,1.3198,1.4993,1.367,1.4168,1.6313,1.5321,1.4889,-0.4094,-0.2665,-0.1502,-0.0502,0.0928,0.2013,0.1192,0.1631,0.174,0.0308,0.0371,0.0715,0.081,0.2063,0.3902,0.6375,0.7771,0.9162,1.1052,1.215,1.3203,1.4374,1.4934,1.5579,1.6636,1.6748,1.6387,1.5449,1.4513,1.4513,1.5704,1.5054,1.5194,1.6405,1.6526,1.6675,1.6919,1.6483,1.5329,1.3544,1.2854,1.1964,1.0872,0.9744,0.8813,0.8015,0.7709,0.7412,0.7146,0.8034,0.9175,1.0273,1.0111,1.0327,1.0652,0.9857,0.9873,1.0206,0.9657,1.0261,1.1384,1.2562,1.2863,1.2779,1.252,1.2546,1.2531,1.2048,1.1967,1.1932,1.1509,1.1606,1.1758,1.1784,1.2235,1.2773,1.3081,1.3312,1.3647,1.4226,1.5219,1.6089,1.6448,1.7256,1.7856,1.7905,1.7813,1.7574,1.7146,1.7141,1.7074,1.6799,1.6586,1.6522,1.6687,1.5887,1.4952,1.4024,1.2963,1.2209,1.1843,1.0919,1.1037,1.2427,1.1335,1.1453,1.2861,1.2199,1.3047,1.529,1.5106,1.5551,-0.5103,-0.3079,-0.0773,0.2444,0.3581,0.3733,0.3203,0.3344,0.3105,0.1247,0.1376,0.1793,0.1602,0.2704,0.4292,0.5978,0.8409,1.0478,1.1509,1.31,1.4313,1.5012,1.4556,1.4899,1.676,1.6244,1.6177,1.7399,1.4964,1.3599,1.4104,1.3838,1.4388,1.6014,1.6239,1.6219,1.5929,1.5669,1.4607,1.2792,1.1665,1.0483,0.9266,0.7854,0.6811,0.6093,0.6394,0.6188,0.5844,0.7745,0.9169,1.0026,0.9386,0.953,0.9891,0.8706,0.8285,0.8142,0.7382,0.8311,1.0097,1.2128,1.2945,1.3125,1.3248,1.3193,1.3054,1.3023,1.2858,1.268,1.2637,1.2771,1.3003,1.3276,1.3561,1.3753,1.3629,1.38,1.4076,1.4477,1.5501,1.634,1.6582,1.7496,1.8205,1.8205,1.8131,1.7651,1.6483,1.6638,1.6585,1.5911,1.5983,1.5801,1.518,1.5018,1.4218,1.2439,1.2117,1.1675,1.0973,1.0053,1.0334,1.1976,1.0524,1.0188,1.1042,1.1054,1.2116,1.4136,1.4945,1.6253,-0.5544,-0.2938,-0.068,0.2012,0.4335,0.5491,0.3824,0.3718,0.3698,0.2308,0.1692,0.1736,0.2766,0.3053,0.3903,0.6335,0.8232,0.9236,0.8582,1.3536,1.6183,1.3308,1.507,1.6715,1.7189,1.5126,1.4461,1.6065,1.4866,1.4601,1.5908,1.5631,1.5572,1.5755,1.5952,1.5391,1.3998,1.4473,1.3376,1.0807,1.0286,0.9292,0.7842,0.6726,0.6315,0.6398,0.6121,0.0,0.7247,0.755,0.8176,0.8889,0.8881,0.9196,0.9649,0.9431,0.9294,0.9146,0.8875,0.8929,0.9099,0.8752,0.9726,1.1018,1.1037,1.1649,1.2415,1.2489,1.285,1.3052,1.2488,1.2494,1.2551,1.246,1.3032,1.3747,1.4089,1.4474,1.4946,1.5382,1.6163,1.7112,1.811,1.8833,1.9011,1.8365,1.804,1.7689,1.7185,1.645,1.5759,1.5076,1.459,1.4295,1.4231,1.3574,1.2682,1.1576,1.1455,1.1062,1.0238,1.002,0.9757,0.9452,0.846,0.8385,0.9257,0.995,1.1087,1.2647,1.5221,1.6237,-0.2261,0.1065,0.3695,0.7341,0.8712,0.8552,0.6328,0.5714,0.5004,0.2652,0.2221,0.248,0.296,0.3647,0.4602,0.6302,0.8063,0.955,1.0366,1.3512,1.566,1.5569,1.5984,1.6354,1.6587,1.4599,1.3375,1.3677,1.2677,1.2937,1.4981,1.4892,1.4852,1.5119,1.5479,1.4897,1.3248,1.3259,1.189,0.9262,0.8725,0.7823,0.6706,0.6211,0.6186,0.6507,0.6679,0.6862,0.7182,0.8055,0.8489,0.8622,0.8764,0.9055,0.9375,0.8667,0.8268,0.791,0.6811,0.6868,0.7161,0.5799,0.7829,1.0798,1.0656,1.1455,1.248,1.2598,1.283,1.3037,1.2752,1.2745,1.2812,1.2644,1.2809,1.3006,1.3028,1.3746,1.4377,1.4387,1.5472,1.6739,1.7899,1.8537,1.9027,1.9297,1.8946,1.8394,1.7812,1.7144,1.6072,1.4305,1.3549,1.2685,1.1452,1.1377,1.0984,1.0017,1.0374,1.0412,0.9971,1.0314,1.0147,0.9332,0.8847,0.8807,0.922,0.9704,1.081,1.2508,1.4477,1.5454,0.2231,0.5905,0.8927,1.3376,1.3209,1.1276,0.8644,0.7359,0.5881,0.2781,0.2653,0.3094,0.3252,0.4005,0.4977,0.5779,0.7385,0.914,1.1006,1.2914,1.4959,1.7383,1.6775,1.6241,1.6436,1.4323,1.262,1.1809,1.0459,1.0715,1.3069,1.3008,1.3233,1.4002,1.4112,1.3544,1.2273,1.1759,1.0419,0.8291,0.7996,0.7372,0.6499,0.6355,0.6506,0.682,0.7139,0.7127,0.7012,0.8351,0.8683,0.8335,0.8545,0.8757,0.8792,0.7531,0.671,0.6018,0.4353,0.4349,0.4857,0.3658,0.6494,1.0319,1.0127,1.1016,1.2143,1.2198,1.2309,1.2386,1.2377,1.2472,1.2529,1.2474,1.2414,1.2194,1.188,1.2701,1.3449,1.3291,1.4525,1.5964,1.7185,1.7861,1.8597,1.9703,1.9511,1.8968,1.82,1.7807,1.6723,1.4428,1.3475,1.2177,1.0123,1.0389,1.0321,0.9549,0.998,1.031,1.0447,1.0835,1.0756,1.0136,0.9809,0.9714,0.9872,0.9763,1.0656,1.2507,1.3367,1.4267,0.6378,0.9745,1.2786,1.6567,1.5388,1.2494,0.9276,0.7199,0.5398,0.319,0.2456,0.2748,0.4423,0.3936,0.3592,0.4501,0.5589,0.6123,0.5622,1.1384,1.5526,1.5025,1.6928,1.8213,1.7935,1.453,1.2169,1.1881,0.9869,0.9288,1.083,1.0474,1.0813,1.2117,1.0833,1.0046,0.9833,0.9717,0.9177,0.8218,0.9376,0.9301,0.808,0.752,0.7471,0.7803,0.6969,0.696,0.0,0.7865,0.7785,0.7467,0.784,0.7919,0.7753,0.6739,0.5572,0.4336,0.3604,0.292,0.2448,0.3031,0.538,0.8018,0.8048,0.9048,1.0202,1.0391,1.0588,1.066,1.0362,1.0325,1.0466,1.0768,1.1429,1.1948,1.1551,1.2069,1.2773,1.3297,1.3998,1.5082,1.6773,1.7379,1.7856,1.8322,1.859,1.861,1.817,1.7809,1.7301,1.6481,1.5309,1.4242,1.3419,1.2649,1.2163,1.2061,1.1445,1.1445,1.2225,1.1562,1.1183,1.1155,1.0248,1.0106,1.0772,0.9821,1.0201,1.18,1.2126,1.2732,1.3173,1.6298,1.8416,2.1614,1.8986,1.4739,1.1467,0.8398,0.5515,0.3025,0.2709,0.3061,0.3593,0.3666,0.3754,0.42,0.5304,0.6832,0.9129,1.2785,1.5986,1.8049,1.8778,1.837,1.6342,1.3697,1.0942,0.8043,0.6985,0.6838,0.7659,0.7747,0.8245,0.94,0.8564,0.7993,0.7795,0.8243,0.8253,0.7919,0.8708,0.883,0.8238,0.8399,0.8245,0.7817,0.775,0.7254,0.0,0.6937,0.6778,0.6258,0.6533,0.6713,0.6719,0.5967,0.5102,0.4202,0.3661,0.3108,0.268,0.2841,0.4374,0.6365,0.7252,0.8192,0.9121,0.9787,0.9826,0.967,0.9412,0.919,0.9128,0.9361,0.9626,0.9918,1.0153,1.0832,1.1466,1.1632,1.2438,1.3433,1.4587,1.4933,1.5488,1.667,1.7277,1.752,1.7464,1.7526,1.7309,1.6535,1.5895,1.4844,1.3161,1.3161,1.2777,1.1691,1.181,1.2099,1.2474,1.252,1.2305,1.1844,1.1767,1.1857,1.209,1.1757,1.1725,1.2019,1.2278,1.2331,1.834,2.1575,2.3567,2.5495,2.1562,1.6326,1.3021,0.9248,0.5759,0.3009,0.3156,0.373,0.3486,0.3797,0.4161,0.0,0.5093,0.6798,1.0025,1.2218,1.4521,1.7468,1.7794,1.6771,1.4312,1.202,0.9287,0.601,0.556,0.5656,0.6274,0.6258,0.66,0.7336,0.6539,0.6092,0.6112,0.6626,0.7071,0.7474,0.8212,0.8389,0.8169,0.8746,0.8475,0.7563,0.7934,0.7264,0.0,0.6349,0.6055,0.5363,0.548,0.5642,0.5685,0.4966,0.4345,0.3857,0.3405,0.3281,0.326,0.3295,0.4192,0.5584,0.7117,0.7788,0.8151,0.8783,0.8578,0.8139,0.7926,0.7811,0.7802,0.8034,0.8134,0.8386,0.9201,0.9776,1.0164,1.0302,1.0907,1.1679,1.2469,1.2756,1.3431,1.4954,1.5631,1.5929,1.5926,1.6563,1.6725,1.5896,1.6096,1.5469,1.3414,1.3726,1.3506,1.2276,1.256,1.2892,1.3173,1.3328,1.324,1.2918,1.2986,1.3124,1.3313,1.2789,1.2484,1.2353,1.1823,1.1241,2.0821,2.455,2.7807,2.7381,2.2442,1.679,1.3377,0.943,0.5776,0.3302,0.3805,0.4661,0.4682,0.4522,0.4534,0.5034,0.4811,0.4845,0.5575,0.8488,1.0638,1.0967,1.2516,1.3164,1.2221,0.9174,0.7307,0.7367,0.66,0.6484,0.7421,0.6594,0.6186,0.631,0.4649,0.4063,0.4716,0.4718,0.5453,0.693,0.826,0.8569,0.8016,0.8364,0.8039,0.7224,0.7132,0.6755,0.0,0.6289,0.5806,0.5004,0.4947,0.4856,0.4665,0.3621,0.3112,0.2973,0.2609,0.2981,0.3733,0.446,0.5103,0.5937,0.7645,0.7692,0.7097,0.7042,0.6467,0.5786,0.5506,0.5793,0.6231,0.669,0.722,0.7896,0.906,0.9031,0.9037,0.9753,0.9707,0.9827,1.0864,1.1398,1.2075,1.3162,1.3683,1.383,1.349,1.4784,1.5441,1.4696,1.6041,1.6429,1.5098,1.4744,1.4639,1.4747,1.4095,1.4003,1.4747,1.3898,1.3769,1.4558,1.3604,1.3497,1.4273,1.2217,1.1763,1.2723,1.0283,0.9019,1.995,2.2174,2.3802,2.2494,1.861,1.4217,1.0842,0.7588,0.4831,0.2913,0.3205,0.3832,0.3915,0.3915,0.4264,0.5346,0.5445,0.6128,0.8153,0.9262,1.0587,1.2572,1.2949,1.284,1.2163,0.9574,0.7707,0.7172,0.651,0.6415,0.7012,0.6812,0.6532,0.6102,0.5325,0.5187,0.5711,0.6464,0.7562,0.9014,0.9624,0.951,0.8707,0.8969,0.822,0.6725,0.7042,0.6643,0.5743,0.5316,0.5135,0.504,0.4011,0.4252,0.5034,0.4058,0.3851,0.4117,0.417,0.4108,0.4068,0.4845,0.5477,0.6095,0.6912,0.7252,0.7298,0.6833,0.6333,0.5737,0.4855,0.5055,0.5566,0.5781,0.6504,0.7328,0.8159,0.8278,0.8151,0.8146,0.7855,0.7716,0.7942,0.8191,0.8577,0.9299,0.9816,1.0118,0.9999,1.1467,1.2142,1.1212,1.2962,1.4443,1.508,1.5144,1.4865,1.4235,1.392,1.3959,1.4365,1.3977,1.3984,1.4513,1.4137,1.399,1.4168,1.3556,1.2912,1.2233,1.1486,1.0271,1.7753,1.9691,2.0872,1.9328,1.6027,1.2402,0.9205,0.6591,0.4337,0.2729,0.3493,0.4355,0.4147,0.4451,0.5056,0.588,0.5914,0.6601,0.8706,0.881,0.9365,1.1114,1.1115,1.0863,1.0573,0.8869,0.7713,0.745,0.7166,0.7349,0.8169,0.8859,0.9111,0.8929,0.7448,0.6959,0.7695,0.8359,0.9287,1.0529,1.0169,0.947,0.8524,0.8747,0.7907,0.6319,0.6842,0.6594,0.0,0.5111,0.4893,0.4843,0.35,0.369,0.46,0.3878,0.3979,0.4456,0.4762,0.4669,0.4549,0.5043,0.5557,0.6175,0.6966,0.7165,0.7016,0.6401,0.5724,0.499,0.4141,0.4154,0.4452,0.4774,0.5431,0.6188,0.7071,0.7219,0.7135,0.7051,0.6767,0.6495,0.6331,0.6496,0.6705,0.6755,0.717,0.7432,0.7354,0.9139,1.0232,0.9732,1.1623,1.3362,1.4363,1.4344,1.4119,1.3771,1.3532,1.357,1.3885,1.3786,1.3977,1.457,1.4494,1.4478,1.456,1.4334,1.3561,1.2275,1.2569,1.169,0.0,1.6892,1.8556,1.7219,1.427,1.0965,0.8242,0.6069,0.0,0.2826,0.4337,0.5724,0.5136,0.5891,0.6589,0.6649,0.627,0.645,0.7582,0.7499,0.7393,0.7456,0.7666,0.7835,0.8014,0.7474,0.7384,0.8012,0.8245,0.9009,1.0507,1.1997,1.3139,1.3953,1.0834,0.9573,1.0518,1.0464,1.0742,1.1356,1.0144,0.8855,0.7575,0.7795,0.7181,0.0,0.6556,0.6529,0.6064,0.5479,0.4978,0.4541,0.3436,0.3344,0.3767,0.3398,0.3671,0.4261,0.4558,0.4866,0.508,0.5139,0.5518,0.6219,0.7617,0.7375,0.647,0.5802,0.4791,0.3796,0.3389,0.3143,0.318,0.3766,0.4152,0.4696,0.577,0.5887,0.5907,0.6216,0.6155,0.5897,0.5524,0.5825,0.5948,0.5254,0.5404,0.5566,0.5493,0.767,0.939,0.9865,1.1641,1.2888,1.3039,1.2609,1.2634,1.3337,1.2956,1.2873,1.3271,1.3304,1.3731,1.4641,1.4761,1.4978,1.5303,1.4693,1.3874,1.2895,1.3517,1.3146,1.0532,0.0,1.236,1.1318,0.9226,0.7104,0.0,0.424,0.3121,0.3616,0.4017,0.4629,0.5751,0.6283,0.6698,0.7124,0.7154,0.7404,0.827,0.8612,0.8641,0.8069,0.8512,0.8624,0.8039,0.8146,0.7757,0.6656,0.7912,0.9279,1.0685,1.1888,1.3545,1.5737,1.5374,1.4725,1.3886,1.359,1.2669,1.1089,1.1129,0.9385,0.6155,0.7622,0.7503,0.6147,0.6564,0.6594,0.6355,0.5683,0.5218,0.4812,0.384,0.4132,0.4961,0.3948,0.4316,0.5338,0.5289,0.5154,0.5139,0.6193,0.6601,0.6902,0.8166,0.7744,0.6665,0.5883,0.5208,0.4455,0.3298,0.3154,0.328,0.3243,0.375,0.4233,0.4169,0.4545,0.4545,0.3389,0.372,0.3753,0.2307,0.2485,0.2854,0.2879,0.2587,0.2876,0.4351,0.5698,0.7103,0.8667,1.0113,1.1136,1.1626,1.1702,1.1877,1.225,1.1851,1.1764,1.2156,1.2175,1.2835,1.4205,1.54,1.5773,1.5293,1.5296,1.5026,1.4548,1.4795,1.4099,0.923,0.9258,0.9498,0.9601,0.734,0.5214,0.5782,0.3934,0.269,0.4682,0.4484,0.4671,0.6757,0.6807,0.6679,0.7206,0.7323,0.7625,0.8459,0.8633,0.8609,0.855,0.833,0.8022,0.7664,0.7406,0.6847,0.5982,0.6909,0.8771,1.16,1.2592,1.4673,1.8085,1.8493,1.8043,1.6821,1.5958,1.433,1.1864,1.2001,1.0141,0.6619,0.842,0.8503,0.7273,0.7588,0.7375,0.6756,0.6085,0.5565,0.5112,0.4688,0.4911,0.5375,0.4777,0.5276,0.6241,0.6032,0.6046,0.6343,0.7257,0.7541,0.7777,0.9124,0.9019,0.8115,0.6504,0.5432,0.4469,0.3379,0.2815,0.248,0.2127,0.1918,0.1756,0.1447,0.1413,0.1295,0.0909,0.1363,0.1623,0.0803,0.1137,0.1532,0.1505,0.1776,0.2493,0.4031,0.5566,0.7197,0.8925,1.0103,1.0939,1.145,1.1333,1.1307,1.152,1.1283,1.1328,1.1685,1.2143,1.3252,1.5067,1.629,1.6731,1.637,1.6345,1.6061,1.5521,1.6088,1.5666,0.8737,0.8078,0.8001,0.9576,0.68,0.4269,0.639,0.4146,0.2456,0.5485,0.527,0.5294,0.7762,0.7623,0.7176,0.7242,0.7494,0.7938,0.8491,0.8418,0.8414,0.8807,0.7866,0.7089,0.7014,0.613,0.5585,0.5569,0.5982,0.8155,1.2522,1.3673,1.6107,2.0226,2.0395,1.9947,1.8957,1.7597,1.5605,1.2974,1.2615,1.0828,0.7932,0.9385,0.9538,0.8585,0.0,0.0,0.6919,0.6372,0.5737,0.5193,0.5346,0.5508,0.5666,0.5661,0.6287,0.7101,0.68,0.7121,0.7786,0.8119,0.821,0.8505,1.0048,1.0335,0.9668,0.7372,0.5804,0.4602,0.3561,0.2493,0.1523,0.1004,-0.0079,-0.1121,-0.1394,-0.2065,-0.234,-0.1436,-0.097,-0.0598,-0.0048,0.0461,0.0796,0.0821,0.1825,0.3052,0.4293,0.6336,0.8289,0.9834,1.0712,1.1384,1.1858,1.1333,1.1041,1.1252,1.1118,1.1224,1.1599,1.2712,1.4228,1.6204,1.7217,1.7728,1.7715,1.7529,1.702,1.6243,1.722,1.7131,0.6557,0.5354,0.5197,0.8131,0.5538,0.2958,0.5428,0.325,0.1636,0.5005,0.5434,0.584,0.7739,0.899,0.9291,0.8085,0.9192,0.9821,0.8729,0.9601,0.9952,0.8916,0.8138,0.7274,0.6305,0.5764,0.5358,0.4952,0.6424,0.8744,1.1973,1.4663,1.7468,2.055,2.0431,1.9955,1.9235,1.8004,1.6059,1.3396,1.2513,1.0873,0.8645,0.9199,0.9286,0.8968,0.0,0.7121,0.5904,0.5821,0.5283,0.4536,0.4587,0.5587,0.6907,0.619,0.6943,0.8242,0.7646,0.7656,0.7986,0.821,0.8089,0.8237,1.0037,1.0048,0.921,0.8082,0.7299,0.622,0.3919,0.2609,0.1737,0.0988,-0.0138,-0.1468,-0.2902,-0.3557,-0.3819,-0.3884,-0.3533,-0.2925,-0.1896,-0.1657,-0.1027,0.0663,0.1703,0.3078,0.5249,0.6854,0.8604,1.0673,1.0736,1.1143,1.2371,1.1723,1.1442,1.192,1.1207,1.1073,1.1738,1.3404,1.4799,1.5866,1.7773,1.8582,1.8185,1.844,1.8075,1.7195,1.7751,1.7329,0.5628,0.4144,0.3714,0.6873,0.4044,0.1865,0.7289,0.3888,0.1399,0.7744,0.6186,0.502,0.9212,0.8927,0.8311,0.9142,1.0309,1.1108,1.1361,1.1952,1.1534,0.9341,0.8452,0.74,0.5693,0.5666,0.6369,0.7864,0.9308,1.1445,1.4588,1.6299,1.816,2.0252,2.0192,1.957,1.8404,1.6693,1.4696,1.2484,1.2243,1.0883,0.8558,0.9668,0.9699,0.8931,0.0,0.7335,0.5689,0.5476,0.5223,0.5083,0.5481,0.6493,0.776,0.7887,0.8229,0.858,0.8595,0.8989,0.9518,0.9619,0.9932,1.0426,1.1088,1.1109,1.0563,0.8774,0.7586,0.6246,0.3554,0.2131,0.1089,-0.0094,-0.1405,-0.257,-0.3388,-0.4257,-0.4589,-0.3746,-0.314,-0.2512,-0.1759,-0.067,0.0565,0.1998,0.3522,0.5238,0.7154,0.8573,0.9874,1.1301,1.1457,1.1729,1.2389,1.2364,1.2165,1.1804,1.2046,1.2491,1.3134,1.4676,1.6247,1.7721,1.8703,1.9376,1.9713,1.9638,1.9134,1.821,1.8653,1.8037,0.4126,0.2729,0.226,0.4926,0.2276,0.1052,0.8853,0.449,0.1259,0.9879,0.7204,0.5085,1.0726,0.9389,0.818,1.0509,1.1708,1.283,1.4435,1.4573,1.3654,1.1128,0.9696,0.8195,0.6525,0.6448,0.7582,1.0068,1.1233,1.3298,1.6556,1.7346,1.8485,2.023,1.9814,1.8935,1.7545,1.5262,1.3579,1.2459,1.2086,1.1035,0.9515,1.0414,1.0021,0.8715,0.861,0.7406,0.5444,0.5294,0.5434,0.5864,0.659,0.7437,0.8349,0.9375,0.9236,0.8658,0.9099,0.9857,1.0603,1.0704,1.1361,1.2091,1.2048,1.1979,1.1481,0.9229,0.7745,0.6253,0.3626,0.2059,0.0798,-0.051,-0.1837,-0.2811,-0.2887,-0.3849,-0.4133,-0.219,-0.1594,-0.1022,0.0275,0.1775,0.3188,0.4515,0.6248,0.7897,0.9268,1.0651,1.164,1.2054,1.2608,1.2889,1.2716,1.3269,1.3226,1.2261,1.3316,1.4162,1.4617,1.5868,1.7371,1.918,1.9611,2.0218,2.1041,2.0756,2.0158,1.9283,1.9556,1.8745,0.0737,0.0044,0.0229,0.1413,0.0239,0.0726,0.8021,0.4139,0.1173,0.897,0.839,0.7567,1.1636,1.1588,1.1347,1.2412,1.4051,1.5712,1.7014,1.726,1.6868,1.5595,1.2612,1.0489,1.0025,0.8871,0.8379,0.8875,1.0089,1.2214,1.5442,1.6771,1.8554,2.1031,1.9308,1.8,1.7344,1.4631,1.3905,1.5094,1.2089,1.1428,1.2899,1.1266,0.9744,0.8417,0.7828,0.6503,0.483,0.5266,0.5844,0.6481,0.7132,0.7878,0.8767,0.979,0.9493,0.8639,0.8769,0.935,1.0031,1.0487,1.0891,1.133,1.2116,1.167,1.0605,0.9245,0.8222,0.7019,0.4934,0.306,0.1605,0.1108,-0.0058,-0.1088,-0.1074,-0.1795,-0.1728,0.0692,0.0486,0.1087,0.492,0.5273,0.5949,0.8477,0.9599,1.0397,1.1179,1.2816,1.3693,1.3317,1.4183,1.4588,1.4025,1.451,1.4699,1.431,1.4971,1.5429,1.5583,1.6475,1.7488,1.8644,2.0238,2.1202,2.1465,2.1551,2.1172,2.0371,2.0297,1.9136,-0.0169,-0.0129,0.0641,0.1688,0.2315,0.3858,0.8189,0.6442,0.5636,1.1774,1.0121,0.8115,1.0018,1.2956,1.5188,1.5667,1.7211,1.8753,2.0098,1.9544,1.7953,1.532,1.351,1.2067,1.127,1.1977,1.356,1.596,1.6803,1.7722,1.8865,1.7879,1.7163,1.6925,1.5894,1.4526,1.2794,1.1664,1.1566,1.2468,1.1544,1.0997,1.0751,0.9584,0.8636,0.7811,0.702,0.6125,0.5181,0.5453,0.6287,0.7463,0.8623,0.8834,0.8567,0.9061,0.8644,0.7893,0.8463,0.9147,0.9902,1.0526,1.1061,1.1552,1.2244,1.1486,1.0274,0.9868,0.8679,0.6875,0.4388,0.3249,0.2573,0.1824,0.1225,0.107,0.2034,0.1914,0.2249,0.4327,0.5042,0.5797,0.7495,0.8355,0.9396,1.1177,1.2057,1.2969,1.4279,1.4939,1.5351,1.5505,1.5693,1.5709,1.5491,1.5802,1.5945,1.5812,1.5638,1.5843,1.6479,1.7153,1.8276,1.995,2.0333,2.09,2.1685,2.1191,2.0757,2.037,2.0313,1.9523,0.0458,0.0755,0.1753,0.2972,0.5293,0.7773,0.9609,0.8864,0.9229,1.4728,1.3548,1.1587,1.181,1.523,1.8287,1.8724,1.961,2.0793,2.2273,2.092,1.8863,1.6364,1.4897,1.3743,1.2853,1.4214,1.6308,1.9201,2.0001,2.0734,2.1635,1.9638,1.7876,1.6574,1.5426,1.3951,1.2159,1.145,1.1531,1.2347,1.261,1.1843,1.0127,0.9236,0.8405,0.7578,0.7104,0.6534,0.6017,0.6401,0.7521,0.9036,1.0287,0.9871,0.8644,0.8731,0.7968,0.7092,0.7913,0.8651,0.9418,1.0545,1.1376,1.2036,1.2651,1.1871,1.074,1.0421,0.9305,0.7644,0.5397,0.4428,0.3776,0.2737,0.2872,0.3607,0.4974,0.5705,0.6613,0.8654,0.9791,1.0656,1.1243,1.236,1.3541,1.4456,1.5189,1.5936,1.6774,1.7139,1.7376,1.7593,1.6952,1.6553,1.6639,1.6687,1.6935,1.7485,1.6802,1.6706,1.7412,1.8254,1.9428,2.0934,2.0727,2.1255,2.2561,2.1707,2.1372,2.1552,2.1014,2.038,0.2529,0.2661,0.3357,0.4965,0.8723,1.2149,1.258,1.103,1.1233,1.7415,1.8832,1.8693,1.7829,1.8809,2.0189,2.1353,2.1198,2.1456,2.3033,2.146,1.9992,1.9565,1.7251,1.5618,1.5156,1.5242,1.5756,1.6865,1.7915,1.9872,2.3031,2.1903,2.1224,2.1341,1.8797,1.7236,1.6749,1.4901,1.4609,1.588,1.562,1.4277,1.2001,1.0864,0.9444,0.7937,0.8291,0.794,0.727,0.8332,0.9689,1.1197,1.1918,1.0901,0.9059,0.8874,0.7698,0.6379,0.7079,0.7698,0.8518,1.047,1.1797,1.273,1.3395,1.3007,1.205,1.0768,1.0199,0.9605,0.8351,0.689,0.5461,0.4163,0.5004,0.6461,0.7655,0.9234,1.1152,1.3615,1.446,1.5168,1.6562,1.761,1.8289,1.848,1.9119,1.9306,1.8436,1.9385,1.9923,1.9443,1.7993,1.7142,1.7401,1.7117,1.7664,1.9409,1.8665,1.8231,1.8427,1.9914,2.0906,2.1304,2.1582,2.2536,2.4196,2.3387,2.3426,2.4251,2.2574,2.1793,0.6852,0.7508,0.8318,0.8663,1.2113,1.5599,1.6192,1.6105,1.631,1.777,1.7624,1.7054,1.6546,1.8106,1.9851,2.1123,2.166,2.2199,2.3271,2.1509,2.003,1.9707,1.9021,1.8244,1.7708,1.904,2.0287,2.0994,2.0782,2.1226,2.2628,1.9447,1.7378,1.6832,1.4936,1.358,1.2939,1.2908,1.3047,1.3447,1.4388,1.4453,1.3863,1.2197,1.1041,1.0297,0.9174,0.862,0.8549,0.9826,1.0633,1.1052,1.1311,1.0184,0.8326,0.7724,0.6698,0.5703,0.6809,0.7796,0.8937,1.1138,1.232,1.3033,1.4162,1.3518,1.2411,1.2683,1.202,1.115,1.0516,1.0247,0.9629,0.7516,0.812,0.9361,1.0293,1.1612,1.3214,1.506,1.6154,1.7096,1.8222,1.8738,1.9174,1.9829,2.0057,2.0261,2.0528,2.09,2.1,2.0506,1.9836,1.9508,1.9847,1.9642,1.9797,2.0513,2.1129,2.138,2.1139,2.1079,2.1512,2.2475,2.2565,2.2862,2.3358,2.2508,2.2216,2.2452,2.1907,2.1193,1.0746,1.1056,1.168,1.3148,1.5072,1.6769,1.7266,1.8178,1.9044,1.9106,1.7965,1.6986,1.7044,1.8474,1.9885,2.0562,2.132,2.1778,2.1762,2.0354,1.9441,1.9713,1.9463,1.9193,1.9013,2.022,2.1317,2.2021,2.1859,2.1952,2.2407,1.932,1.7076,1.6159,1.4337,1.3332,1.3162,1.3626,1.4053,1.4512,1.5545,1.6097,1.606,1.3683,1.2042,1.0968,0.9182,0.8538,0.8821,0.995,1.0454,1.0498,1.0617,0.9736,0.8292,0.7708,0.6837,0.6183,0.7601,0.8788,1.0118,1.2429,1.3751,1.4613,1.538,1.4857,1.4063,1.4465,1.4004,1.3375,1.3324,1.3384,1.2769,0.9901,1.0386,1.1799,1.2715,1.3994,1.5438,1.6944,1.8011,1.8913,1.9595,2.0182,2.064,2.0955,2.0878,2.1097,2.1927,2.1644,2.1427,2.1526,2.1031,2.0807,2.1001,2.078,2.0952,2.1724,2.241,2.297,2.3393,2.2685,2.2639,2.347,2.3159,2.3357,2.406,2.3191,2.2938,2.3239,2.2832,2.2367,1.3959,1.3442,1.3605,1.7246,1.7231,1.6375,1.652,1.7993,1.9611,2.0602,1.903,1.7686,1.8555,1.9301,1.9788,1.9803,2.0264,2.0282,1.9315,1.8667,1.8596,1.9555,1.9198,1.9024,1.943,1.9724,2.0159,2.0862,2.1559,2.194,2.1955,2.0229,1.8771,1.7748,1.5741,1.5113,1.5857,1.5864,1.6476,1.76,1.8039,1.8212,1.8009,1.5219,1.2641,1.0404,0.8732,0.8143,0.8421,0.9248,0.9611,0.9785,1.0061,0.9702,0.9023,0.8694,0.823,0.7893,0.9402,1.0717,1.2118,1.4327,1.5961,1.701,1.6944,1.679,1.6562,1.6228,1.6016,1.6018,1.6332,1.6167,1.5137,1.1817,1.2389,1.3951,1.4903,1.6245,1.7728,1.9099,1.9906,2.0469,2.0801,2.1729,2.2321,2.1949,2.1708,2.1875,2.276,2.1922,2.1575,2.253,2.187,2.1378,2.1399,2.122,2.1658,2.2941,2.3033,2.3657,2.5023,2.4396,2.4146,2.4422,2.3723,2.4154,2.58,2.4921,2.4838,2.5435,2.4593,2.4425,1.4344,1.4215,1.4047,1.4998,1.6008,1.6835,1.702,1.7164,1.7496,1.8318,1.6548,1.5618,1.8187,1.7061,1.6476,1.8827,1.8761,1.8623,1.9328,1.9483,1.9547,1.9554,2.0353,2.0614,1.9996,2.1051,2.1325,2.0156,2.0396,2.0067,1.8851,1.6983,1.5786,1.5431,1.4087,1.3874,1.4802,1.5077,1.5678,1.6602,1.7155,1.7073,1.6315,1.5811,1.3696,1.0399,0.9411,0.9062,0.9177,1.0257,1.0542,1.0466,1.1584,1.1593,1.0923,1.0827,1.1018,1.1485,1.272,1.4055,1.5519,1.7196,1.8288,1.8871,1.8707,1.845,1.8152,1.7991,1.7896,1.7709,1.7144,1.7015,1.6826,1.597,1.6155,1.6591,1.6601,1.7776,1.922,2.0439,2.066,2.0953,2.2021,2.2388,2.2615,2.2721,2.2818,2.3035,2.3441,2.3151,2.3074,2.3562,2.3053,2.2794,2.2977,2.3721,2.406,2.3859,2.5419,2.5914,2.491,2.49,2.5301,2.6151,2.6032,2.6173,2.6552,2.5737,2.5038,2.4416,2.423,2.3589,1.5185,1.5053,1.5026,1.4965,1.6314,1.7353,1.6237,1.6216,1.6417,1.6455,1.552,1.5089,1.6542,1.5978,1.5694,1.6822,1.7434,1.7787,1.8148,1.8391,1.8614,1.8954,1.9436,1.9711,1.9626,2.0424,2.0205,1.8409,1.8534,1.7724,1.5469,1.3696,1.2805,1.288,1.1572,1.1544,1.2893,1.3343,1.3962,1.4819,1.5733,1.5894,1.5372,1.4673,1.2987,1.0491,0.9926,0.9682,0.9725,1.0593,1.1104,1.1382,1.1988,1.2214,1.217,1.2432,1.2897,1.3685,1.516,1.6714,1.8319,1.9811,2.084,2.1372,2.0735,2.061,2.0496,1.9721,1.9633,1.972,1.9432,1.8994,1.8582,1.8612,1.8178,1.795,1.8536,1.9259,2.0187,2.1346,2.1655,2.1894,2.2492,2.2768,2.296,2.3212,2.3318,2.3522,2.386,2.3777,2.3774,2.3976,2.405,2.4177,2.4399,2.5215,2.5697,2.565,2.6637,2.6908,2.6181,2.6269,2.6436,2.6592,2.7083,2.7322,2.7316,2.6424,2.5698,2.5138,2.4656,2.3928,1.5266,1.5322,1.5706,1.5737,1.7103,1.7748,1.5442,1.5612,1.6039,1.5386,1.5452,1.5556,1.513,1.5736,1.61,1.5448,1.6629,1.741,1.6987,1.6993,1.738,1.8238,1.7995,1.8138,1.9014,1.9311,1.8524,1.6275,1.6573,1.5457,1.2205,1.0889,1.0359,1.0535,0.9346,0.9374,1.0867,1.1369,1.208,1.2956,1.3962,1.4506,1.4544,1.3114,1.186,1.0738,1.0412,1.0208,1.0182,1.0885,1.1765,1.2597,1.2506,1.3072,1.4047,1.4302,1.4989,1.6007,1.7623,1.9239,2.0832,2.2098,2.3147,2.3731,2.2742,2.272,2.2785,2.1454,2.1297,2.1582,2.1589,2.0771,2.001,2.0081,1.935,1.8995,2.0156,2.0589,2.114,2.2178,2.2777,2.3039,2.2899,2.3198,2.3495,2.3756,2.3718,2.3811,2.4261,2.4238,2.4217,2.4316,2.4926,2.5403,2.5554,2.6374,2.7038,2.7422,2.7832,2.7972,2.7785,2.8079,2.7816,2.6918,2.7687,2.8105,2.8107,2.7104,2.6521,2.6275,2.5284,2.4572,1.2588,1.3688,1.501,1.5786,1.7,1.7578,1.6083,1.609,1.639,1.6184,1.6478,1.6705,1.6464,1.6597,1.6798,1.7119,1.7189,1.7193,1.7302,1.7468,1.7606,1.7944,1.7787,1.8037,1.9094,1.9409,1.8061,1.4456,1.5311,1.4033,0.9575,0.9494,0.9494,0.9157,0.9023,0.9188,0.9744,1.0268,1.101,1.2007,1.2151,1.2646,1.3418,1.2716,1.2045,1.1401,1.1139,1.0869,1.0724,1.2107,1.335,1.4418,1.4754,1.6404,1.8503,1.7762,1.8821,2.0668,2.1302,2.2259,2.3285,2.3819,2.4369,2.4726,2.4303,2.4199,2.4003,2.3248,2.2832,2.2392,2.1353,2.0726,2.0294,2.0207,2.0563,2.0777,2.0366,2.1445,2.2651,2.329,2.385,2.4237,2.411,2.4188,2.443,2.4989,2.4615,2.4485,2.5069,2.5022,2.5059,2.53,2.5623,2.593,2.6228,2.7782,2.8544,2.811,3.0464,3.0831,2.8558,2.9972,3.0087,2.8508,2.8734,2.8871,2.8929,2.8,2.7094,2.6289,2.5323,2.4693,1.3923,1.4815,1.5935,1.7211,1.7616,1.7645,1.733,1.705,1.6884,1.6822,1.7536,1.7917,1.7036,1.7435,1.7947,1.799,1.8031,1.8017,1.7975,1.7708,1.7422,1.6992,1.7024,1.718,1.7403,1.7587,1.6334,1.3094,1.3001,1.1337,0.7439,0.7237,0.715,0.6877,0.7004,0.7301,0.7765,0.8229,0.9299,1.0943,1.0868,1.1375,1.2516,1.2324,1.2352,1.2521,1.2714,1.2986,1.339,1.4092,1.5188,1.6376,1.6274,1.7182,1.8628,1.9083,2.0216,2.1708,2.2758,2.3806,2.4637,2.506,2.5524,2.5866,2.5402,2.5429,2.5318,2.3822,2.3412,2.3201,2.2221,2.1699,2.1453,2.1519,2.2159,2.2686,2.2372,2.3093,2.4038,2.4806,2.4887,2.5027,2.5709,2.5786,2.5869,2.6251,2.6215,2.6131,2.6149,2.613,2.6088,2.6013,2.6556,2.7164,2.7787,2.8983,2.9922,3.0453,3.1277,3.146,3.0749,3.0587,3.0408,3.0146,2.9804,2.9652,2.9698,2.8122,2.7186,2.6807,2.5246,2.4405,1.5504,1.6382,1.7325,1.8121,1.8263,1.8081,1.7897,1.7718,1.7463,1.7214,1.8627,1.9501,1.8157,1.8738,1.9324,1.9017,1.9395,1.9406,1.863,1.8004,1.7222,1.6132,1.6107,1.6139,1.5996,1.6132,1.509,1.2337,1.1657,0.9808,0.6259,0.5976,0.5718,0.5308,0.5555,0.5903,0.6376,0.7026,0.8294,1.0144,0.9783,1.0317,1.1542,1.1442,1.178,1.261,1.3614,1.4443,1.5001,1.5263,1.6221,1.7483,1.6926,1.7461,1.8699,1.9655,2.0726,2.1932,2.3548,2.4533,2.5197,2.6031,2.645,2.6572,2.6226,2.6366,2.6286,2.4516,2.4131,2.4074,2.326,2.2833,2.2627,2.3037,2.3647,2.4197,2.4499,2.4787,2.5322,2.6283,2.5948,2.5832,2.6944,2.7037,2.7058,2.7368,2.7681,2.7773,2.7451,2.7473,2.7359,2.6982,2.7598,2.8448,2.9394,3.0354,3.1406,3.2524,3.2467,3.2467,3.2657,3.1501,3.1078,3.1561,3.0837,3.0247,2.9855,2.8215,2.7274,2.6918,2.5281,2.4355,1.5881,1.7472,1.8843,1.7688,1.8486,1.9059,1.7112,1.7656,1.8222,1.7221,1.972,2.1759,2.0634,2.0825,2.1029,2.0654,2.1438,2.1332,1.91,1.8309,1.7334,1.5644,1.505,1.5129,1.5898,1.6164,1.5186,1.2494,1.254,1.0797,0.6435,0.6773,0.652,0.523,0.5719,0.6092,0.6301,0.7731,0.8836,0.9632,0.8898,0.9223,1.0349,0.9676,0.9762,1.0581,1.3182,1.4083,1.3841,1.4602,1.5851,1.7144,1.6357,1.7963,2.0635,1.9814,2.0552,2.2248,2.4086,2.4594,2.4773,2.6677,2.69,2.6505,2.6922,2.6922,2.6624,2.5878,2.54,2.495,2.4214,2.3616,2.3473,2.4381,2.4671,2.5049,2.6049,2.6231,2.6538,2.7572,2.7114,2.6742,2.7429,2.7458,2.7585,2.8161,2.8614,2.8955,2.9058,2.9124,2.8965,2.844,2.8759,2.9471,3.0616,3.2075,3.3093,3.3426,3.502,3.5172,3.3407,3.345,3.3213,3.2618,3.1842,3.0609,2.8965,2.8539,2.7539,2.6061,2.5579,2.4886,1.7604,1.8057,1.8407,1.8475,1.7599,1.6727,1.667,1.688,1.7074,1.7125,1.9479,2.1463,2.1344,2.2101,2.2737,2.262,2.2591,2.1995,2.0316,1.8975,1.7557,1.5869,1.4992,1.4926,1.5796,1.5408,1.4239,1.2179,1.1571,0.9649,0.5999,0.5976,0.569,0.4915,0.5092,0.5418,0.5773,0.6788,0.7654,0.839,0.8334,0.8537,0.8954,0.8979,0.8922,0.887,1.1073,1.2414,1.3034,1.3554,1.4681,1.6095,1.5484,1.6467,1.8268,1.844,1.9362,2.0852,2.3035,2.3677,2.3952,2.6142,2.6472,2.6129,2.7075,2.7166,2.6791,2.6139,2.5689,2.5223,2.4477,2.4547,2.5029,2.606,2.654,2.691,2.7477,2.7362,2.7386,2.8228,2.8405,2.8665,2.9434,2.973,2.9919,3.0204,3.0201,3.0053,2.9807,2.9527,2.9467,2.9734,2.9954,3.0865,3.2832,3.3527,3.4461,3.5861,3.6099,3.5893,3.523,3.4352,3.3796,3.3599,3.2641,3.1632,3.0561,2.8552,2.7483,2.7306,2.5805,2.5474,1.9029,1.8775,1.852,1.8721,1.7199,1.5757,1.6186,1.6934,1.7693,1.8165,2.0748,2.2869,2.2893,2.3759,2.4372,2.4009,2.3683,2.2771,2.0785,1.9376,1.7655,1.5303,1.4902,1.4756,1.4656,1.4309,1.3256,1.1295,1.0228,0.8427,0.5644,0.5373,0.512,0.4738,0.473,0.4999,0.5581,0.6356,0.6977,0.7425,0.7958,0.8038,0.7775,0.8136,0.799,0.7491,0.8809,1.0337,1.192,1.2582,1.3609,1.4748,1.3949,1.4563,1.5945,1.627,1.7355,1.9063,2.1525,2.2767,2.3645,2.5967,2.6607,2.6623,2.7395,2.7461,2.7178,2.6556,2.6158,2.5812,2.539,2.5893,2.6668,2.7215,2.8025,2.8753,2.9062,2.8853,2.8708,2.9162,2.9393,2.9782,3.0542,3.082,3.0958,3.111,3.1298,3.1271,3.0888,3.0761,3.0824,3.1084,3.1487,3.2487,3.4298,3.5058,3.5953,3.7291,3.7182,3.6939,3.6689,3.5747,3.5285,3.5345,3.4083,3.3177,3.2642,2.9666,2.8184,2.8071,2.6461,2.6199,0.0,0.0,0.0,1.833,1.739,1.6429,1.5585,1.7891,2.0206,2.0318,2.3553,2.6088,2.5298,2.5783,2.5878,2.46,2.4718,2.3776,2.0401,1.9398,1.7638,1.385,1.454,1.4504,1.2478,1.2891,1.2263,0.9812,0.8655,0.7256,0.5376,0.5174,0.5017,0.4789,0.4686,0.4942,0.5685,0.661,0.7027,0.6949,0.7771,0.7723,0.6941,0.7057,0.6843,0.6446,0.6576,0.806,1.0457,1.1656,1.2574,1.3031,1.172,1.2329,1.3919,1.3449,1.4703,1.6987,1.9746,2.1904,2.3868,2.6092,2.7355,2.7976,2.7823,2.7869,2.7869,2.7258,2.6956,2.6841,2.7002,2.7627,2.8146,2.7813,2.9065,3.0438,3.0689,3.0621,3.0463,3.0373,3.0036,2.9987,3.0647,3.0589,3.0535,3.0786,3.1822,3.2496,3.2302,3.2851,3.3034,3.241,3.3347,3.4301,3.5019,3.6634,3.7604,3.7566,3.8344,3.848,3.767,3.7689,3.7718,3.7777,3.6147,3.5166,3.4884,3.1914,2.9688,2.8201,2.7702,2.7191,2.0543,0.0,0.0,0.0,0.0,0.0,1.5602,1.7636,1.9579,1.9597,2.2554,2.4885,2.4184,2.4943,2.5307,2.4335,2.3949,2.2931,2.0512,1.8937,1.6945,1.4082,1.3303,1.2648,1.1932,1.1287,1.0239,0.0,0.7764,0.6616,0.4899,0.5096,0.4908,0.4183,0.4673,0.5072,0.5336,0.5989,0.6727,0.7558,0.7539,0.7561,0.7593,0.7047,0.621,0.5275,0.6717,0.7098,0.6848,0.8366,0.9499,1.0223,0.9283,0.9744,1.0895,1.071,1.2258,1.4798,1.7107,1.9107,2.1111,2.4016,2.5464,2.6241,2.7121,2.7528,2.7654,2.7334,2.721,2.7241,2.7619,2.7326,2.714,2.8066,2.8858,2.9387,2.9373,3.0186,3.1028,3.1333,3.1447,3.1705,3.2249,3.1661,3.1258,3.1684,3.1577,3.15,3.1627,3.2104,3.2619,3.3127,3.4086,3.5312,3.6762,3.7716,3.8523,3.9193,3.9458,3.9317,3.8709,3.7997,3.745,3.709,3.5764,3.5015,3.4887,3.1541,3.0189,3.072,3.0956,3.1138,2.0661,1.9687,1.8501,1.8673,0.0,0.0,1.6074,1.8394,2.0597,2.0805,2.348,2.5456,2.4335,2.4531,2.4445,2.3371,2.238,2.1339,2.0116,1.8475,1.6461,1.3761,1.2707,1.1708,1.0465,0.973,0.8623,0.695,0.6455,0.5749,0.4647,0.4383,0.4101,0.3748,0.4086,0.4411,0.4688,0.5561,0.637,0.7098,0.7381,0.749,0.7432,0.6949,0.6323,0.565,0.6356,0.6367,0.5899,0.6169,0.7204,0.8565,0.7766,0.816,0.9159,0.8763,1.0168,1.2549,1.4911,1.706,1.9383,2.2673,2.4302,2.5203,2.6572,2.7085,2.7243,2.7317,2.755,2.7741,2.7656,2.7518,2.7643,2.8524,2.9167,2.9614,2.9844,3.0487,3.0957,3.083,3.1204,3.1639,3.19,3.1506,3.126,3.1526,3.1464,3.1474,3.167,3.2471,3.3298,3.3885,3.5064,3.6131,3.6991,3.7737,3.8401,3.8936,3.8953,3.8879,3.8719,3.8136,3.7647,3.73,3.6243,3.5257,3.4339,3.2185,3.1271,3.1602,3.2033,3.2381,2.0222,1.938,1.8373,1.9416,1.8325,0.0,1.6998,1.972,2.2355,2.2852,2.5139,2.6537,2.4908,2.4129,2.3343,2.2026,2.0581,1.9509,1.9218,1.7909,1.5868,1.2846,1.2305,1.1148,0.8521,0.8199,0.7413,0.5549,0.5166,0.4911,0.4723,0.3628,0.3146,0.345,0.3298,0.3472,0.4032,0.5227,0.6021,0.6332,0.7262,0.7487,0.7116,0.6971,0.6901,0.685,0.591,0.5902,0.6428,0.5198,0.5821,0.7498,0.6592,0.7061,0.8145,0.7403,0.8541,1.0848,1.332,1.5802,1.8481,2.1743,2.352,2.4623,2.6041,2.647,2.6556,2.7017,2.7731,2.8152,2.7371,2.796,2.8863,2.896,2.9544,3.0245,3.0954,3.0882,3.0425,2.9592,3.0062,3.0684,3.0785,3.0793,3.0826,3.0927,3.1465,3.1874,3.1947,3.331,3.4357,3.4485,3.5914,3.6722,3.6362,3.7161,3.7674,3.7723,3.7637,3.7789,3.8172,3.8015,3.79,3.7868,3.6883,3.5458,3.362,3.3377,3.2697,3.1617,3.2017,3.2227,1.8625,1.8251,1.7712,1.8285,1.7829,0.0,1.8837,2.0431,2.1877,2.261,2.3863,2.4434,2.313,2.253,2.203,2.1358,2.0076,1.8855,1.8003,1.6576,1.4411,1.0944,1.0231,0.9322,0.7525,0.701,0.6628,0.6212,0.5496,0.5169,0.5383,0.4716,0.398,0.3201,0.3716,0.4066,0.4245,0.465,0.5844,0.7782,0.7351,0.7834,0.9009,0.7947,0.7248,0.6907,0.6801,0.6225,0.5493,0.665,0.6499,0.5404,0.3915,0.4672,0.6582,0.6118,0.8389,1.197,1.3431,1.579,1.8481,2.0444,2.2173,2.3655,2.4766,2.5011,2.5039,2.5571,2.6778,2.7839,2.7578,2.8231,2.8856,2.8398,2.8501,2.8765,2.9077,2.9183,2.9281,2.9513,3.0299,3.1305,3.253,3.1522,3.0872,3.1792,3.1281,3.0872,3.1024,3.2635,3.3806,3.3927,3.5525,3.6588,3.6622,3.7192,3.7603,3.7759,3.7721,3.7798,3.8112,3.7271,3.6877,3.7032,3.5212,3.4103,3.3675,3.4043,3.3795,3.2963,3.3708,3.4052,1.7498,1.7489,1.7306,1.834,1.8517,0.0,0.0,2.0581,2.1771,2.1461,2.2755,2.3371,2.1405,2.1101,2.0894,2.0097,1.892,1.7874,1.715,1.5475,1.3288,1.0574,0.916,0.7993,0.695,0.6369,0.6149,0.6431,0.6173,0.5905,0.5717,0.5031,0.4221,0.3278,0.3391,0.352,0.3646,0.4678,0.5844,0.7156,0.7579,0.8338,0.9312,0.8284,0.7787,0.7708,0.7049,0.6757,0.6859,0.7745,0.7745,0.7117,0.6201,0.6928,0.8461,0.8201,1.0249,1.3346,1.476,1.6488,1.8412,2.0598,2.1455,2.1951,2.3793,2.4854,2.5522,2.6131,2.6764,2.7259,2.7278,2.7948,2.8548,2.8316,2.8631,2.9036,2.9169,2.9235,2.9232,2.9213,3.0264,3.1236,3.1506,3.0882,3.0503,3.0972,3.0904,3.0788,3.0706,3.209,3.3215,3.3614,3.4684,3.5494,3.5882,3.6214,3.6466,3.6588,3.6573,3.6647,3.6891,3.6395,3.5933,3.5553,3.3997,3.3165,3.3104,3.3752,3.4067,3.4109,3.4543,3.4711,1.5684,1.6395,1.69,1.8336,1.8947,1.912,0.0,0.0,0.0,2.0096,2.1422,2.205,1.9604,1.9434,1.9477,1.8812,1.7802,1.6987,1.6608,1.4861,1.2911,1.0976,0.889,0.7494,0.7158,0.6802,0.674,0.7102,0.7334,0.713,0.639,0.5383,0.4477,0.369,0.315,0.2954,0.3139,0.4605,0.5649,0.6259,0.7642,0.8563,0.8999,0.8477,0.8354,0.8477,0.7363,0.7528,0.8652,0.8984,0.947,0.989,0.9467,1.008,1.1164,1.1056,1.2713,1.5183,1.6546,1.7684,1.8913,2.1084,2.123,2.0938,2.2957,2.4894,2.6428,2.6581,2.675,2.6873,2.6797,2.7395,2.8012,2.8018,2.8679,2.9342,2.9421,2.955,2.9499,2.897,2.9966,3.071,3.0022,3.02,3.04,3.0242,3.0608,3.0818,3.0565,3.159,3.2537,3.3105,3.3786,3.4339,3.469,3.5109,3.5311,3.52,3.5347,3.547,3.5445,3.5445,3.493,3.3824,3.3096,3.2598,3.2281,3.3082,3.3882,3.4623,3.4813,3.487,1.1624,1.398,1.6208,1.7092,1.7498,1.7958,1.9149,0.0,1.9358,1.9028,0.0,1.9057,1.7504,0.0,0.0,1.8191,1.7254,1.6386,1.6346,1.5418,1.3956,1.1885,0.9754,0.8615,0.8959,0.9526,0.9721,0.9357,0.9416,0.9154,0.8415,0.6656,0.5348,0.4662,0.3896,0.3542,0.3625,0.3657,0.471,0.6712,0.7139,0.7797,0.8674,0.9004,0.8839,0.8267,0.8447,0.8715,0.9182,1.1094,1.1868,1.1739,1.0219,1.0834,1.2562,1.2551,1.48,1.7884,1.8322,1.9542,2.093,2.0994,2.1727,2.2511,2.216,2.4258,2.6396,2.4679,2.5782,2.7262,2.6273,2.6707,2.7277,2.674,2.7301,2.7967,2.8155,2.8855,2.9384,2.9197,2.9352,2.9709,3.0232,3.0898,3.1341,3.1325,3.0694,3.0234,3.0234,3.1085,3.1742,3.1898,3.3287,3.3954,3.3385,3.4693,3.5256,3.456,3.524,3.5328,3.4573,3.4554,3.3727,3.203,3.2576,3.2428,3.1531,3.2564,3.3278,3.3676,3.451,3.4908,0.8275,0.8886,0.9449,1.1064,1.2148,1.3089,1.4198,1.5961,1.7283,1.6996,0.0,0.0,0.0,0.0,0.0,0.0,1.7032,1.6789,1.6197,1.6039,1.5019,1.2348,1.1399,1.0598,0.963,1.0726,1.0806,0.9131,1.0117,1.0409,0.9508,0.8204,0.7103,0.6283,0.4555,0.3674,0.3701,0.3584,0.4314,0.5898,0.7562,0.8489,0.8742,0.9722,0.9846,0.9265,0.8914,0.9466,1.0769,1.1913,1.2831,1.3473,1.339,1.3901,1.4768,1.5243,1.7416,2.0164,2.0245,2.1291,2.2522,2.2083,2.2721,2.3602,2.3324,2.4588,2.5935,2.5071,2.5493,2.6126,2.5716,2.6231,2.679,2.6572,2.7238,2.8078,2.8648,2.8706,2.863,2.8567,2.9361,2.9984,2.9805,2.9987,3.0496,3.1468,3.0879,3.0314,3.0258,3.0674,3.1319,3.2241,3.3045,3.377,3.4433,3.514,3.5399,3.5121,3.5441,3.5469,3.5056,3.4627,3.4019,3.323,3.3089,3.2546,3.1592,3.3076,3.3352,3.255,3.3757,3.4611,0.3941,0.3957,0.411,0.6358,0.7818,0.9097,1.056,1.2939,1.4802,1.4638,1.4756,0.0,0.0,0.0,1.5409,1.551,0.0,1.6429,1.5637,1.6286,1.6005,1.3748,1.3429,1.2774,1.1199,1.2065,1.1998,1.0174,1.132,1.1693,1.0738,0.9778,0.8783,0.78,0.5782,0.4274,0.3383,0.3672,0.4217,0.5033,0.7668,0.8822,0.8678,1.0359,1.0731,0.9986,0.9631,1.0316,1.1749,1.2609,1.3446,1.4304,1.5904,1.6442,1.6427,1.7243,1.9341,2.1797,2.1761,2.242,2.3301,2.3148,2.3456,2.3938,2.4225,2.5093,2.5912,2.568,2.5638,2.5639,2.5468,2.5829,2.6274,2.6304,2.7078,2.7931,2.8526,2.8365,2.8061,2.7828,2.8748,2.9523,2.9326,2.9641,3.0325,3.1545,3.1039,3.0494,3.0393,3.0716,3.1363,3.2484,3.3108,3.3821,3.4814,3.53,3.5581,3.5589,3.5357,3.5186,3.5156,3.4654,3.4262,3.395,3.3645,3.3014,3.2067,3.3413,3.3413,3.2212,3.3462,3.4269,0.0,0.0,0.2751,0.5143,0.6233,0.7479,1.0438,1.1382,1.1736,1.2048,1.2078,1.2128,1.2517,1.2401,1.2582,1.3619,1.4295,0.0,0.0,1.5818,1.6848,1.6762,1.5775,1.494,1.4495,1.4075,1.3877,1.3925,1.3732,1.3278,1.2463,1.1285,1.0114,0.8986,0.7862,0.5762,0.2572,0.3763,0.4427,0.4554,0.7044,0.8206,0.8197,1.0798,1.1156,0.9869,1.0927,1.1415,1.1542,1.3395,1.3889,1.3835,1.6711,1.7439,1.6978,1.7838,2.004,2.2556,2.2551,2.2687,2.2976,2.3855,2.3645,2.3203,2.4124,2.5545,2.6676,2.5849,2.6206,2.6639,2.5732,2.5564,2.5634,2.5629,2.6295,2.6952,2.6971,2.7629,2.795,2.7107,2.6976,2.7508,2.9047,3.0646,3.1717,3.1797,3.11,3.0599,3.0586,3.1443,3.2064,3.2114,3.3574,3.4234,3.3439,3.4807,3.567,3.5596,3.4757,3.4238,3.425,3.4337,3.3973,3.3068,3.3973,3.3957,3.2966,3.316,3.3213,3.3174,3.3991,3.3954,0.0,0.0,-0.4701,-0.2397,0.0,0.0,0.2842,0.6285,0.9203,0.9821,1.0011,1.0286,1.105,1.1268,1.1677,1.2556,1.3183,1.3616,0.0,1.5911,1.7656,1.8287,1.7745,1.7062,1.6386,1.5988,1.5228,1.3925,1.3923,1.3773,1.3319,1.2815,1.2375,1.1993,1.0336,0.8648,0.6952,0.6136,0.5888,0.6246,0.8052,0.922,0.9826,1.1783,1.274,1.2889,1.2521,1.2884,1.3711,1.3642,1.3717,1.3987,1.5035,1.609,1.7221,1.8806,2.042,2.1984,2.3183,2.3649,2.3867,2.4769,2.4518,2.4033,2.4977,2.5593,2.5896,2.557,2.5644,2.574,2.5282,2.5311,2.5451,2.5407,2.5722,2.6209,2.6776,2.6704,2.6619,2.684,2.7332,2.8051,2.9179,3.0311,3.1239,3.1736,3.1152,3.0662,3.0662,3.0957,3.1625,3.2766,3.3361,3.4023,3.4881,3.5446,3.5713,3.5616,3.5295,3.5102,3.5051,3.514,3.5018,3.4659,3.5166,3.4644,3.307,3.3818,3.3306,3.1627,3.2487,3.3009,-0.7104,-0.8118,0.0,-0.6696,-0.4984,0.0,-0.1238,0.0,0.505,0.5699,0.5718,0.6098,0.7843,0.834,0.9009,1.0577,1.1401,1.2317,0.0,1.5884,1.7769,1.8884,1.8827,1.8604,1.8391,1.7643,1.6728,1.5691,1.5214,1.4862,1.4646,1.4798,1.4677,1.4235,1.3183,1.1859,1.0257,0.8938,0.7984,0.74,0.913,1.0263,1.0897,1.2373,1.365,1.4662,1.3637,1.3807,1.4763,1.3929,1.3803,1.4188,1.4636,1.5796,1.7355,1.8602,2.0283,2.2215,2.4015,2.4273,2.3994,2.5193,2.4584,2.37,2.5234,2.5366,2.4974,2.4999,2.5108,2.509,2.4679,2.4974,2.5335,2.5255,2.5371,2.5703,2.6308,2.6011,2.5793,2.6337,2.6855,2.7577,2.875,2.9404,3.0247,3.1639,3.1201,3.0697,3.0672,3.0953,3.1584,3.2726,3.336,3.4263,3.5683,3.5786,3.5729,3.5601,3.5601,3.5581,3.5538,3.5585,3.5463,3.5146,3.5616,3.5133,3.3667,3.4359,3.3838,3.2186,3.2452,3.2674]},{"header":{"parameterUnit":"m.s-1","parameterCategory":1,"la1":30.6,"la2":29.2853,"lo1":-89.7004,"lo2":-87.6739,"dy":0.0162,"dx":0.0183,"nx":112,"ny":82,"refTime":"2023-09-13T00:00:00:Z","depth":0,"parameterNumber":3,"parameterNumberName":"V-component_of_WINDS"},"data":[0.0,0.0,0.0,0.0,0.0,0.0,0.0,0.0,0.0,0.0,0.0,0.0,0.0,0.0,0.0,0.0,0.0,0.0,0.0,0.0,0.0,0.0,0.0,0.0,0.0,0.0,0.0,0.0,0.0,0.0,0.0,0.0,0.0,0.0,0.0,0.0,0.0,0.0,0.0,0.0,0.0,0.0,0.0,0.0,0.0,0.0,0.0,0.0,0.0,0.0,0.0,0.0,0.0,0.0,0.0,0.0,0.0,0.0,0.0,0.0,0.0,0.0,0.0,0.0,0.0,0.0,0.0,0.0,0.0,0.0,0.0,0.0,0.0,0.0,0.0,0.0,0.0,0.0,0.0,0.0,0.0,0.0,0.0,0.0,0.0,0.0,0.0,0.0,0.0,0.0,0.4971,0.7136,0.4385,0.0621,-0.3806,-0.5146,-0.5906,-0.6203,0.0,0.0,0.0,0.0,0.0,0.0,0.0,0.0,0.0,0.0,0.0,0.0,0.0,0.0,0.0,0.0,0.0,0.0,0.0,0.0,0.0,0.0,0.0,0.0,0.0,0.0,0.0,0.0,0.0,0.0,0.0,0.0,0.0,0.0,0.0,0.0,0.0,0.0,0.0,0.0,0.0,0.0,0.0,0.0,0.0,0.0,0.0,0.0,0.0,0.0,0.0,0.0,0.0,0.0,0.0,0.0,0.0,0.0,0.0,0.0,0.0,0.0,0.0,0.0,0.0,0.0,0.0,0.0,0.0,0.0,0.0,0.0,0.0,0.0,0.0,0.0,0.0,0.0,0.0,0.0,0.0,0.0,0.0,0.0,0.0,0.0,0.0,0.0,0.0,0.0,0.0,0.0,0.0,0.0,0.0,0.0,0.0,0.0,0.0,0.0,0.0,0.0,0.0,0.0,0.5235,0.5123,0.3459,0.0721,-0.327,-0.4579,-0.556,-0.6428,0.0,0.0,0.0,0.0,0.0,0.0,0.0,0.0,0.0,0.0,0.0,0.0,0.0,0.0,0.0,0.0,0.0,0.0,0.0,0.0,0.0,0.0,0.0,0.0,0.0,0.0,0.0,0.0,0.0,0.0,0.0,0.0,0.0,0.0,0.0,0.0,0.0,0.0,0.0,0.0,0.0,0.0,0.0,0.0,0.0,0.0,0.0,0.0,0.0,0.0,0.0,0.0,0.0,0.0,0.0,0.0,0.0,0.0,0.0,0.0,0.0,0.0,0.0,0.0,0.0,0.0,0.0,0.0,0.0,0.0,0.0,0.0,0.0,0.0,0.0,0.0,0.0,0.0,0.0,0.0,0.0,0.0,0.0,0.0,0.0,0.0,0.0,0.0,0.0,0.0,0.0,0.0,0.0,0.0,0.0,0.0,0.0,0.0,0.0,0.0,0.0,0.0,0.0,0.5794,0.5754,0.353,0.2239,0.0062,-0.3479,-0.452,-0.5362,-0.6322,-0.6367,0.0,0.0,0.0,0.0,0.0,0.0,0.0,0.0,0.0,0.0,0.0,0.0,0.0,0.0,0.0,0.0,0.0,0.0,0.0,0.0,0.0,0.0,0.0,0.0,0.0,0.0,0.0,0.0,0.0,0.0,0.0,0.0,0.0,0.0,0.0,0.0,0.0,0.0,0.0,0.0,0.0,0.0,0.0,0.0,0.0,0.0,0.0,0.0,0.0,0.0,0.0,0.0,0.0,0.0,0.0,0.0,0.0,0.0,0.0,0.0,0.0,0.0,0.0,0.0,0.0,0.0,0.0,0.0,0.0,0.0,0.0,0.0,0.0,0.0,0.0,0.0,0.0,0.0,0.0,0.0,0.0,0.0,0.0,0.0,0.0,0.0,0.0,0.0,0.0,0.0,0.0,0.0,0.0,0.0,0.0,0.0,0.0,0.0,0.0,0.0,0.0,0.0,0.6207,0.5576,0.2645,0.1124,-0.0879,-0.3881,-0.4836,-0.5525,-0.6345,-0.645,0.0,0.0,0.0,0.0,0.0,0.0,0.0,0.0,0.0,0.0,0.0,0.0,0.0,0.0,0.0,0.0,0.0,0.0,0.0,0.0,0.0,0.0,0.0,0.0,0.0,0.0,0.0,0.0,0.0,0.0,0.0,0.0,0.0,0.0,0.0,0.0,0.0,0.0,0.0,0.0,0.0,0.0,0.0,0.0,0.0,0.0,0.0,0.0,0.0,0.0,0.0,0.0,0.0,0.0,0.0,0.0,0.0,0.0,0.0,0.0,0.0,0.0,0.0,0.0,0.0,0.0,0.0,0.0,0.0,0.0,0.0,0.0,0.0,0.0,0.0,0.0,0.0,0.0,0.0,0.0,0.0,0.0,0.0,0.0,0.0,0.0,0.0,0.0,0.0,0.0,0.0,0.0,0.0,0.0,0.0,0.0,0.0,0.0,0.0,0.0,0.0,0.0,0.4852,0.3911,0.2803,0.0409,-0.2017,-0.4448,-0.5572,-0.626,-0.6542,-0.7206,0.0,0.0,0.0,0.0,0.0,0.0,0.0,0.0,0.0,0.0,0.0,0.0,0.0,0.0,0.0,0.0,0.0,0.0,0.0,0.0,0.0,0.0,0.0,0.0,0.0,0.0,0.0,0.0,0.0,0.0,0.0,0.0,0.0,0.0,0.0,0.0,0.0,0.0,0.0,0.0,0.0,0.0,0.0,0.0,0.0,0.0,0.0,0.0,0.0,0.0,0.0,0.0,0.0,0.0,0.0,0.0,0.0,0.0,0.0,0.0,0.0,0.0,0.0,0.0,0.0,0.0,0.0,0.0,0.0,0.0,0.0,0.0,0.0,0.0,0.0,0.0,0.0,0.0,0.0,0.0,0.0,0.0,0.0,0.0,0.0,0.0,0.0,0.0,0.0,0.0,0.0,0.0,0.0,0.0,0.0,0.0,0.0,0.0,0.0,0.0,0.0,0.0,0.5587,0.4436,0.1866,0.0226,-0.1575,-0.3852,-0.5216,-0.6054,-0.6216,0.0,0.0,0.0,0.0,0.0,0.0,0.0,0.0,0.0,0.0,0.0,0.0,0.0,0.0,0.0,0.0,0.0,0.0,0.0,0.0,0.0,0.0,0.0,0.0,0.0,0.0,0.0,0.0,0.0,0.0,0.0,0.0,0.0,0.0,0.0,0.0,0.0,0.0,0.0,0.0,0.0,0.0,0.0,0.0,0.0,0.0,0.0,0.0,0.0,0.0,0.0,0.0,0.0,0.0,0.0,0.0,0.0,0.0,0.0,0.0,0.0,0.0,0.0,0.0,0.0,0.0,0.0,0.0,0.0,0.0,0.0,0.0,0.0,0.0,0.0,0.0,0.0,0.0,0.0,0.0,0.0,0.0,0.0,0.0,0.0,0.0,0.0,0.0,0.0,0.0,0.0,0.0,0.0,0.0,0.0,0.0,0.0,0.0,0.0,0.0,0.0,0.0,0.578,0.5444,0.4139,0.1168,-0.0499,-0.2052,-0.3622,-0.5326,-0.6342,-0.6309,0.0,0.0,0.0,0.0,0.0,0.0,0.0,0.0,0.0,0.0,0.0,0.0,0.0,0.0,0.0,0.0,0.0,0.0,0.0,0.0,0.0,0.0,0.0,0.0,0.0,0.0,0.0,0.0,0.0,0.0,0.0,0.0,0.0,0.0,0.0,0.0,0.0,0.0,0.0,0.0,0.0,0.0,0.0,0.0,0.0,0.0,0.0,0.0,0.0,0.0,0.0,0.0,0.0,0.0,0.0,0.0,0.0,0.0,0.0,0.0,0.0,0.0,0.0,0.0,0.0,0.0,0.0,0.0,0.0,0.0,0.0,0.0,0.0,0.0,0.0,0.0,0.0,0.0,0.0,0.0,0.0,0.0,0.0,0.0,0.0,0.0,0.0,0.0,0.0,0.0,0.0,0.0,0.0,0.0,0.0,0.0,0.0,0.0,0.0,0.0,0.0,0.0,0.5216,0.4075,0.2658,0.0893,-0.1889,-0.3669,-0.395,-0.6145,-0.735,0.0,0.0,0.0,0.0,0.0,0.0,0.0,0.0,0.0,0.0,0.0,0.0,0.0,0.0,0.0,0.0,0.0,0.0,0.0,0.0,0.0,0.0,0.0,0.0,0.0,0.0,0.0,0.0,0.0,0.0,0.0,0.0,0.0,0.0,0.0,0.0,0.0,0.0,0.0,0.0,0.0,0.0,0.0,0.0,0.0,0.0,0.0,0.0,0.0,0.0,0.0,0.0,0.0,0.0,0.0,0.0,0.0,0.0,0.0,0.0,0.0,0.0,0.0,0.0,0.0,0.0,0.0,0.0,0.0,0.0,0.0,0.0,0.0,0.0,0.0,0.0,0.0,0.0,0.0,0.0,0.0,0.0,0.0,0.0,0.0,0.0,0.0,0.0,0.0,0.0,0.0,0.0,0.0,0.0,0.0,0.0,0.0,0.0,0.0,0.0,0.0,0.0,0.0,0.4654,0.4722,0.3707,0.0779,-0.0887,-0.2327,-0.3622,-0.576,-0.6869,-0.6379,0.0,0.0,0.0,0.0,0.0,0.0,0.0,0.0,0.0,0.0,0.0,0.0,0.0,0.0,0.0,0.0,0.0,0.0,0.0,0.0,0.0,0.0,0.0,0.0,0.0,0.0,0.0,0.0,0.0,0.0,0.0,0.0,0.0,0.0,0.0,0.0,0.0,0.0,0.0,0.0,0.0,0.0,0.0,0.0,0.0,0.0,0.0,0.0,0.0,0.0,0.0,0.0,0.0,0.0,0.0,0.0,0.0,0.0,0.0,0.0,0.0,0.0,0.0,0.0,0.0,0.0,0.0,0.0,0.0,0.0,0.0,0.0,0.0,0.0,0.0,0.0,0.0,0.0,0.0,0.0,0.0,0.0,0.0,0.0,0.0,0.0,0.0,0.0,0.0,0.0,0.0,0.0,0.0,0.0,0.0,0.0,0.0,0.0,0.0,0.0,0.0,0.0,0.4063,0.4516,0.3822,0.0891,-0.061,-0.2052,-0.3458,-0.5492,-0.6602,-0.6374,0.0,0.0,0.0,0.0,0.0,0.0,0.0,0.0,0.0,0.0,0.0,0.0,0.0,0.0,0.0,0.0,0.0,0.0,0.0,0.0,0.0,0.0,0.0,0.0,0.0,0.0,0.0,0.0,0.0,0.0,0.0,0.0,0.0,0.0,0.0,0.0,0.0,0.0,0.0,0.0,0.0,0.0,0.0,0.0,0.0,0.0,0.0,0.0,0.0,0.0,0.0,0.0,0.0,0.0,0.0,0.0,0.0,0.0,0.0,0.0,0.0,0.0,0.0,0.0,0.0,0.0,0.0,0.0,0.0,0.0,0.0,0.0,0.0,0.0,0.0,0.0,0.0,0.0,0.0,0.0,0.0,0.0,0.0,0.0,0.0,0.0,0.0,0.0,0.0,0.0,0.0,0.0,0.0,0.0,0.0,0.0,0.0,0.0,0.0,0.0,0.0,0.0,0.3506,0.3788,0.3279,0.1177,-0.078,-0.2389,-0.3514,-0.5332,-0.6518,-0.6726,0.0,0.0,0.0,0.0,0.0,0.0,0.0,0.0,0.0,0.0,0.0,0.0,0.0,0.0,0.0,0.0,0.0,0.0,0.0,0.0,0.0,0.0,0.0,0.0,0.0,0.0,0.0,0.0,0.0,0.0,0.0,0.0,0.0,0.0,0.0,0.0,0.0,0.0,0.0,0.0,0.0,0.0,0.0,0.0,0.0,0.0,0.0,0.0,0.0,0.0,0.0,0.0,0.0,0.0,0.0,0.0,0.0,0.0,0.0,0.0,1.8305,1.5182,0.0,0.0,0.0,0.0,0.0,0.0,0.0,0.0,0.0,0.0,0.0,0.0,0.0,0.0,0.0,0.0,0.0,0.0,0.0,0.0,0.0,0.0,0.0,0.0,0.0,0.0,0.0,0.0,0.0,0.0,0.0,0.0,0.0,0.0,0.0,0.0,0.0,0.0,0.0,0.0,0.3061,0.4015,0.3928,0.1448,-0.0282,-0.194,-0.3466,-0.555,-0.6913,-0.7164,-0.838,0.0,0.0,0.0,0.0,0.0,0.0,0.0,0.0,0.0,0.0,0.0,0.0,0.0,0.0,0.0,0.0,0.0,0.0,0.0,0.0,0.0,0.0,0.0,0.0,0.0,0.0,0.0,0.0,0.0,0.0,0.0,0.0,0.0,0.0,0.0,0.0,0.0,0.0,0.0,0.0,0.0,0.0,0.0,0.0,0.0,0.0,0.0,0.0,0.0,0.0,0.0,0.0,0.0,0.0,0.0,0.0,0.0,0.0,0.0,1.8478,1.7013,0.0,0.0,0.0,0.0,0.0,0.0,0.0,0.0,0.0,0.0,0.0,0.0,0.0,0.0,0.0,0.0,0.0,0.0,0.0,0.0,0.0,0.0,0.0,0.0,0.0,0.0,0.0,0.0,0.0,0.0,0.0,0.0,0.0,0.0,0.0,0.0,0.0,0.0,0.0,0.0,0.2871,0.3836,0.3727,0.1342,-0.0274,-0.1721,-0.3197,-0.5255,-0.6686,-0.7064,-0.8637,0.0,0.0,0.0,0.0,0.0,0.0,0.0,0.0,0.0,0.0,0.0,0.0,0.0,0.0,0.0,0.0,0.0,0.0,0.0,0.0,0.0,0.0,0.0,0.0,0.0,0.0,0.0,0.0,0.0,0.0,0.0,0.0,0.0,0.0,0.0,0.0,0.0,0.0,0.0,0.0,0.0,0.0,0.0,0.0,0.0,0.0,0.0,0.0,0.0,0.0,0.0,0.0,0.0,2.4365,2.4919,2.3091,2.1719,1.986,1.7816,1.8732,1.925,1.9293,1.747,0.0,0.0,0.0,0.0,0.0,0.0,0.0,0.0,0.0,0.0,0.0,0.0,0.0,0.0,0.0,0.0,0.0,0.0,0.0,0.0,0.0,0.0,0.0,0.0,1.7312,1.7577,1.7168,0.0,0.0,0.0,0.0,0.0,0.0,0.0,0.0,0.0,0.0,0.0,0.2654,0.3422,0.3369,0.1246,-0.0319,-0.1772,-0.3206,-0.5081,-0.6436,-0.7097,-0.8846,-1.0328,0.0,0.0,0.0,0.0,0.0,0.0,0.0,0.0,0.0,0.0,0.0,0.0,0.0,0.0,0.0,0.0,0.0,0.0,0.0,0.0,0.0,0.0,0.0,0.0,0.0,0.0,0.0,0.0,0.0,0.0,0.0,0.0,2.6162,2.7046,0.0,0.0,0.0,0.0,0.0,0.0,0.0,0.0,0.0,0.0,0.0,0.0,0.0,1.2965,1.3622,1.8961,2.1545,2.1413,2.4961,2.6014,2.4794,2.2209,2.0769,2.0206,1.844,0.0,1.7556,1.2206,0.0,0.0,0.0,0.0,0.0,0.0,0.0,0.0,0.0,0.0,0.0,0.0,0.0,0.0,0.0,0.0,0.0,0.0,0.0,0.0,0.0,0.0,2.3209,2.3334,2.1459,2.047,0.0,1.672,1.0916,1.4187,1.0505,0.7235,0.0,0.0,0.0,0.0,0.0,0.0,0.2107,0.321,0.3604,0.2031,0.0055,-0.2107,-0.4509,-0.5747,-0.6875,-0.8022,-0.9802,-1.1277,-1.2282,-1.2014,0.0,0.0,0.0,0.0,0.0,0.0,0.0,0.0,0.0,0.0,0.0,0.0,0.0,0.0,0.0,0.0,0.0,0.0,0.0,0.0,0.0,0.0,0.0,0.0,0.0,0.0,0.0,0.0,0.0,2.3512,2.5048,2.4093,2.37,2.3147,0.0,0.0,0.0,0.0,0.0,0.0,0.0,0.0,0.0,1.3519,1.2563,1.2729,1.4055,1.7917,1.9749,1.9594,2.3869,2.4948,2.3109,2.1439,2.0067,1.8967,1.8268,1.7929,1.7723,1.5743,1.694,1.9661,0.0,0.0,0.0,0.0,1.607,1.561,1.5015,1.4186,1.3323,1.2788,0.0,0.0,0.0,0.0,0.0,0.0,0.0,1.8697,0.0,0.0,2.2317,2.3756,2.3095,2.2626,2.4423,1.9702,1.5674,0.0,1.4485,1.1192,1.0124,0.9885,0.0,0.0,0.0,0.5529,0.3241,0.3258,0.2821,0.114,-0.0419,-0.2066,-0.3697,-0.5256,-0.6557,-0.7629,-0.9545,-1.1273,-1.2628,-1.2696,-1.252,0.0,0.0,0.0,0.0,0.0,0.0,0.0,0.0,0.0,0.0,0.0,0.0,0.0,0.0,0.0,0.0,0.0,0.0,0.0,0.0,0.0,0.0,0.0,0.0,0.0,0.0,0.0,0.0,2.3464,2.4896,2.2801,2.4342,2.4847,0.0,0.0,0.0,0.0,0.0,0.0,1.9762,1.8065,1.6131,1.3865,1.2149,1.2016,1.3507,1.5985,1.7174,1.7165,2.1339,2.2298,2.0408,1.9651,1.8526,1.7215,1.7629,1.7893,1.8163,1.9542,2.0423,2.0934,2.1589,2.1382,2.0679,1.9993,1.8867,1.7665,1.7403,1.6481,1.5294,1.4724,1.6017,1.7574,1.6309,0.0,0.0,0.0,0.0,1.9166,2.0063,2.0348,2.0874,2.2522,2.3243,2.3588,2.3755,2.1545,1.9782,0.0,1.7776,1.4504,1.238,1.183,0.0,0.7478,0.71,0.6373,0.4217,0.3464,0.24,0.0411,-0.0757,-0.1803,-0.2874,-0.4763,-0.624,-0.7048,-0.9252,-1.1239,-1.2693,-1.3229,-1.3401,-1.3248,0.0,0.0,0.0,0.0,0.0,0.0,0.0,0.0,0.0,0.0,0.0,0.0,0.0,0.0,0.0,0.0,0.0,0.0,0.0,0.0,0.0,0.0,0.0,0.0,0.0,0.0,0.0,0.0,0.0,2.7675,3.0306,0.0,0.0,0.0,0.0,2.6214,2.6116,2.4394,2.027,1.7175,1.4507,1.2265,1.0337,0.9372,0.9486,1.2687,1.4336,1.4435,1.7033,1.7912,1.7203,1.6661,1.6287,1.6082,1.6181,1.6965,1.8322,2.0187,2.1631,2.2641,2.2504,2.2395,2.2135,2.082,1.9579,1.8317,1.6793,1.6456,1.6554,1.5714,1.7148,1.8911,1.7308,1.8745,0.0,0.0,2.0951,2.1378,2.0441,2.1049,2.1722,2.1016,2.1865,2.2811,2.2703,2.1783,2.1531,0.0,1.8947,1.5217,1.6195,0.0,1.2015,0.8858,0.7874,0.6647,0.4308,0.3986,0.2966,0.0373,-0.041,-0.138,-0.2952,-0.4887,-0.6208,-0.6684,-0.9417,-1.147,-1.265,-1.3965,-1.4527,-1.4426,-1.3379,0.0,0.0,0.0,0.0,0.0,0.0,0.0,0.0,0.0,0.0,0.0,0.0,0.0,0.0,0.0,0.0,0.0,0.0,0.0,0.0,0.0,0.0,0.0,0.0,0.0,0.0,0.0,0.0,2.9758,3.1106,0.0,2.9488,2.9422,2.916,2.8326,2.8165,2.6222,2.1879,1.9386,1.6143,1.1858,1.1514,1.0987,1.0171,1.2736,1.4108,1.4275,1.587,1.6699,1.6853,1.6269,1.598,1.5922,1.5932,1.6307,1.7178,1.9892,2.2022,2.3728,2.5349,2.6031,2.5957,2.4471,2.2602,2.0614,1.9347,1.8295,1.7746,1.9207,1.9926,2.0565,2.248,2.279,2.2739,2.3984,2.348,2.2532,2.2382,2.2043,2.1801,2.2061,2.2094,2.189,2.1144,2.1311,2.1576,2.149,1.8871,1.6897,1.7512,1.6247,1.4252,1.1435,0.9809,0.8099,0.5828,0.4419,0.2844,0.0893,-0.0049,-0.1142,-0.2571,-0.3688,-0.4737,-0.5918,-0.7708,-0.9512,-1.1146,-1.2885,-1.3939,-1.4194,-1.3905,-1.4031,0.0,0.0,0.0,0.0,0.0,0.0,0.0,0.0,0.0,0.0,0.0,0.0,0.0,0.0,0.0,0.0,0.0,0.0,0.0,0.0,0.0,0.0,0.0,0.0,0.0,2.8847,3.0884,3.0415,3.2011,3.2366,3.0419,3.1082,3.1085,2.9744,2.9506,2.7533,2.3116,2.0709,1.7388,1.2853,1.2403,1.1625,1.0346,1.2297,1.3225,1.3094,1.4712,1.5571,1.5713,1.5621,1.5594,1.5631,1.5552,1.578,1.6436,1.906,2.124,2.3256,2.6569,2.7748,2.7513,2.6824,2.4882,2.2403,2.103,1.9802,1.9141,2.1236,2.1891,2.2476,2.5554,2.5702,2.5071,2.6319,2.5297,2.3741,2.3349,2.2432,2.1697,2.1967,2.1793,2.1368,2.0603,2.0527,2.0401,1.97,1.879,1.7993,1.7556,1.6087,1.4063,1.1503,0.9283,0.7379,0.5757,0.4018,0.2327,0.087,0.0047,-0.0885,-0.2152,-0.3242,-0.428,-0.5357,-0.7013,-0.8658,-1.0218,-1.1969,-1.3155,-1.371,-1.4235,-1.5573,-1.7846,0.0,0.0,0.0,0.0,0.0,0.0,0.0,0.0,0.0,0.0,0.0,0.0,0.0,0.0,0.0,0.0,0.0,0.0,0.0,0.0,0.0,0.0,0.0,2.628,2.9251,3.1196,2.9969,3.3425,3.4761,3.1828,3.4513,3.4697,3.0445,3.0043,2.8115,2.3807,2.0793,1.7947,1.5201,1.282,1.0981,0.9699,1.1172,1.1538,1.079,1.3395,1.427,1.3628,1.4481,1.4954,1.5076,1.4973,1.5384,1.6236,1.7823,1.9391,2.124,2.5888,2.7152,2.6469,2.7439,2.6057,2.3434,2.1471,2.069,2.069,2.1414,2.2785,2.4413,2.5947,2.7004,2.7603,2.7096,2.6241,2.5048,2.3139,2.2151,2.1448,2.0503,2.0759,2.1206,2.107,1.9525,1.8208,1.8413,1.8701,1.8349,1.6608,1.4141,1.1566,0.9135,0.6442,0.0,0.4084,0.2807,0.1513,0.0296,0.0,-0.0557,-0.1701,-0.3665,-0.4895,-0.4991,-0.7285,-0.9033,-0.9899,-1.1198,-1.2352,-1.329,-1.4513,-1.7635,-2.2705,0.0,0.0,0.0,0.0,0.0,0.0,0.0,0.0,0.0,0.0,0.0,0.0,0.0,0.0,0.0,0.0,0.0,0.0,0.0,0.0,0.0,2.7884,3.01,3.0025,3.1513,3.2702,3.2938,3.3477,3.3491,3.2672,3.296,3.2439,3.0592,2.8759,2.6369,2.3263,2.0561,1.7932,1.5325,1.4329,1.3047,1.1439,1.2123,1.2324,1.2006,1.2807,1.3271,1.3474,1.4268,1.4709,1.4916,1.5421,1.5993,1.6782,1.8952,2.009,2.0774,2.4162,2.5418,2.5323,2.5462,2.3879,2.1369,1.907,1.9101,2.0221,2.058,2.1526,2.2794,2.4196,2.4931,2.5361,2.58,2.5571,2.461,2.2002,2.1297,2.1047,2.0153,1.9926,1.9896,1.9745,1.9475,1.8886,1.7659,1.705,1.675,1.6747,1.5536,1.4086,1.2654,1.0826,0.0,0.6774,0.4893,0.3281,0.2194,0.0519,-0.074,-0.125,-0.2507,-0.3146,-0.2985,-0.4244,-0.5476,-0.6587,-0.8584,-1.1593,-1.5674,-1.7464,-1.9906,0.0,0.0,0.0,0.0,0.0,0.0,0.0,0.0,0.0,0.0,0.0,0.0,0.0,0.0,0.0,0.0,0.0,0.0,0.0,0.0,0.0,0.0,2.9565,3.1272,3.0591,3.1329,3.209,3.2596,3.1916,3.1421,3.1484,3.1007,3.0195,2.9002,2.7478,2.5469,2.287,2.0614,1.8256,1.5769,1.4519,1.3306,1.2069,1.2423,1.2538,1.2382,1.2916,1.3185,1.3246,1.3665,1.4085,1.4563,1.4706,1.5488,1.6794,1.8842,1.9905,0.0,0.0,0.0,0.0,0.0,2.2748,2.1336,1.9431,1.9479,2.0499,2.0913,2.1514,2.2314,2.3656,2.3683,2.3316,2.3612,2.3103,2.1985,1.9875,1.9438,1.939,1.8728,1.8689,1.8748,1.8647,1.8299,1.7822,1.716,1.5637,0.0,1.5798,1.4571,1.2896,1.1246,0.9769,0.8095,0.5988,0.4293,0.2941,0.2138,0.0785,-0.0255,-0.0802,-0.1478,0.0,0.0,0.0,-0.367,-0.5349,-0.7754,0.0,0.0,0.0,-2.0389,-2.4743,0.0,0.0,0.0,-2.5786,-1.9982,0.0,0.0,0.0,0.0,0.0,0.0,0.0,0.0,0.0,0.0,0.0,0.0,0.0,0.0,0.0,0.0,3.1288,3.1873,2.924,2.9503,2.9955,2.9919,2.9316,2.8904,2.8925,2.8891,2.8207,2.6568,2.6179,2.493,2.2427,2.0565,0.0,0.0,0.0,1.2817,1.2284,1.2554,1.2522,1.2195,1.3334,1.3493,1.2799,1.2816,1.327,1.4024,1.3484,1.4397,1.639,1.7828,1.9012,2.0209,2.2888,2.3666,2.32,2.2253,2.2064,2.2077,2.0954,0.0,0.0,2.174,2.2135,2.2542,2.3713,2.3048,2.1817,2.1378,2.0216,1.8815,1.7605,1.7341,1.7272,1.6823,1.7197,1.7654,1.7602,1.6657,1.6037,1.6705,1.4573,1.3076,1.4351,1.2588,1.0212,0.7912,0.6601,0.5375,0.3988,0.2821,0.193,0.1439,0.0,0.0,-0.0223,-0.0577,-0.1237,-0.2247,-0.2052,-0.2921,-0.5214,-0.7544,-1.0105,-1.3035,-1.5286,-1.9812,-2.6605,-2.8223,-3.0883,-3.4315,-2.7756,-2.2726,0.0,0.0,0.0,0.0,0.0,0.0,0.0,0.0,0.0,0.0,0.0,0.0,0.0,0.0,0.0,3.0416,3.131,3.1164,2.8485,2.766,2.7062,2.6308,2.6742,2.6819,2.6076,2.7292,2.7373,2.5605,2.4825,2.3429,2.1085,1.9197,1.7869,1.7193,1.5627,1.4562,1.4024,1.3918,1.3259,1.2046,0.0,0.0,1.1569,1.2036,1.2584,1.3177,1.341,1.4285,1.5582,1.6363,1.763,1.9307,2.1831,2.2539,2.1952,2.0675,2.0144,2.0007,1.9335,1.9333,1.9808,2.0929,2.1828,2.2479,2.2588,2.2596,0.0,2.1779,2.1301,2.0381,1.7817,1.7283,1.707,1.5759,1.5796,1.6167,1.6307,1.6465,1.6336,1.5418,1.4707,1.4143,1.3794,1.322,1.2424,1.1291,1.0464,0.925,0.7279,0.5574,0.4328,0.387,0.198,0.0774,0.0885,-0.0044,-0.0644,-0.0601,-0.0689,-0.1572,-0.3486,-0.474,-0.7817,-1.3095,-1.5439,-1.9781,-2.6142,-2.8417,-3.0149,-3.1205,-2.755,-2.4155,0.0,0.0,0.0,0.0,0.0,0.0,0.0,0.0,0.0,0.0,0.0,3.1129,3.2363,0.0,3.1766,3.1676,3.1622,3.0614,2.7812,2.6738,2.5843,2.4725,2.5014,2.5081,2.4502,2.5206,2.5271,2.4258,2.3699,2.251,2.0457,1.8812,1.7718,1.7222,1.5639,1.4787,1.4705,1.4378,1.3718,1.2761,1.3174,1.283,1.1808,1.1429,1.183,1.2765,1.2143,1.297,1.4862,1.6194,1.7566,1.894,1.9957,2.0586,2.0835,1.9899,1.9493,1.9467,1.9504,1.9505,1.9722,2.1022,2.1789,2.2231,2.2407,2.1906,2.1087,2.0121,1.9488,1.8596,1.6458,1.6299,1.6457,1.5488,1.5445,1.5663,1.5904,1.6206,1.6292,1.5748,1.5145,1.4596,1.4251,1.3615,1.2856,1.1992,1.1042,0.9763,0.7883,0.6281,0.5026,0.4288,0.2725,0.1694,0.1504,0.068,0.0377,0.0852,0.053,-0.0489,-0.2158,-0.2707,-0.4976,-0.9287,-1.255,-1.7081,-2.2951,-2.4911,-2.6063,-2.6426,-2.3535,-2.1137,0.0,0.0,0.0,0.0,0.0,0.0,0.0,3.2778,3.3161,3.4263,3.3862,3.3632,3.4613,3.3394,3.2289,3.2391,3.1494,2.9899,2.7342,2.6253,2.5286,2.4117,2.3762,2.3564,2.3396,2.3434,2.3303,2.2949,2.283,2.1934,2.0043,1.865,1.7628,1.6931,1.5227,1.4495,1.4869,1.4448,1.3861,1.3182,1.3513,1.3086,1.2028,1.0981,1.1222,1.2334,1.1105,1.1872,1.4139,1.6092,1.7338,1.8001,1.7684,1.8243,1.9212,1.8956,1.8775,1.8779,1.948,1.9532,1.9569,2.0938,2.1451,2.1651,2.2165,2.1151,1.9608,1.8673,1.7891,1.7009,1.5584,1.5768,1.6166,1.5605,1.5567,1.5694,1.5826,1.5959,1.6085,1.6243,1.5393,1.4673,1.4815,1.3863,1.2743,1.1673,1.0677,0.9449,0.7757,0.6359,0.5216,0.4433,0.3396,0.2537,0.1927,0.1304,0.121,0.1808,0.1296,0.0368,-0.0995,-0.1254,-0.263,-0.5266,-0.8889,-1.3233,-1.8349,-1.9513,-2.0155,-2.0289,-1.7336,-1.5955,2.2574,2.4134,2.6386,2.9053,3.0521,3.235,0.0,3.7353,3.7686,3.8838,3.8329,3.724,3.5759,3.4587,3.3301,3.1634,3.0034,2.8586,2.7425,2.5996,2.4803,2.4018,2.2969,2.2304,2.2281,2.2903,2.294,2.2043,2.2355,2.1653,1.9425,1.8031,1.7089,1.6648,1.5114,1.444,1.4815,1.4415,1.35,1.207,1.2519,1.208,1.0908,1.0924,1.1075,1.1318,1.2016,1.2707,1.3421,1.4777,1.5155,1.4937,1.5127,1.564,1.6323,1.6691,1.6516,1.6264,1.7195,1.7761,1.8227,1.9512,2.0094,2.0401,2.0859,2.0442,1.9794,1.9854,1.974,1.9236,1.7546,1.7255,1.7113,1.5948,1.595,1.6108,1.5716,1.5747,1.5775,1.5564,1.4936,1.4456,1.4527,1.3996,1.2989,1.1474,1.1067,1.0253,0.8362,0.6833,0.592,0.5845,0.4038,0.2614,0.2195,0.147,0.1259,0.1711,0.1266,0.0761,0.0203,-0.0508,-0.1946,-0.4206,-0.6285,-0.916,-1.289,-1.302,-1.2826,-1.2241,-0.9331,-0.96,2.5837,2.7923,2.9891,3.1599,3.3589,3.5763,3.8182,3.8412,3.8552,4.018,3.8983,3.739,3.6573,3.4797,3.2795,3.0765,2.9437,2.8045,2.6321,2.522,2.4396,2.3906,2.2781,2.2107,2.2262,2.2301,2.1985,2.1149,2.1061,2.0321,1.8697,1.7455,1.6511,1.5859,1.4877,1.429,1.416,1.4232,1.3709,1.2649,1.2871,1.2326,1.1211,1.0954,1.0797,1.0813,1.274,1.3665,1.3898,1.5457,1.6006,1.5867,1.548,1.566,1.6121,1.5765,1.5654,1.5806,1.6635,1.7011,1.7444,1.9147,1.9849,2.0195,2.0973,2.1039,2.0695,1.9859,1.9809,1.9638,1.8004,1.7658,1.7518,1.6803,1.6285,1.5984,1.6101,1.6279,1.6182,1.5278,1.5306,1.519,1.42,1.3742,1.2874,1.0956,1.0323,0.9568,0.8243,0.6481,0.5093,0.4431,0.3185,0.2245,0.1939,0.1496,0.1296,0.146,0.13,0.0682,-0.0487,-0.0845,-0.1814,-0.3408,-0.4223,-0.5714,-0.7872,-0.8468,-0.837,-0.7571,-0.4903,-0.3904,2.7978,3.0075,3.1588,3.2899,3.5277,3.7513,3.835,3.854,3.8812,3.9769,3.8825,3.7464,3.6195,3.4525,3.2593,3.0251,2.9125,2.7949,2.6236,2.5205,2.4672,2.4781,2.347,2.2716,2.316,2.2314,2.1428,2.0735,2.0241,1.9454,1.8188,1.6827,1.5801,1.5081,1.4173,1.367,1.3596,1.3576,1.3272,1.2754,1.2758,1.2241,1.1275,1.1055,1.1051,1.1293,1.3576,1.4653,1.4967,1.6388,1.701,1.6969,1.6128,1.587,1.5913,1.5335,1.5405,1.5866,1.6167,1.6445,1.6923,1.8657,1.928,1.956,2.0831,2.0993,2.0602,1.9672,1.9605,1.9496,1.8143,1.7887,1.7876,1.7533,1.6751,1.6201,1.6714,1.6954,1.6707,1.543,1.5699,1.5631,1.3987,1.3535,1.266,1.0575,0.9875,0.9142,0.8021,0.6203,0.447,0.3038,0.2505,0.2173,0.1929,0.1661,0.1389,0.1164,0.1244,0.0562,-0.1079,-0.1298,-0.1706,-0.2386,-0.2544,-0.3063,-0.3929,-0.4028,-0.3734,-0.2951,-0.0286,0.1703,2.7568,2.8841,3.0023,3.2256,3.4295,3.595,3.6704,3.8306,3.9215,3.7632,3.8598,3.8418,3.4116,3.3829,3.3285,3.0293,2.9025,2.831,2.805,2.6541,2.5912,2.715,2.5316,2.4256,2.5128,2.3272,2.1683,2.096,2.0453,1.9527,1.7983,1.6148,1.493,1.4422,1.2833,1.2411,1.3306,1.2211,1.1678,1.1653,1.1637,1.1233,1.0448,1.1214,1.2165,1.3174,1.4574,1.5672,1.6571,1.7213,1.7355,1.7122,1.6374,1.5618,1.498,1.5344,1.5726,1.6004,1.5443,1.5792,1.6691,1.7711,1.7855,1.7952,1.9927,1.968,1.8822,1.9576,1.9514,1.9049,1.8292,1.8245,1.8286,1.7957,1.7472,1.7158,1.7579,1.7629,1.7249,1.6098,1.5842,1.5357,1.3921,1.3365,1.2437,1.051,1.0195,0.9514,0.7757,0.6262,0.4608,0.2528,0.2544,0.2641,0.2472,0.2186,0.1614,0.076,0.0896,0.0404,-0.0945,-0.1576,-0.1573,-0.0988,-0.1214,-0.1422,-0.1519,0.0693,0.1995,0.2524,0.5677,0.7407,2.9098,3.0838,3.2469,3.4951,3.6115,3.6853,3.7674,3.8362,3.8848,3.886,3.7063,3.5019,3.3481,3.1975,3.0403,2.8624,2.8198,2.826,2.8816,2.7155,2.6336,2.7464,2.6654,2.5943,2.5791,2.356,2.1898,2.1333,2.0043,1.8859,1.7941,1.6207,1.4628,1.3308,1.266,1.2119,1.1583,1.1715,1.1653,1.1319,1.1253,1.1323,1.1627,1.2993,1.4087,1.5128,1.7256,1.7963,1.773,1.9169,1.905,1.7996,1.8063,1.813,1.8121,1.79,1.8377,1.8924,1.7246,1.7371,1.8414,1.9138,1.9508,1.9715,2.027,2.0225,1.9866,1.9187,1.9127,1.9083,1.8282,1.8112,1.8065,1.7826,1.702,1.6475,1.715,1.7033,1.6549,1.5666,1.5626,1.5206,1.357,1.3198,1.2318,1.0079,0.8867,0.785,0.6816,0.5768,0.434,0.2385,0.2264,0.2324,0.2409,0.179,0.1161,0.0595,0.0565,-0.0198,-0.179,-0.2135,-0.2135,-0.1842,-0.1962,-0.1418,-0.0218,0.1347,0.3131,0.5067,0.6305,0.7248,3.1088,3.2807,3.4175,3.6436,3.7079,3.718,3.7422,3.7976,3.8592,3.9161,3.7336,3.5234,3.3975,3.2333,3.0517,2.8461,2.83,2.8673,2.9357,2.7837,2.7123,2.8408,2.7772,2.7207,2.7225,2.5332,2.3539,2.2172,2.0385,1.8857,1.7684,1.6039,1.4379,1.2679,1.2295,1.1788,1.1019,1.1234,1.1394,1.1491,1.1804,1.2444,1.3454,1.5007,1.582,1.6157,1.8619,1.9079,1.8215,2.018,2.0254,1.917,1.9625,1.9626,1.9374,1.9635,2.0032,2.0193,1.873,1.8724,1.946,2.0053,2.0147,2.007,2.0335,2.007,1.9531,1.8621,1.8532,1.8542,1.7985,1.8076,1.8268,1.8145,1.7337,1.6668,1.7052,1.685,1.6325,1.5374,1.5533,1.536,1.3956,1.3018,1.1941,1.0236,0.8468,0.7008,0.6143,0.5404,0.4369,0.2841,0.2517,0.2444,0.2494,0.1915,0.1226,0.0486,-0.0382,-0.1301,-0.2259,-0.2721,-0.2746,-0.2379,-0.2184,-0.1451,-0.0163,0.1479,0.3372,0.537,0.6528,0.732,3.3239,3.4529,3.51,3.6687,3.7172,3.7021,3.6083,3.7294,3.8583,3.84,3.8951,3.8435,3.5052,3.4332,3.3161,2.9757,2.9365,2.957,2.9905,2.8694,2.8352,2.9917,2.8653,2.8099,2.9197,2.818,2.6293,2.3466,2.1558,1.9568,1.7416,1.5831,1.4237,1.2627,1.1822,1.149,1.1579,1.0829,1.0976,1.2008,1.3143,1.4327,1.5675,1.7148,1.7263,1.6482,1.8843,1.9225,1.8327,2.0355,2.09,2.0467,2.0941,2.0119,1.8859,2.0533,2.0666,2.0011,1.9883,1.9849,1.9922,2.0383,1.978,1.9081,2.0,1.9179,1.792,1.7942,1.7756,1.7512,1.7432,1.8157,1.8872,1.891,1.835,1.7727,1.737,1.7105,1.6563,1.531,1.5547,1.5717,1.4892,1.2902,1.1313,1.0908,0.8958,0.7082,0.5845,0.5343,0.4733,0.3834,0.3312,0.2912,0.2716,0.2421,0.1699,0.0347,-0.1749,-0.2756,-0.2387,-0.3191,-0.3301,-0.2536,-0.1885,-0.1431,-0.116,0.1341,0.3,0.393,0.6607,0.7798,3.3048,3.4987,3.6718,3.779,3.8073,3.7869,3.697,3.8633,3.9647,3.7085,3.5757,3.416,3.1286,3.0219,2.9965,3.0573,3.0525,3.1089,3.2947,3.0597,2.9015,2.9994,2.9062,2.8254,2.7998,2.745,2.6623,2.5351,2.3294,2.1402,1.9782,1.7596,1.5482,1.3531,1.3314,1.2547,1.1105,1.1287,1.165,1.2172,1.3623,1.4827,1.5836,1.8196,1.8961,1.8569,2.0965,2.1474,2.0698,2.1929,2.1726,2.0683,2.1416,2.1326,2.0883,2.1468,2.1781,2.191,2.1996,2.191,2.1693,2.1076,2.0722,2.0333,1.9313,1.8549,1.7973,1.76,1.7807,1.8079,1.7656,1.8812,1.9911,1.9281,1.8642,1.8241,1.8546,1.7233,1.6039,1.611,1.5651,1.5011,1.4336,1.3042,1.1746,1.0552,0.9023,0.7747,0.6975,0.5649,0.4635,0.4262,0.3588,0.3031,0.2742,0.2041,0.1111,-0.0069,-0.1178,-0.2235,-0.316,-0.327,-0.3197,-0.289,-0.2318,-0.165,-0.0884,0.1952,0.3796,0.4755,0.6543,0.7343,3.5251,3.6955,3.8232,3.8376,3.868,3.8404,3.6406,3.7367,3.7948,3.5331,3.4021,3.2785,3.0927,3.0457,3.0671,3.1689,3.1758,3.2219,3.3764,3.1445,2.9654,2.98,2.9151,2.8545,2.8101,2.8012,2.7681,2.7029,2.4886,2.2781,2.0839,1.9096,1.7173,1.4967,1.4302,1.3204,1.152,1.2365,1.3208,1.3964,1.5803,1.7087,1.7916,1.9759,2.0149,1.9469,2.118,2.1224,2.0178,2.1205,2.1227,2.0718,2.1317,2.1409,2.1249,2.1629,2.1665,2.164,2.221,2.2131,2.1752,2.1434,2.1094,2.055,1.9558,1.8865,1.8404,1.8117,1.8428,1.8729,1.8419,1.9412,2.0365,1.9807,1.9022,1.8499,1.8856,1.7506,1.6263,1.6437,1.6038,1.5335,1.4362,1.3665,1.2737,1.1188,0.9722,0.8477,0.7589,0.607,0.4936,0.4541,0.3601,0.2802,0.2234,0.1495,0.0522,-0.0735,-0.1477,-0.229,-0.334,-0.3364,-0.3243,-0.2955,-0.228,-0.1584,-0.0871,0.1606,0.3527,0.4894,0.6451,0.7501,3.8117,3.9117,3.9348,3.8575,3.8976,3.8766,3.5716,3.5546,3.5489,3.361,3.3175,3.2842,3.1893,3.2544,3.3161,3.3058,3.3109,3.3231,3.3425,3.1823,3.0349,2.9462,2.9036,2.8774,2.8595,2.8711,2.8592,2.798,2.6182,2.4037,2.1511,2.0515,1.8921,1.6439,1.4946,1.3609,1.2445,1.3621,1.4864,1.6154,1.8135,1.951,2.0332,2.1147,2.0808,1.9623,2.0593,2.0084,1.8677,1.9788,2.0354,2.0556,2.0835,2.0791,2.0622,2.1149,2.0898,2.0408,2.144,2.1371,2.0934,2.1436,2.1021,2.0307,2.0111,1.956,1.8993,1.9038,1.9244,1.9432,1.9367,2.0047,2.0709,2.0443,1.964,1.893,1.9019,1.8067,1.7075,1.6581,1.655,1.6198,1.48,1.4487,1.3844,1.2164,1.0627,0.9237,0.7951,0.647,0.5269,0.46,0.3434,0.2361,0.1495,0.0787,-0.0155,-0.1417,-0.2028,-0.2562,-0.3043,-0.3315,-0.3209,-0.2737,-0.195,-0.1319,-0.0845,0.0943,0.2741,0.4593,0.6229,0.7709,3.766,3.8403,3.8959,3.8385,3.8801,3.9069,3.7972,3.7747,3.6728,3.3005,3.228,3.1789,3.0107,3.1709,3.3602,3.4601,3.4962,3.4771,3.379,3.2679,3.1254,2.9372,2.8795,2.8236,2.7375,2.701,2.6774,2.6736,2.6819,2.5939,2.3807,2.2221,1.9931,1.6821,1.5337,1.4166,1.3226,1.3916,1.479,1.5798,1.7289,1.8435,1.9287,2.0548,2.0494,1.9546,2.1347,0.0,2.0184,2.1175,2.1025,2.0201,2.0183,2.0063,1.9893,1.9997,2.0276,2.0664,2.1036,2.0908,2.0557,2.0494,2.0506,2.0398,1.9607,1.9387,1.9394,1.9416,1.9787,2.0099,1.9602,2.0793,2.1959,2.1154,2.1059,2.1068,2.0888,1.983,1.8457,1.7084,1.7107,1.6889,1.5605,1.4914,1.394,1.2098,1.0893,0.9704,0.8428,0.6521,0.4969,0.4181,0.2935,0.185,0.1151,-0.003,-0.0915,-0.1396,-0.184,-0.215,-0.2364,-0.2521,-0.2365,-0.1837,-0.1511,-0.0937,-0.0081,0.1178,0.2509,0.3927,0.5691,0.6684,3.6962,3.7524,3.8377,3.7332,3.7738,3.7794,3.5435,3.5085,3.3989,2.9569,2.9036,2.9074,2.8165,2.9699,3.1738,3.3594,3.458,3.503,3.4716,3.3869,3.2649,3.0888,2.9592,2.8469,2.747,2.661,2.6109,2.5996,2.5848,2.539,2.4447,2.2606,2.0256,1.7316,1.6383,1.5426,1.4458,1.5388,1.6517,1.7792,1.871,1.9484,2.0041,2.0159,1.9921,1.9448,2.0255,2.007,1.9209,1.9812,1.9758,1.9251,1.923,1.9418,1.9656,1.9466,1.9597,1.9954,2.0356,2.0233,1.9945,2.0057,2.0133,2.0095,1.9728,1.9841,2.0069,2.0064,2.0633,2.1171,2.0911,2.153,2.2079,2.168,2.1424,2.1121,2.0648,1.9631,1.8485,1.7299,1.7108,1.6739,1.5491,1.5281,1.4666,1.2955,1.1954,1.0835,0.9223,0.7544,0.581,0.4034,0.2664,0.1501,0.055,-0.0472,-0.1251,-0.1676,-0.1899,-0.2118,-0.2394,-0.1795,-0.1336,-0.1084,-0.0097,0.0616,0.103,0.1974,0.3253,0.4802,0.5666,0.668,3.6475,3.626,3.6482,3.5305,3.5805,3.5764,3.2543,3.2197,3.1348,2.7025,2.6351,2.6637,2.6973,2.8055,2.9743,3.2359,3.3312,3.4109,3.5174,3.454,3.3598,3.2521,3.0896,2.9451,2.8467,2.7224,2.631,2.5913,2.5095,2.4497,2.4196,2.253,2.0377,1.7762,1.7273,1.6577,1.5568,1.6562,1.7777,1.9183,1.9667,2.0118,2.0457,1.9704,1.9304,1.9258,1.935,1.8812,1.7915,1.8538,1.8622,1.8395,1.8535,1.8996,1.9517,1.9243,1.9214,1.938,1.9841,1.9821,1.9663,1.998,1.9987,1.9928,1.9983,2.0288,2.0615,2.0605,2.1107,2.1671,2.1766,2.1712,2.1701,2.1936,2.161,2.1015,2.0068,1.9372,1.8596,1.7399,1.7081,1.6676,1.5678,1.5802,1.5605,1.425,1.3473,1.2318,1.035,0.8976,0.7141,0.4446,0.3018,0.1766,0.0531,-0.0159,-0.079,-0.1384,-0.1536,-0.1702,-0.1936,-0.0972,-0.0352,-0.0155,0.1204,0.2021,0.2302,0.2799,0.3958,0.5667,0.5847,0.6882,3.6636,3.4266,3.1846,3.1825,3.2627,3.3195,3.2349,3.2473,3.1831,2.8553,2.6723,2.6145,2.7538,2.8006,2.9253,3.2542,3.1698,3.15,3.4051,3.3778,3.3296,3.3354,3.2518,3.1546,3.06,2.8984,2.7656,2.6843,2.5877,2.4677,2.3224,2.2334,2.0662,1.8048,1.7505,1.6886,1.6125,1.6172,1.6641,1.7524,1.7821,1.8255,1.8806,1.8848,1.8846,1.8838,2.0096,1.9519,0.0,1.9467,1.9268,1.8026,1.8696,1.9002,1.907,1.9162,1.9432,1.9764,1.9931,2.0141,2.0302,2.0283,2.0255,2.0226,2.0046,2.0323,2.0688,2.0615,2.0558,2.0587,2.0783,2.0823,2.0992,2.1715,2.2191,2.2005,2.0416,2.0387,1.9953,1.7566,1.7441,1.7581,1.7143,1.6783,1.6362,1.5927,1.5461,1.428,1.1969,1.0595,0.8721,0.5999,0.4571,0.3255,0.1916,0.1469,0.1037,0.0474,-0.0,-0.0125,0.0213,0.0101,0.0439,0.1296,0.1463,0.224,0.363,0.3334,0.389,0.5285,0.6013,0.6841,3.0478,2.9554,2.9187,2.9077,3.0237,3.1076,2.9678,3.0283,3.0124,2.6547,2.5246,2.493,2.5569,2.5677,2.6296,2.8106,2.8972,3.0194,3.237,3.2665,3.3143,3.4488,3.3022,3.1658,3.1061,2.8717,2.6417,2.4392,2.3393,2.254,2.1778,2.1726,2.0536,1.7962,1.7271,1.6853,1.6622,1.6623,1.7205,1.8323,1.889,1.9264,1.9525,2.0029,2.0029,1.9718,2.0727,1.9662,0.0,1.9589,1.9273,1.755,1.8841,1.9357,1.9376,1.9518,1.9379,1.9154,1.9284,1.9084,1.8774,1.8731,1.8574,1.8486,1.9141,1.9417,1.956,1.9847,2.0371,2.0856,2.1016,2.1135,2.1247,2.1529,2.1369,2.0912,2.0035,1.9743,1.9177,1.7573,1.7518,1.7585,1.7079,1.6804,1.6536,1.6168,1.5693,1.4701,1.2747,1.1877,1.0555,0.8244,0.5668,0.3598,0.2291,0.2055,0.171,0.1049,0.1033,0.0846,0.0408,0.1565,0.2197,0.2222,0.3319,0.4257,0.5008,0.4631,0.5068,0.6224,0.6189,0.68,2.5711,2.4929,2.4944,2.5384,2.6746,2.7717,2.6549,2.784,2.8307,2.4956,2.3973,2.389,2.442,2.3642,2.3601,0.0,2.6825,2.8316,3.0854,3.1419,3.2424,3.4655,3.2943,3.1541,3.1404,2.8146,2.5344,2.3663,2.2507,2.1676,2.118,2.147,2.0466,1.7932,1.726,1.6967,1.7022,1.7038,1.7724,1.9097,1.9705,1.9885,1.9723,2.073,2.0716,1.9963,2.0804,1.9824,0.0,1.9541,1.9205,1.7681,1.9113,1.9676,1.9663,1.9555,1.9202,1.8748,1.8597,1.8143,1.7591,1.7565,1.7131,1.6812,1.7726,1.8018,1.82,1.8834,1.9847,2.0662,2.0514,2.0892,2.1291,2.1205,2.0916,2.0499,1.9846,1.9394,1.8817,1.7755,1.7712,1.7729,1.74,1.7239,1.7192,1.7279,1.6909,1.6139,1.4594,1.3775,1.2433,1.0127,0.7209,0.4914,0.3594,0.3232,0.2779,0.2137,0.2102,0.1869,0.1355,0.2772,0.3486,0.3251,0.4694,0.5571,0.5823,0.5561,0.5855,0.6638,0.6386,0.6888,2.4058,2.0967,1.8144,2.0261,2.1578,2.2588,2.3287,2.5562,2.6886,2.4663,2.3364,2.3169,2.4955,2.2479,2.1799,2.6836,2.5646,2.5521,2.9716,3.0095,3.0895,3.3505,3.2393,3.1585,3.2046,2.7618,2.507,2.5906,2.4417,2.299,2.1861,2.1737,2.0554,1.807,1.766,1.7423,1.7298,1.7156,1.7837,1.9301,1.9579,1.936,1.877,2.0445,2.0407,1.9068,2.0142,2.0189,0.0,1.9499,1.9139,1.8677,1.9479,1.9844,1.981,1.9073,1.8846,1.877,1.7995,1.7581,1.7377,1.7245,1.6433,1.5567,1.585,1.6217,1.672,1.7651,1.8781,1.9532,1.8739,1.9713,2.0867,2.0745,2.1269,2.1402,1.9996,1.9816,1.9491,1.8151,1.8065,1.8289,1.8535,1.8419,1.8683,1.9886,1.9817,1.9211,1.7983,1.6492,1.4399,1.1327,0.9402,0.7792,0.637,0.5403,0.4686,0.4194,0.3286,0.3072,0.3745,0.3594,0.3851,0.4555,0.5052,0.5488,0.5912,0.5827,0.5865,0.6035,0.6614,0.711,1.935,1.836,1.7612,1.9043,2.0669,2.1997,2.2353,2.4251,2.5444,2.3728,2.3552,2.3854,2.4375,2.3088,2.3007,2.6278,2.5619,2.6026,2.9905,3.0295,3.0748,3.2329,3.1653,3.062,2.9547,2.5779,2.3371,2.3276,2.1129,1.989,2.008,2.0067,1.9666,1.878,1.8121,1.7652,1.7448,1.7288,1.7923,1.933,2.064,2.0628,1.9556,2.2623,2.2282,1.9394,2.1513,2.1067,1.8933,2.0191,1.9855,1.8647,1.9713,2.0002,1.982,1.9724,1.8929,1.7832,1.7538,1.6629,1.5591,1.5367,1.4946,1.4535,1.4491,1.4869,1.5561,1.6703,1.7399,1.7789,1.7807,1.8542,1.9251,1.9207,1.916,1.8966,1.8324,1.8271,1.82,1.7773,1.8393,1.898,1.9056,1.895,1.8929,1.9172,1.9264,1.913,1.8706,1.7658,1.626,1.4415,1.2246,0.9742,0.6754,0.6157,0.5855,0.5643,0.5483,0.5219,0.4772,0.5226,0.5263,0.4821,0.5356,0.5831,0.616,0.6,0.6228,0.6816,0.6936,0.7192,1.5569,1.5593,1.6016,1.7326,1.8932,2.0438,2.1554,2.2797,2.3688,2.3494,2.3729,2.4082,2.4455,2.3727,2.3785,2.5984,2.6136,2.6977,2.987,3.0226,3.0161,3.0125,2.9728,2.8863,2.7364,2.4041,2.178,2.1334,1.9423,1.8538,1.9129,1.9552,1.9651,1.9369,1.8435,1.7894,1.7803,1.7825,1.8525,1.9907,2.1441,2.1396,2.0082,2.3086,2.2643,1.9592,2.1865,2.1737,0.0,2.0888,2.0579,1.9606,2.0108,2.0153,1.9925,1.972,1.8922,1.7871,1.7468,1.6419,1.5234,1.5407,1.5062,1.4459,1.3746,1.4214,1.5046,1.555,1.6392,1.712,1.7083,1.7642,1.8194,1.8132,1.7905,1.772,1.7724,1.7537,1.755,1.813,1.8592,1.8998,1.9342,1.9555,1.9752,2.0045,2.0108,2.0283,2.0623,1.9054,1.7457,1.6277,1.3729,1.0966,0.8209,0.7427,0.6963,0.6605,0.6783,0.6618,0.5929,0.6392,0.6443,0.5961,0.634,0.6522,0.6482,0.6121,0.618,0.67,0.6895,0.7164,0.0,1.3021,1.3668,1.5436,1.6708,1.8248,2.0789,2.1341,0.0,2.3876,2.3986,2.4075,2.5244,2.4537,2.4379,2.6181,2.7157,2.8218,2.9853,3.0075,2.9377,2.7584,2.7182,2.6666,2.5611,2.2502,2.0425,2.0082,1.9076,1.8575,1.8762,1.977,2.0135,1.9652,1.8485,1.8004,1.8217,1.8495,1.928,2.0592,2.1755,2.151,2.0126,2.2165,2.1776,0.0,2.1278,2.2042,2.2053,2.1379,2.1141,2.1139,2.0535,2.0253,2.0079,1.9273,1.8885,1.864,1.7785,1.683,1.6113,1.681,1.6257,1.5013,1.3531,1.4018,1.497,1.436,1.5671,1.7123,1.6471,1.6957,1.7586,1.753,1.7462,1.7526,1.8025,1.7596,1.7527,1.8989,1.8803,1.8702,1.9587,2.0314,2.1091,2.2099,2.2083,2.2324,2.3327,2.0653,1.8232,1.7173,1.4248,1.181,1.0465,0.9161,0.8049,0.7241,0.7442,0.7507,0.7281,0.7261,0.7416,0.7744,0.7766,0.7427,0.6733,0.6124,0.5854,0.5945,0.6593,0.7101,1.2169,0.0,1.4281,1.5941,1.6904,1.792,0.0,2.0842,2.2204,2.4559,2.5011,2.56,2.765,2.7214,2.7115,2.884,2.8692,2.9153,3.141,3.1054,3.0133,2.9097,2.7625,2.6154,2.4742,2.1934,2.0077,1.9748,1.8305,1.7452,1.7436,1.7708,1.7893,1.7944,1.7301,1.709,1.738,1.7711,1.7761,1.7575,2.0182,2.0126,1.7876,2.1377,2.1336,1.8642,2.0354,2.0755,2.0155,2.0151,2.0176,2.0237,2.0225,2.0087,1.9899,1.9846,1.9269,1.8463,1.8294,1.7682,1.681,1.5823,1.4913,1.3996,1.3069,1.3413,1.4132,1.4116,1.4607,1.516,1.5353,1.604,1.6872,1.7495,1.7453,1.7463,1.824,1.8231,1.8231,1.8739,1.983,2.0757,2.1065,2.1812,2.2436,2.263,2.2705,2.3005,2.3765,2.2231,2.0483,1.8909,1.6503,1.4126,1.1987,1.0353,0.9321,0.9023,0.9385,0.94,0.8954,0.8927,0.8739,0.8326,0.772,0.7023,0.6257,0.5987,0.6033,0.6363,0.6626,0.7262,1.3493,1.3921,1.4418,1.59,1.7084,1.8335,2.0001,2.0724,2.1906,2.4955,2.5111,2.5513,2.8145,2.8354,2.8646,3.0307,3.05,3.0869,3.2128,3.113,2.9777,2.8409,2.6023,2.4152,2.3242,2.077,1.8812,1.7749,1.6376,1.5503,1.5323,1.5689,1.6013,1.6284,1.6147,1.6389,1.7042,1.7958,1.7775,1.6632,1.9584,1.969,1.7355,1.9957,2.0155,1.8463,1.9263,1.9991,2.0641,2.038,2.0589,2.1089,2.1147,2.0855,2.0417,2.0486,2.004,1.9351,1.8987,1.8469,1.7665,1.5924,1.5292,1.502,1.3916,1.3822,1.4056,1.3949,1.415,1.4503,1.4935,1.5766,1.6593,1.7016,1.7512,1.8236,1.9477,1.9597,1.9762,2.082,2.1519,2.1834,2.1645,2.2647,2.3368,2.2958,2.3213,2.3717,2.4416,2.2747,2.105,1.9929,1.7238,1.4987,1.3645,1.1482,1.0181,1.0058,1.0294,1.0245,0.9805,0.9833,0.9672,0.9279,0.8166,0.7318,0.6822,0.603,0.5609,0.5611,0.6582,0.7305,1.5522,1.5193,1.4969,1.6256,1.7599,1.9059,2.09,2.0842,2.156,2.5531,2.5337,2.5451,2.8716,2.9742,3.0475,3.1683,3.2787,3.3386,3.3128,3.1694,2.9832,2.7512,2.4572,2.2483,2.1748,1.9591,1.7448,1.5619,1.4265,1.3374,1.3023,1.3673,1.4188,1.4561,1.5091,1.5867,1.692,1.8222,1.811,1.6681,1.9241,1.9433,1.7506,1.8519,1.8923,1.8839,0.0,0.0,2.1943,2.1171,2.1413,2.2274,2.2057,2.1493,2.0784,2.0765,2.0564,2.0194,1.9472,1.8919,1.8231,1.6554,1.6378,1.6513,1.5038,1.4556,1.4469,1.4086,1.4275,1.4707,1.5274,1.6196,1.6983,1.7021,1.8203,1.9734,2.1263,2.1444,2.1808,2.3472,2.3398,2.2824,2.2129,2.3452,2.4323,2.3521,2.3856,2.4419,2.4985,2.2849,2.1043,2.0389,1.7396,1.5314,1.4975,1.2477,1.0945,1.1009,1.0783,1.0559,1.0352,1.034,1.029,1.0224,0.8584,0.7571,0.7248,0.578,0.484,0.4352,0.631,0.7228,1.6331,1.7112,1.7975,1.904,1.9157,1.9503,2.1372,2.1118,2.201,2.7338,2.7635,2.839,3.3192,3.5077,3.5605,3.4675,3.6195,3.7303,3.6711,3.5522,3.3331,2.9625,2.7472,2.4957,2.1456,1.9457,1.7662,1.5948,1.362,1.2091,1.1613,1.156,1.1894,1.2593,1.4373,1.5731,1.6574,1.6863,1.6775,1.6395,1.7871,1.8007,1.6967,1.7957,1.8831,1.9566,0.0,2.0828,2.2035,2.135,2.1187,2.134,2.0689,1.9976,1.9372,1.9633,1.9338,1.8843,1.8924,1.8371,1.7524,1.7117,1.6677,1.6079,1.4881,1.4826,1.5178,1.528,1.5388,1.5792,1.6975,1.7995,1.8905,1.9682,2.1054,2.2393,2.3218,2.3798,2.4113,2.3846,2.4749,2.5182,2.4086,2.5278,2.6132,2.5323,2.5138,2.5066,2.4962,2.3514,2.1843,2.0073,1.8225,1.6443,1.4809,1.302,1.2217,1.2839,1.1605,1.1024,1.1434,1.0758,1.0362,1.0353,0.8193,0.6444,0.5172,0.4512,0.3924,0.3459,0.5469,0.6739,1.7988,1.8887,2.0288,2.2305,2.1299,2.0795,2.4607,2.3232,2.2867,2.8902,2.8196,2.811,3.3502,3.5476,3.6728,3.8078,3.986,4.0395,3.8353,3.6244,3.4222,3.231,2.972,2.6911,2.3942,2.1714,1.8897,1.5107,1.2695,1.058,0.8636,0.8988,0.986,1.1284,1.3302,1.5017,1.6426,1.6839,1.6831,1.6418,1.8151,1.8024,1.6353,1.7352,1.8533,1.9712,0.0,2.0152,2.2817,2.1562,2.1343,2.1798,2.1782,2.091,1.9699,2.0152,1.9867,1.927,1.9306,1.9169,1.8781,1.7624,1.7202,1.693,1.5984,1.6088,1.6822,1.819,1.7658,1.6931,1.8072,1.9454,2.0772,2.1601,2.2965,2.4455,2.5735,2.614,2.6361,2.6652,2.6533,2.609,2.5153,2.5577,2.5873,2.539,2.5461,2.5463,2.5155,2.3879,2.2178,1.9974,1.7897,1.6368,1.5576,1.3493,1.2059,1.1701,1.1481,1.1346,1.1267,1.0469,0.9859,0.9522,0.7462,0.5831,0.4733,0.3684,0.3288,0.3457,0.4867,0.573,1.941,2.005,2.1503,2.4211,2.2601,2.1908,2.7866,2.5466,2.4029,3.1331,3.0007,2.9209,3.4811,3.6305,3.7677,4.0636,4.258,4.2969,4.0762,3.8465,3.6765,3.6117,3.2735,2.9549,2.7177,2.4275,2.0415,1.5283,1.2697,0.984,0.6355,0.6964,0.8085,0.9487,1.1847,1.4011,1.6007,1.6876,1.7225,1.707,1.87,1.8457,1.6563,1.7417,1.865,2.0043,1.857,2.0209,2.3819,2.2049,2.1794,2.247,2.2248,2.1297,2.0156,2.069,2.0624,2.0152,1.985,1.9878,1.9734,1.7903,1.7494,1.7593,1.6813,1.7029,1.8021,2.037,1.9788,1.8689,1.9807,2.1385,2.2838,2.3393,2.4717,2.6197,2.7466,2.7387,2.7247,2.7824,2.7023,2.6015,2.5252,2.5387,2.5505,2.5284,2.5294,2.5239,2.4955,2.3371,2.155,1.9574,1.7275,1.5775,1.5563,1.374,1.1961,1.0425,1.1173,1.1468,1.0915,0.9915,0.9139,0.859,0.6325,0.4807,0.4042,0.2595,0.2163,0.271,0.3801,0.45,1.985,2.0137,2.0956,2.3101,2.1913,2.2176,2.9677,2.689,2.5579,3.5646,3.5286,3.4852,4.0246,4.0747,4.0572,4.1239,4.3243,4.4992,4.581,4.5258,4.3944,4.1711,3.7692,3.378,3.0401,2.6133,2.1972,1.8097,1.468,1.0806,0.6357,0.6396,0.6525,0.643,0.9944,1.2839,1.4879,1.6393,1.7639,1.8639,1.8976,1.8927,1.8507,1.8842,1.9759,2.1098,2.1219,2.268,2.4847,2.3039,2.2596,2.2788,2.0142,1.9378,1.9807,2.041,2.083,2.0987,2.0168,1.9603,1.9065,1.7715,1.7261,1.7117,1.6449,1.6744,1.7826,2.017,2.1007,2.1603,2.3212,2.4477,2.534,2.5386,2.6621,2.7693,2.7323,2.6502,2.5508,2.4404,2.4741,2.4898,2.3913,2.5077,2.6028,2.5709,2.4684,2.3912,2.3837,2.1329,1.9286,1.8498,1.668,1.491,1.3367,1.365,1.2891,1.0541,1.1027,1.1261,1.0911,0.9274,0.8248,0.7962,0.4719,0.265,0.1831,0.0706,0.0092,-0.0089,0.1731,0.3031,1.9355,1.9648,2.0967,2.414,2.1575,2.0817,3.0562,2.906,2.8013,3.6508,3.6189,3.515,3.7716,4.1092,4.3188,4.2184,4.4837,4.6708,4.5676,4.4682,4.3343,4.1251,3.8685,3.5547,3.1605,2.8737,2.4974,1.9797,1.5945,1.2351,0.8947,0.8148,0.8604,1.0321,1.2928,1.5241,1.7211,1.8575,1.9345,1.9476,1.9404,1.9338,1.9297,2.0206,2.1241,2.2367,2.2095,2.3472,2.5753,2.3857,2.3671,2.4412,2.2464,2.2004,2.2465,2.33,2.3749,2.3762,2.2191,2.1812,2.148,1.8325,1.7616,1.7789,1.6622,1.7272,1.8824,2.0806,2.2317,2.3589,2.4572,2.5103,2.5554,2.6089,2.673,2.7225,2.7366,2.6533,2.5703,2.5515,2.4506,2.3917,2.4708,2.4266,2.4008,2.4526,2.3537,2.2462,2.1676,1.9557,1.7581,1.6197,1.4443,1.3123,1.2433,1.2513,1.2235,1.1331,1.1206,1.0636,0.9466,0.8181,0.7107,0.629,0.3998,0.2381,0.1516,0.0,-0.0453,0.0178,0.0887,0.1837,1.9076,1.9204,2.055,2.378,2.0842,1.9987,3.0945,2.9926,2.8832,3.6453,3.6971,3.6198,3.6619,4.02,4.2821,4.2055,4.4568,4.6158,4.4918,4.4357,4.3381,4.1542,3.9845,3.7253,3.3267,3.0309,2.6612,2.1608,1.8009,1.479,1.1931,1.1338,1.1776,1.3361,1.5426,1.7228,1.8723,2.0136,2.0696,2.0448,2.0883,2.0721,2.0092,2.1498,2.263,2.3496,2.3603,2.4818,2.6593,2.5437,2.519,2.5518,2.5145,2.5059,2.5282,2.6283,2.6687,2.6469,2.4721,2.3768,2.2736,1.9121,1.7856,1.7513,1.6339,1.7033,1.8697,2.1015,2.2465,2.37,2.539,2.6111,2.645,2.6598,2.676,2.6947,2.7166,2.6003,2.4898,2.4782,2.3638,2.2852,2.3439,2.3003,2.2647,2.2911,2.21,2.0957,1.9553,1.7904,1.6133,1.4183,1.2716,1.1807,1.1651,1.1684,1.1531,1.1086,1.0704,0.989,0.8587,0.7375,0.6126,0.4833,0.3098,0.1766,0.0886,-0.0711,-0.1214,-0.0658,-0.0275,0.0667,1.9209,1.8935,1.9538,2.1505,1.9591,2.002,3.0749,2.9113,2.7628,3.5706,3.8187,3.8755,3.8235,3.8351,3.8989,4.0585,4.183,4.3034,4.4246,4.5247,4.5168,4.3433,4.1647,3.9148,3.5705,3.0571,2.6352,2.3644,2.1069,1.8209,1.4956,1.5841,1.5777,1.4395,1.663,1.8163,1.8848,2.051,2.1456,2.1657,2.36,2.3298,2.1104,2.2776,2.3821,2.4426,2.6097,2.7022,2.7371,2.7904,2.7172,2.5906,2.7574,2.8033,2.7881,2.9025,2.9238,2.8774,2.7623,2.5178,2.2191,2.0114,1.7909,1.6004,1.5477,1.5779,1.7051,2.0575,2.1145,2.17,2.5894,2.7892,2.8425,2.7045,2.7001,2.7172,2.6697,2.4697,2.2614,2.1269,2.1744,2.1663,1.9477,2.1173,2.2385,2.1072,2.0413,1.9391,1.7572,1.6338,1.4809,1.2627,1.174,1.1185,1.0926,1.133,1.0984,0.9571,0.9357,0.909,0.8593,0.6954,0.5358,0.3804,0.1841,0.0393,-0.037,-0.1533,-0.2462,-0.3139,-0.1925,-0.0428,1.8956,1.7904,1.7736,2.0532,1.9767,1.9611,2.458,2.6803,2.9123,3.3775,3.3675,3.276,3.2648,3.5536,3.7932,3.7911,4.0311,4.1971,4.1342,4.1539,4.0841,3.8469,3.6932,3.5047,3.2278,2.9601,2.7167,2.5243,2.268,2.095,2.0374,1.9278,1.8965,1.9708,2.0557,2.1523,2.2525,2.3528,2.403,2.4011,2.5431,2.5416,2.4133,2.5862,2.682,2.7177,2.8234,2.9102,2.9814,3.0241,2.9821,2.898,3.0051,3.0658,3.1072,3.2172,3.2201,3.1539,3.0399,2.7876,2.4723,2.2098,1.9339,1.6908,1.6078,1.6472,1.7561,1.8892,2.1138,2.3375,2.4626,2.6695,2.8165,2.7102,2.656,2.6252,2.5964,2.4345,2.2546,2.1309,2.0218,1.9324,1.8705,1.8495,1.8355,1.817,1.7206,1.5688,1.3395,1.2807,1.2064,1.0732,1.0826,1.0814,1.0222,1.0609,1.0526,0.962,0.8806,0.7729,0.6412,0.555,0.4377,0.2859,0.1528,0.0649,0.0255,-0.118,-0.1748,-0.1472,-0.0574,0.0879,2.0211,1.9843,2.023,2.3842,2.2557,2.0801,2.23,2.4792,2.758,3.0576,3.0197,2.957,3.0279,3.3328,3.5873,3.6344,3.8069,3.8887,3.7503,3.7487,3.6757,3.449,3.3711,3.2421,2.9988,2.8088,2.6442,2.511,2.344,2.2732,2.3406,2.2721,2.2764,2.3732,2.3627,2.3806,2.4368,2.5227,2.5483,2.5135,2.6522,2.6922,2.6465,2.7747,2.837,2.8573,3.0034,3.1318,3.2354,3.18,3.1473,3.1376,3.1501,3.1846,3.2353,3.3058,3.2871,3.2185,3.1659,2.897,2.5361,2.301,2.0102,1.7186,1.5583,1.6002,1.7212,1.7942,2.0568,2.3401,2.4413,2.6127,2.7384,2.6658,2.6536,2.6346,2.5502,2.4239,2.2781,2.1112,1.9656,1.8344,1.726,1.6785,1.6345,1.5648,1.4484,1.3119,1.1597,1.091,1.0335,0.9753,1.0031,1.0092,0.9681,1.0191,1.0106,0.9054,0.8491,0.7298,0.5293,0.4874,0.3992,0.2415,0.1721,0.102,0.0315,-0.0759,-0.0701,0.0355,0.0947,0.2055,2.2668,2.3519,2.4927,2.8988,2.6281,2.2746,2.3267,2.3343,2.4003,2.6608,2.7304,2.8031,2.9838,3.1191,3.277,3.5001,3.5098,3.4431,3.3119,3.3332,3.3036,3.1447,3.1483,3.0742,2.8404,2.6174,2.4564,2.3789,2.3425,2.3631,2.449,2.5661,2.6316,2.6312,2.5562,2.5029,2.489,2.5761,2.5862,2.5253,2.687,2.7646,2.7732,2.8473,2.8899,2.9177,3.1487,3.3276,3.4414,3.2519,3.2189,3.277,3.1908,3.1734,3.1994,3.2166,3.1824,3.1366,3.1742,2.8855,2.4708,2.3152,2.0246,1.6936,1.4535,1.492,1.6418,1.7555,1.9778,2.2353,2.4792,2.5872,2.6218,2.593,2.6721,2.7087,2.5427,2.4427,2.3103,2.0752,1.9647,1.8189,1.5462,1.5715,1.5557,1.345,1.2282,1.157,1.1472,1.0339,0.9549,0.9505,0.9509,0.9462,0.9416,0.9951,0.9699,0.8237,0.8383,0.7459,0.5148,0.4797,0.3986,0.2513,0.2232,0.1477,0.0169,-0.0163,0.0542,0.2169,0.2368,0.3161,2.5612,2.4132,2.259,2.4962,2.3291,2.2139,2.6208,2.4175,2.1996,2.398,2.3415,2.3484,2.6462,2.704,2.7832,3.0129,3.0766,3.069,2.9763,3.029,3.0389,2.9404,2.8666,2.7606,2.5942,2.4323,2.3374,2.3393,2.3054,2.3392,2.4678,2.5179,2.5511,2.5681,2.4523,2.4397,2.5509,2.4846,2.461,2.4847,2.5675,2.5917,2.5733,2.7947,2.971,3.108,3.2553,3.2956,3.2539,3.1805,3.1279,3.0831,3.0177,3.0006,3.0215,3.0788,3.1114,3.1341,3.1682,2.8978,2.5079,2.3453,1.9958,1.6189,1.4947,1.5689,1.7076,1.7526,2.005,2.2871,2.3925,2.4874,2.5542,2.5557,2.6362,2.6942,2.6568,2.5153,2.3212,2.0798,1.8766,1.6892,1.4993,1.3854,1.286,1.2017,1.1314,1.068,1.0254,1.0187,0.9973,0.946,1.0264,1.0689,1.029,0.9947,0.9477,0.8684,0.7711,0.6823,0.6095,0.5066,0.4064,0.3211,0.2507,0.2002,0.1624,0.1124,0.1422,0.2566,0.2654,0.4,2.478,2.4929,2.4762,2.6316,2.5363,2.4328,2.5365,2.3266,2.1203,2.1347,2.146,2.1955,2.3299,2.437,2.5361,2.6405,2.7104,2.713,2.5918,2.6511,2.6832,2.6088,2.5215,2.445,2.3915,2.2584,2.1858,2.2134,2.2284,2.2686,2.3372,2.3485,2.3584,2.3721,2.2468,2.2175,2.3022,2.2765,2.2895,2.3374,2.4343,2.519,2.5967,2.8187,3.0048,3.1584,3.2216,3.2168,3.1563,3.0332,2.9503,2.8894,2.7735,2.7273,2.7335,2.7924,2.8464,2.8853,2.8968,2.7141,2.442,2.2294,1.9349,1.6326,1.4654,1.539,1.6896,1.7295,1.9892,2.2685,2.3468,2.4421,2.5343,2.5853,2.6326,2.6364,2.528,2.4212,2.2717,2.0435,1.8251,1.6349,1.4817,1.2947,1.151,1.0947,1.0626,1.0167,0.9399,0.9607,0.9666,0.9263,1.0023,1.0325,0.9734,0.9742,0.9289,0.8087,0.7512,0.6959,0.6406,0.5584,0.484,0.4152,0.3626,0.3294,0.3173,0.2894,0.3212,0.4094,0.4793,0.6077,2.3621,2.5883,2.776,2.8391,2.7773,2.6312,2.3553,2.2091,2.0903,1.9257,2.032,2.1313,2.073,2.2266,2.3536,2.3339,2.3859,2.3853,2.244,2.3069,2.3488,2.2928,2.2321,2.2003,2.2263,2.1167,2.0483,2.0645,2.1404,2.177,2.1572,2.172,2.1718,2.1481,2.0274,1.9765,2.0014,2.0406,2.0923,2.1563,2.2895,2.4505,2.6373,2.7805,2.9355,3.0964,3.1117,3.0958,3.0431,2.8542,2.7384,2.671,2.5083,2.4328,2.4208,2.4647,2.5195,2.5741,2.5522,2.4625,2.3136,2.0606,1.8495,1.6539,1.421,1.4896,1.6554,1.7142,1.9516,2.2058,2.3051,2.3894,2.4711,2.5703,2.5795,2.5207,2.3599,2.317,2.2374,2.0057,1.7956,1.6132,1.4729,1.2859,1.1396,1.0701,1.0498,0.9985,0.895,0.9123,0.9235,0.8971,0.9568,0.9688,0.9049,0.9599,0.9244,0.7605,0.7588,0.7365,0.6671,0.6354,0.5912,0.5232,0.4944,0.4703,0.4452,0.4536,0.4915,0.5645,0.6834,0.7866,2.6541,2.7156,2.694,2.5511,2.4505,2.3973,2.4183,2.2662,2.0605,1.8617,1.8956,1.956,1.9534,1.9779,2.0197,2.0768,2.1039,2.1137,2.0896,2.1668,2.2233,2.2061,2.2063,2.1783,2.1021,2.0543,2.0059,1.9626,2.0597,2.0902,2.0188,2.1578,2.1706,2.021,1.9131,1.8944,1.965,1.8716,1.8879,2.0083,2.1153,2.2466,2.396,2.4427,2.6127,2.876,2.9594,2.907,2.7578,2.6721,2.5374,2.376,2.2719,2.2169,2.1953,2.2033,2.2832,2.388,2.3554,2.2651,2.1336,1.9374,1.7463,1.5677,1.4387,1.5195,1.6729,1.744,1.9158,2.1064,2.2306,2.2226,2.2147,2.3349,2.3141,2.2975,2.4164,2.4239,2.3252,2.0335,1.7972,1.5966,1.4558,1.3965,1.3334,1.2255,1.1544,1.0646,0.9186,0.948,0.9494,0.8711,1.0093,1.0741,0.9937,0.9838,0.9482,0.8661,0.795,0.7616,0.7519,0.7265,0.6946,0.6582,0.5911,0.5416,0.5101,0.5189,0.5451,0.5768,0.5963,0.6848,2.551,2.5026,2.4421,2.6503,2.4812,2.2995,2.4296,2.222,1.9509,1.7882,1.7845,1.8074,1.811,1.8134,1.8263,1.8711,1.8753,1.8821,1.8942,1.9667,2.0309,2.0797,2.0744,2.0565,2.0376,1.9618,1.9209,1.9321,1.9006,1.8868,1.9006,1.8854,1.8385,1.7569,1.7119,1.6994,1.7238,1.7648,1.865,2.0261,2.0766,2.1735,2.3052,2.3177,2.4373,2.64,2.6654,2.6479,2.586,2.4408,2.3276,2.2335,2.1018,2.0206,1.9803,2.0286,2.0934,2.1519,2.113,2.0694,2.004,1.8041,1.6496,1.5236,1.4518,1.5054,1.6129,1.7387,1.879,2.0169,2.1272,2.1417,2.136,2.1708,2.2256,2.2391,2.151,2.1629,2.1081,1.8356,1.6787,1.5639,1.4768,1.3783,1.2898,1.2102,1.1467,1.0558,0.9004,0.9061,0.9238,0.9276,1.0061,1.0495,1.0114,1.0192,0.9794,0.866,0.8162,0.7917,0.8096,0.7626,0.7371,0.7377,0.6607,0.61,0.5773,0.6428,0.6652,0.656,0.712,0.7812,2.3536,2.2861,2.2477,2.6366,2.4681,2.2328,2.3219,2.121,1.8727,1.7064,1.6994,1.7102,1.6784,1.6872,1.7096,1.735,1.731,1.7473,1.7991,1.8562,1.9211,2.001,1.998,1.9929,2.0019,1.9226,1.8718,1.8816,1.821,1.7877,1.7923,1.7112,1.6374,1.5751,1.5686,1.5579,1.5392,1.6962,1.8628,2.0346,2.0283,2.0805,2.1823,2.1633,2.2272,2.3467,2.4185,2.4519,2.448,2.2522,2.1624,2.1303,1.9731,1.8889,1.8617,1.9484,1.984,1.9834,1.9672,1.9514,1.9073,1.7148,1.5972,1.5187,1.4687,1.4917,1.5561,1.7087,1.8184,1.915,2.0131,2.038,2.0463,2.0562,2.1199,2.1314,1.94,1.8934,1.8313,1.6503,1.5746,1.5445,1.5322,1.43,1.327,1.2617,1.1964,1.087,0.9118,0.8926,0.9022,0.9225,0.9773,1.0004,0.9835,1.023,0.9902,0.8715,0.8472,0.8397,0.8598,0.8074,0.7677,0.7504,0.6907,0.6498,0.6278,0.7363,0.7628,0.715,0.8214,0.8864,2.156,2.2064,2.2357,2.264,2.2425,2.1733,2.0214,1.9609,1.8705,1.6271,1.6547,1.6848,1.5619,1.598,1.6578,1.695,1.7129,1.7663,1.8934,1.9379,1.9765,2.0296,2.0715,2.0634,1.9897,1.9783,1.9091,1.7598,1.9127,1.9182,1.6986,1.8236,1.8037,1.5859,1.5606,1.5465,1.5402,1.6674,1.8116,1.964,1.9082,1.9014,1.9361,1.8787,1.8853,1.959,2.2948,2.4028,2.3264,2.1649,2.0752,2.0341,1.8983,1.8602,1.8909,1.9988,2.0021,1.9597,2.0032,1.9563,1.8499,1.7159,1.6323,1.569,1.4923,1.4923,1.5449,1.6486,1.7213,1.7961,1.9004,1.8785,1.8588,1.992,1.9275,1.862,1.9629,1.7693,1.571,1.5679,1.5497,1.5595,1.6238,1.6417,1.6087,1.4974,1.3956,1.2365,0.9793,0.9533,0.9133,0.7954,0.9137,0.979,0.9214,0.9653,0.9724,0.927,0.9057,0.9014,0.9265,0.8651,0.7821,0.671,0.6406,0.6297,0.6421,0.7514,0.7767,0.7105,0.8497,0.9119,1.9551,1.9879,2.0088,2.1824,2.0697,1.9413,2.0403,1.959,1.7993,1.583,1.6859,1.738,1.4738,1.5119,1.5847,1.5912,1.6489,1.7339,1.8534,1.9142,1.9932,2.1155,2.1213,2.0829,2.0128,1.9811,1.9155,1.7888,1.7074,1.6463,1.6044,1.5468,1.5117,1.5017,1.4999,1.5196,1.5649,1.6489,1.7394,1.8305,1.861,1.8518,1.8058,1.8307,1.8292,1.8186,2.0079,2.1181,2.1585,2.0189,1.9482,1.9181,1.8291,1.7971,1.8109,1.8683,1.8779,1.8611,1.882,1.8168,1.7006,1.6177,1.5438,1.4859,1.4396,1.4597,1.5235,1.6255,1.6922,1.7335,1.7379,1.7348,1.7444,1.791,1.6424,1.5225,1.6347,1.6198,1.5652,1.493,1.5263,1.5807,1.6232,1.5975,1.5575,1.5059,1.3843,1.2372,1.0555,0.9808,0.9361,0.9162,0.9373,0.9732,1.0116,1.025,1.0126,0.9693,0.9252,0.8949,0.8702,0.801,0.7183,0.6379,0.6789,0.6652,0.594,0.6987,0.7751,0.8218,0.9392,1.0099,1.7133,1.7895,1.852,2.07,1.996,1.903,2.0167,1.9827,1.8644,1.6428,1.772,1.8436,1.5587,1.5875,1.6362,1.5816,1.6506,1.7552,1.8715,1.9376,2.0132,2.1159,2.1086,2.0687,1.9988,1.9515,1.8757,1.756,1.5901,1.5047,1.5197,1.4088,1.3787,1.4582,1.4666,1.5051,1.576,1.6032,1.6538,1.7281,1.7665,1.7436,1.6675,1.7153,1.7135,1.6826,1.7103,1.8365,2.0135,1.8653,1.8308,1.8541,1.738,1.7279,1.7865,1.815,1.813,1.7932,1.8223,1.7234,1.5799,1.5296,1.4522,1.3785,1.3733,1.3992,1.4451,1.5565,1.6187,1.6444,1.5943,1.6023,1.6103,1.5713,1.4434,1.3484,1.4018,1.4701,1.5024,1.4302,1.4976,1.5752,1.6154,1.5959,1.5689,1.5342,1.4263,1.2953,1.1472,0.9995,0.9131,0.9355,0.8806,0.8781,0.9916,0.9887,0.9802,0.9557,0.9271,0.8868,0.8218,0.768,0.7019,0.6391,0.6857,0.6901,0.6493,0.7603,0.8348,0.8851,1.0091,1.0652,0.0,0.0,0.0,1.8981,2.0182,2.0747,1.9246,2.0133,2.0562,1.7976,1.8988,1.9838,1.8045,1.8137,1.8036,1.6828,1.7308,1.8327,1.9615,2.0175,2.038,2.0342,2.0385,2.0147,1.94,1.8845,1.7926,1.6411,1.5858,1.5213,1.4379,1.4412,1.4467,1.4524,1.4639,1.4987,1.5619,1.5293,1.56,1.6571,1.6201,1.5747,1.5231,1.5135,1.519,1.5278,1.4346,1.5819,1.8768,1.7039,1.7227,1.8438,1.6206,1.651,1.8222,1.8426,1.8076,1.759,1.8173,1.6884,1.4914,1.4687,1.3639,1.2602,1.3122,1.307,1.307,1.4341,1.4942,1.5108,1.4737,1.4689,1.4496,1.3415,1.3322,1.3314,1.3027,1.3235,1.3643,1.3842,1.4649,1.5444,1.6039,1.6522,1.6579,1.5941,1.5263,1.4214,1.248,1.0122,0.8543,0.8382,0.7317,0.7057,0.8246,0.8542,0.8768,0.8932,0.9206,0.8884,0.7835,0.7839,0.7503,0.6661,0.6455,0.6915,0.8134,0.9302,0.9503,0.8959,1.0565,1.0642,1.1564,0.0,0.0,0.0,0.0,0.0,1.8676,1.8912,1.858,1.6083,1.7385,1.8414,1.6466,1.6983,1.7556,1.7039,1.8294,1.9585,2.0423,2.0396,2.0557,2.1175,1.9816,1.849,1.7607,1.7216,1.6149,0.0,1.3379,1.2916,1.268,1.319,1.3303,1.2873,1.3966,1.4324,1.381,1.4917,1.5753,1.6302,1.6354,1.6214,1.5919,1.5462,1.472,1.3833,1.4323,1.4553,1.4521,1.4203,1.4558,1.5156,1.4092,1.4583,1.5927,1.6028,1.649,1.6949,1.6163,1.5198,1.4106,1.2702,1.2351,1.2446,1.2075,1.2691,1.3563,1.4154,1.4392,1.4332,1.3545,1.2381,1.159,1.2058,1.1733,1.1354,1.1496,1.2043,1.2773,1.3705,1.4915,1.5549,1.4952,1.5101,1.4993,1.4024,1.3485,1.2807,1.1668,0.9892,0.8664,0.8336,0.7948,0.7748,0.8066,0.9142,0.9784,0.9681,0.9747,0.9077,0.7524,0.799,0.7449,0.5791,0.7114,0.8003,0.8295,0.8231,0.8799,1.0056,1.1114,1.095,0.8034,1.1252,1.4068,1.5878,0.0,0.0,1.8168,1.8314,1.7984,1.5749,1.706,1.7991,1.6031,1.6546,1.7356,1.7373,1.8449,1.9383,1.9768,1.9812,1.9792,1.9929,1.8402,1.6956,1.5886,1.5199,1.4003,1.1977,1.1068,1.048,1.0138,1.1057,1.158,1.1535,1.2863,1.3476,1.3237,1.4393,1.5098,1.5309,1.5218,1.5187,1.5237,1.4819,1.4203,1.3473,1.3867,1.3732,1.3173,1.2441,1.2732,1.351,1.2489,1.3187,1.4728,1.4513,1.5075,1.5848,1.4782,1.3754,1.2648,1.1428,1.082,1.0504,1.04,1.1012,1.1846,1.2449,1.292,1.3158,1.2458,1.1398,1.0611,1.1093,1.0832,1.0632,1.1084,1.1703,1.2429,1.3245,1.4138,1.4502,1.3871,1.3699,1.3431,1.2898,1.2792,1.2557,1.1999,1.016,0.8844,0.8842,0.7693,0.7269,0.8116,0.8886,0.9219,0.9079,0.9262,0.8442,0.6479,0.6982,0.6723,0.5575,0.6799,0.7816,0.8562,0.8624,0.9411,1.0805,1.0874,1.0443,0.4344,0.8427,1.2334,1.3913,1.6572,0.0,1.7525,1.7678,1.7545,1.5853,1.6797,1.7481,1.5792,1.6199,1.6882,1.7364,1.7734,1.8113,1.8478,1.8789,1.8579,1.744,1.6479,1.5415,1.4111,1.2932,1.158,1.001,0.8948,0.8054,0.7343,0.8496,0.9472,1.0091,1.1408,1.2414,1.3084,1.3705,1.41,1.4306,1.3658,1.3647,1.4195,1.3831,1.3691,1.3739,1.3275,1.3257,1.3401,1.1539,1.1676,1.2856,1.1191,1.2048,1.4107,1.3493,1.387,1.4593,1.3854,1.2513,1.0995,1.0488,0.9088,0.7705,0.8211,0.8601,0.9144,1.0168,1.1134,1.1805,1.1548,1.1297,1.0863,1.0255,1.0245,1.0488,1.0886,1.1317,1.1755,1.2106,1.2606,1.2788,1.2594,1.2208,1.191,1.2027,1.2315,1.2556,1.2584,1.0423,0.8965,0.9321,0.7062,0.6227,0.7978,0.8069,0.8008,0.7675,0.8086,0.7345,0.528,0.5681,0.5918,0.5744,0.6089,0.7053,0.8617,0.9728,1.0545,1.1119,1.0172,0.9623,0.2328,0.6733,1.0907,1.2567,1.5093,0.0,1.6018,1.4844,1.3604,1.2469,1.2489,1.2787,1.2821,1.3471,1.4238,1.5025,1.5545,1.6535,1.84,1.8819,1.8036,1.5703,1.4748,1.35,1.1532,1.0491,0.9379,0.8059,0.6909,0.6243,0.6138,0.6736,0.7106,0.7148,0.9557,1.0949,1.1132,1.269,1.4196,1.5609,1.4273,1.4504,1.6087,1.4264,1.3489,1.3556,1.3566,1.2979,1.1985,1.1519,1.1605,1.1789,0.9751,1.0555,1.278,1.2073,1.3043,1.4457,1.2914,1.1791,1.0724,0.8468,0.7473,0.7063,0.6347,0.7231,0.8867,1.0789,1.0887,1.0478,1.0724,1.0766,1.0431,0.9364,0.8918,0.8589,0.7995,0.7751,0.7914,0.8882,1.0804,1.186,1.0491,1.0242,1.0031,0.9644,1.0164,1.0405,1.0006,0.9051,0.8194,0.7677,0.7308,0.6864,0.6458,0.7736,0.8336,0.7596,0.7589,0.7091,0.5696,0.6488,0.6585,0.5782,0.7084,0.7873,0.8318,0.9601,1.0171,1.0156,0.9985,0.9925,-0.0267,0.3479,0.6905,0.9044,1.1237,0.0,0.0,1.0714,0.9636,0.8184,0.8792,0.9621,0.9924,1.0985,1.2246,1.362,1.4064,1.4734,1.6203,1.7263,1.7475,1.6282,1.4659,1.2854,1.0857,0.9012,0.7231,0.5492,0.4362,0.3744,0.3712,0.3966,0.4258,0.4595,0.6952,0.8605,0.9437,1.2347,1.4196,1.5002,1.433,1.4738,1.6049,1.4567,1.3905,1.3905,1.3835,1.3479,1.2899,1.2157,1.2041,1.2083,0.9503,0.9668,1.133,1.1134,1.2,1.3115,1.1846,1.0759,0.9636,0.765,0.6713,0.6139,0.4625,0.5,0.6304,0.8052,0.8955,0.932,0.9326,0.9419,0.9345,0.8589,0.821,0.7848,0.734,0.7154,0.7085,0.7081,0.8393,0.9253,0.8516,0.8203,0.8031,0.7938,0.8498,0.9047,0.9388,0.8524,0.7898,0.7992,0.7135,0.6659,0.6812,0.745,0.7585,0.6864,0.6944,0.6544,0.5267,0.5683,0.5852,0.5631,0.6685,0.7505,0.8024,0.8965,0.9368,0.914,0.9256,0.9382,-0.3693,-0.0608,0.2112,0.436,0.6156,0.7196,0.0,0.0,0.0,0.3679,0.4798,0.6219,0.6655,0.81,0.9871,1.1984,1.2407,1.28,1.3813,1.5189,1.6159,1.6273,1.4366,1.229,1.0366,0.7489,0.501,0.3255,0.1982,0.1289,0.1315,0.1255,0.1575,0.2351,0.418,0.5991,0.7769,1.1326,1.3388,1.3975,1.4075,1.4609,1.5508,1.4682,1.4324,1.432,1.4069,1.3937,1.3778,1.2712,1.2231,1.1945,0.9426,0.9237,1.0365,1.031,1.0858,1.1493,1.0848,0.9752,0.8421,0.7157,0.5888,0.4451,0.2616,0.2507,0.3362,0.4807,0.6546,0.796,0.7874,0.7985,0.8032,0.7573,0.7284,0.7044,0.6792,0.6754,0.654,0.5828,0.6029,0.6388,0.6793,0.6626,0.6531,0.6705,0.7207,0.7827,0.8764,0.7803,0.7362,0.8101,0.6644,0.6132,0.7295,0.6904,0.6465,0.597,0.6153,0.5777,0.4745,0.4745,0.4909,0.5433,0.5985,0.6706,0.7601,0.7866,0.8213,0.8552,0.8599,0.8775,-0.872,-0.5437,-0.2278,-0.112,0.0267,0.1335,0.1087,0.0,-0.1184,-0.0748,0.0,0.0457,0.246,0.0,0.0,0.8726,0.9762,1.0949,1.3178,1.3403,1.3071,1.2361,1.1728,1.0591,0.8576,0.488,0.2582,0.2507,0.0576,-0.034,0.0239,-0.0232,-0.0198,0.049,0.1765,0.3557,0.5887,0.7842,1.0517,1.3915,1.3569,1.4213,1.5647,1.448,1.4145,1.4464,1.4269,1.3484,1.2352,1.2429,1.1214,0.9212,0.8575,0.9418,1.0824,0.9372,0.952,1.043,1.0052,0.9113,0.7877,0.6418,0.388,0.113,-0.058,-0.0,0.1614,0.3468,0.472,0.5795,0.6917,0.7031,0.6611,0.5806,0.5307,0.4931,0.4396,0.3927,0.3803,0.4559,0.4452,0.444,0.5467,0.6146,0.6519,0.6302,0.6175,0.6083,0.6083,0.5691,0.5454,0.5696,0.557,0.5606,0.5812,0.5806,0.5505,0.5011,0.4953,0.4886,0.4782,0.4779,0.5041,0.5504,0.5671,0.6157,0.6846,0.5962,0.6695,0.8945,0.8604,0.8542,-1.204,-1.0544,-0.9165,-0.7965,-0.6768,-0.5896,-0.599,-0.5418,-0.4915,-0.4994,0.0,0.0,0.0,0.0,0.0,0.0,0.7362,0.8693,0.9828,1.012,1.0862,1.262,1.1908,0.9712,0.5701,0.3459,0.193,0.1121,-0.011,-0.0659,-0.027,-0.0971,-0.1332,-0.125,-0.102,0.0354,0.2971,0.5001,0.7903,1.1638,1.234,1.3719,1.5609,1.4551,1.4326,1.4685,1.3727,1.3088,1.2609,1.1758,1.0719,0.9566,0.8571,0.8602,0.9094,0.8233,0.8354,0.8925,0.8489,0.7802,0.6832,0.5149,0.2941,0.0721,-0.0865,-0.102,-0.034,0.1149,0.2399,0.3556,0.465,0.498,0.4965,0.4745,0.4192,0.3697,0.3708,0.3398,0.3199,0.3571,0.367,0.3881,0.4587,0.5287,0.5652,0.5549,0.5167,0.4869,0.4725,0.4175,0.3915,0.4245,0.4424,0.4746,0.5069,0.5487,0.5607,0.5092,0.506,0.5143,0.5396,0.5098,0.4933,0.5189,0.4945,0.5009,0.5287,0.5165,0.5656,0.6844,0.7175,0.7199,-1.5805,-1.558,-1.5338,-1.3952,-1.3075,-1.2463,-1.2041,-1.0339,-0.885,-0.897,-0.7478,0.0,0.0,0.0,0.0168,0.2457,0.0,0.5497,0.6239,0.6871,0.8465,1.1691,1.0539,0.7751,0.3451,0.21,0.1129,0.02,-0.0792,-0.1229,-0.0963,-0.1901,-0.2602,-0.2897,-0.3305,-0.248,-0.0318,0.2077,0.5003,0.846,1.0652,1.2896,1.5107,1.4658,1.4437,1.4395,1.3378,1.2682,1.2167,1.1009,1.0132,0.9423,0.8279,0.758,0.7185,0.701,0.6992,0.6925,0.6446,0.5903,0.5166,0.403,0.2362,0.0575,-0.0793,-0.148,-0.1528,-0.0448,0.0559,0.1512,0.2452,0.2943,0.3168,0.3405,0.3025,0.2751,0.325,0.3107,0.2826,0.2802,0.3022,0.3299,0.3471,0.4232,0.4803,0.4574,0.3949,0.3407,0.286,0.2283,0.1987,0.22,0.2751,0.3331,0.3967,0.4804,0.5318,0.5398,0.5363,0.5573,0.5883,0.5179,0.4891,0.4998,0.4355,0.4054,0.4222,0.4325,0.4473,0.4599,0.5225,0.5735,0.0,0.0,-1.9573,-1.8234,-1.7973,-1.7619,-1.5997,-1.49,-1.3863,-1.253,-1.1362,-0.9821,-0.7227,-0.6421,-0.4988,-0.1401,-0.0218,0.0,0.0,0.4128,0.5474,0.7727,0.5937,0.3933,0.2491,0.043,-0.0515,0.0152,-0.1625,-0.2521,-0.2086,-0.337,-0.4215,-0.4432,-0.4701,-0.4522,-0.3849,-0.1186,0.16,0.4534,0.8469,1.1612,1.3986,1.4727,1.4408,1.3277,1.3494,1.2242,1.0122,1.0232,0.9236,0.7551,0.7266,0.6563,0.5763,0.5839,0.5276,0.4436,0.3926,0.3188,0.2618,0.33,0.2017,0.0051,-0.0895,-0.1451,-0.1515,-0.0733,-0.0515,-0.0291,0.073,0.106,0.1231,0.1343,0.1666,0.2062,0.2538,0.2417,0.2323,0.255,0.2479,0.2225,0.1777,0.3086,0.4035,0.3342,0.2379,0.1269,-0.0,-0.0343,-0.063,-0.0981,0.0146,0.127,0.2265,0.3275,0.438,0.5479,0.5661,0.5806,0.5962,0.5055,0.4699,0.509,0.4096,0.3719,0.4121,0.3266,0.2906,0.2902,0.2974,0.4244,0.0,0.0,-2.2602,-2.2804,0.0,0.0,-2.0547,-1.7748,-1.5091,-1.4837,-1.3047,-1.1474,-1.1294,-0.933,-0.7297,-0.6023,-0.3625,-0.1612,0.0,0.0486,0.1661,0.2774,0.4056,0.3978,0.1795,0.0943,0.0432,0.0152,-0.0791,-0.0993,-0.0145,-0.2549,-0.3813,-0.3524,-0.5182,-0.5509,-0.4281,-0.3143,-0.1025,0.2075,0.4326,0.7042,1.0087,1.0703,1.1421,1.2124,1.1574,1.0716,0.9601,0.8649,0.7604,0.656,0.6266,0.5817,0.5265,0.482,0.4062,0.3139,0.2334,0.1965,0.1931,0.2167,0.1607,0.0682,-0.0381,-0.1285,-0.2038,-0.1956,-0.2244,-0.2479,-0.1879,-0.1437,-0.0944,-0.0388,-0.0112,0.0343,0.1462,0.1692,0.1803,0.1995,0.1313,0.0918,0.1529,0.1125,0.0818,0.1178,-0.0136,-0.1138,-0.1138,-0.1555,-0.1865,-0.2076,-0.1092,-0.0148,0.0304,0.209,0.3832,0.5482,0.5511,0.5481,0.5552,0.5095,0.4844,0.4871,0.3619,0.3336,0.3914,0.2439,0.1891,0.2142,0.1845,0.2525,-2.3419,-2.3914,0.0,-2.4775,-2.37,0.0,-2.2681,0.0,-1.7326,-1.7411,-1.571,-1.428,-1.4521,-1.2842,-1.1026,-0.9821,-0.7582,-0.542,0.0,-0.2197,-0.0931,-0.0288,0.173,0.2491,0.1004,0.0693,0.0584,0.0617,-0.0166,-0.0195,0.08,-0.1915,-0.3456,-0.3286,-0.5326,-0.5848,-0.4621,-0.4263,-0.2906,-0.0566,0.1754,0.4463,0.7455,0.8306,0.9381,1.0555,0.9772,0.9182,0.8609,0.7251,0.64,0.5913,0.5582,0.5171,0.4731,0.4252,0.3031,0.1505,0.0629,0.0477,0.0681,0.033,0.0536,0.0724,-0.0165,-0.1496,-0.268,-0.2627,-0.3361,-0.4142,-0.3743,-0.3177,-0.2607,-0.221,-0.1719,-0.101,0.0172,0.0511,0.0619,0.0747,0.0176,-0.0241,0.0125,-0.077,-0.1255,-0.0345,-0.1362,-0.2281,-0.2347,-0.2504,-0.2694,-0.2863,-0.1967,-0.0972,0.0156,0.1954,0.3677,0.5321,0.5321,0.5318,0.547,0.516,0.4905,0.4627,0.3429,0.2919,0.3094,0.1951,0.1403,0.1616,0.1346,0.1641]}]]